<?xml version='1.0' encoding='UTF-8'?><gpx version="1.1" creator="JPX - https://github.com/jenetics/jpx" xmlns="http://www.topografix.com/GPX/1/1"><trk><trkseg><trkpt lat="44.39890768135964" lon="10.822684736243652"><ele>667.0</ele><time>2026-04-06T16:54:28.999Z</time></trkpt><trkpt lat="44.39892320806106" lon="10.822809731155939"><ele>667.0</ele><time>2026-04-06T16:54:31.999Z</time></trkpt><trkpt lat="44.39896519654451" lon="10.822897197706654"><ele>667.0</ele><time>2026-04-06T16:54:32.999Z</time></trkpt><trkpt lat="44.39900852556075" lon="10.82301141918818"><ele>667.0</ele><time>2026-04-06T16:54:33.999Z</time></trkpt><trkpt lat="44.39902276604634" lon="10.823146351624121"><ele>667.0</ele><time>2026-04-06T16:54:34.999Z</time></trkpt><trkpt lat="44.39907703462092" lon="10.823286227976139"><ele>667.0</ele><time>2026-04-06T16:54:35.999Z</time></trkpt><trkpt lat="44.39913344563345" lon="10.823423121854953"><ele>667.0</ele><time>2026-04-06T16:54:36.999Z</time></trkpt><trkpt lat="44.399189455346644" lon="10.82355859623553"><ele>667.0</ele><time>2026-04-06T16:54:37.999Z</time></trkpt><trkpt lat="44.399249527573446" lon="10.823708375421736"><ele>667.0</ele><time>2026-04-06T16:54:38.999Z</time></trkpt><trkpt lat="44.399302865623945" lon="10.823860832210666"><ele>666.6</ele><time>2026-04-06T16:54:39.999Z</time></trkpt><trkpt lat="44.39933937783964" lon="10.82398202876755"><ele>666.2</ele><time>2026-04-06T16:54:40.999Z</time></trkpt><trkpt lat="44.39938758774987" lon="10.824110430088323"><ele>665.8</ele><time>2026-04-06T16:54:41.999Z</time></trkpt><trkpt lat="44.39939086340448" lon="10.824256046584885"><ele>665.4</ele><time>2026-04-06T16:54:42.999Z</time></trkpt><trkpt lat="44.3993977739098" lon="10.824376343491343"><ele>665.0</ele><time>2026-04-06T16:54:43.999Z</time></trkpt><trkpt lat="44.39935755874027" lon="10.824465349854028"><ele>664.8</ele><time>2026-04-06T16:54:44.999Z</time></trkpt><trkpt lat="44.399316569980414" lon="10.8245551925364"><ele>664.6</ele><time>2026-04-06T16:54:45.999Z</time></trkpt><trkpt lat="44.399266400175556" lon="10.824655072512712"><ele>664.4000000000001</ele><time>2026-04-06T16:54:46.999Z</time></trkpt><trkpt lat="44.399213452295385" lon="10.824762108387619"><ele>664.2</ele><time>2026-04-06T16:54:47.999Z</time></trkpt><trkpt lat="44.399161545322826" lon="10.824877914035374"><ele>664.0</ele><time>2026-04-06T16:54:48.998Z</time></trkpt><trkpt lat="44.39911330625279" lon="10.825000573060493"><ele>664.0</ele><time>2026-04-06T16:54:49.998Z</time></trkpt><trkpt lat="44.39909069324858" lon="10.825129715158294"><ele>664.0</ele><time>2026-04-06T16:54:51Z</time></trkpt><trkpt lat="44.399064965330034" lon="10.825271305724856"><ele>664.0</ele><time>2026-04-06T16:54:52Z</time></trkpt><trkpt lat="44.39907292453338" lon="10.825419480165511"><ele>664.0</ele><time>2026-04-06T16:54:53Z</time></trkpt><trkpt lat="44.39911319084897" lon="10.825603081609836"><ele>664.0</ele><time>2026-04-06T16:54:54Z</time></trkpt><trkpt lat="44.39916228520844" lon="10.825796351231068"><ele>662.5</ele><time>2026-04-06T16:54:55Z</time></trkpt><trkpt lat="44.399202416842506" lon="10.825993732779688"><ele>661.0</ele><time>2026-04-06T16:54:56Z</time></trkpt><trkpt lat="44.399235257090474" lon="10.826193397907113"><ele>659.5</ele><time>2026-04-06T16:54:57Z</time></trkpt><trkpt lat="44.39926028190958" lon="10.826372760981625"><ele>658.0</ele><time>2026-04-06T16:54:58Z</time></trkpt><trkpt lat="44.399276401084926" lon="10.826532853846304"><ele>658.0</ele><time>2026-04-06T16:54:59Z</time></trkpt><trkpt lat="44.39928796274657" lon="10.826708516936524"><ele>658.0</ele><time>2026-04-06T16:55:00Z</time></trkpt><trkpt lat="44.39930374675565" lon="10.826910437779228"><ele>658.0</ele><time>2026-04-06T16:55:01Z</time></trkpt><trkpt lat="44.39931852894307" lon="10.827113737169235"><ele>658.0</ele><time>2026-04-06T16:55:02Z</time></trkpt><trkpt lat="44.399330395697056" lon="10.82730186186509"><ele>657.0</ele><time>2026-04-06T16:55:03Z</time></trkpt><trkpt lat="44.39934250822704" lon="10.827496020633966"><ele>656.0</ele><time>2026-04-06T16:55:04Z</time></trkpt><trkpt lat="44.399378654962504" lon="10.82767225681586"><ele>655.0</ele><time>2026-04-06T16:55:05Z</time></trkpt><trkpt lat="44.39943262576274" lon="10.8278427880736"><ele>654.0</ele><time>2026-04-06T16:55:06Z</time></trkpt><trkpt lat="44.39948070563219" lon="10.828005393285872"><ele>654.0</ele><time>2026-04-06T16:55:07Z</time></trkpt><trkpt lat="44.39951400867769" lon="10.828185858539165"><ele>654.0</ele><time>2026-04-06T16:55:08Z</time></trkpt><trkpt lat="44.399529535479545" lon="10.828363028727377"><ele>654.0</ele><time>2026-04-06T16:55:09Z</time></trkpt><trkpt lat="44.39954960075038" lon="10.828556539912633"><ele>654.0</ele><time>2026-04-06T16:55:10Z</time></trkpt><trkpt lat="44.39956972385007" lon="10.828764798984054"><ele>653.3333333333334</ele><time>2026-04-06T16:55:11Z</time></trkpt><trkpt lat="44.39955604094629" lon="10.828982615885483"><ele>652.6666666666667</ele><time>2026-04-06T16:55:12Z</time></trkpt><trkpt lat="44.39957953799984" lon="10.8292254421603"><ele>652.0</ele><time>2026-04-06T16:55:13Z</time></trkpt><trkpt lat="44.399583763650455" lon="10.829442133449625"><ele>651.25</ele><time>2026-04-06T16:55:14Z</time></trkpt><trkpt lat="44.3996006105367" lon="10.829630231339971"><ele>650.5</ele><time>2026-04-06T16:55:15Z</time></trkpt><trkpt lat="44.39960808955387" lon="10.829800284181083"><ele>649.75</ele><time>2026-04-06T16:55:16Z</time></trkpt><trkpt lat="44.39960899741348" lon="10.829995611747584"><ele>649.0</ele><time>2026-04-06T16:55:17Z</time></trkpt><trkpt lat="44.39961019764022" lon="10.830178767714699"><ele>647.5</ele><time>2026-04-06T16:55:18Z</time></trkpt><trkpt lat="44.399608727569664" lon="10.83034827091413"><ele>646.0</ele><time>2026-04-06T16:55:19Z</time></trkpt><trkpt lat="44.399606326372634" lon="10.83052522843613"><ele>644.5</ele><time>2026-04-06T16:55:20Z</time></trkpt><trkpt lat="44.399607962067165" lon="10.83070035972198"><ele>643.0</ele><time>2026-04-06T16:55:21Z</time></trkpt><trkpt lat="44.399608590547615" lon="10.830879693197824"><ele>641.6</ele><time>2026-04-06T16:55:22Z</time></trkpt><trkpt lat="44.399605590723155" lon="10.831041069717898"><ele>640.1999999999999</ele><time>2026-04-06T16:55:23Z</time></trkpt><trkpt lat="44.39960298030016" lon="10.831189284237878"><ele>638.8</ele><time>2026-04-06T16:55:24Z</time></trkpt><trkpt lat="44.399599101375145" lon="10.831336204740433"><ele>637.4</ele><time>2026-04-06T16:55:25Z</time></trkpt><trkpt lat="44.39959087779955" lon="10.83149479105349"><ele>636.0</ele><time>2026-04-06T16:55:26Z</time></trkpt><trkpt lat="44.39957021029637" lon="10.831653367514633"><ele>634.2</ele><time>2026-04-06T16:55:26.999Z</time></trkpt><trkpt lat="44.3995446572628" lon="10.831809907628488"><ele>632.4000000000001</ele><time>2026-04-06T16:55:27.999Z</time></trkpt><trkpt lat="44.39950969864495" lon="10.831964544480076"><ele>630.6</ele><time>2026-04-06T16:55:28.999Z</time></trkpt><trkpt lat="44.39948563617244" lon="10.832110019412891"><ele>628.8000000000001</ele><time>2026-04-06T16:55:29.999Z</time></trkpt><trkpt lat="44.39948600787553" lon="10.83225851532988"><ele>627.0</ele><time>2026-04-06T16:55:30.999Z</time></trkpt><trkpt lat="44.39950831681969" lon="10.832397380931052"><ele>627.0</ele><time>2026-04-06T16:55:31.999Z</time></trkpt><trkpt lat="44.399534828040224" lon="10.832534642112895"><ele>627.0</ele><time>2026-04-06T16:55:32.999Z</time></trkpt><trkpt lat="44.39956198298412" lon="10.832659017817464"><ele>627.0</ele><time>2026-04-06T16:55:33.999Z</time></trkpt><trkpt lat="44.39958929921568" lon="10.832786507569995"><ele>627.0</ele><time>2026-04-06T16:55:34.999Z</time></trkpt><trkpt lat="44.399610953069775" lon="10.832907302051424"><ele>627.0</ele><time>2026-04-06T16:55:35.999Z</time></trkpt><trkpt lat="44.399630742871295" lon="10.833020829765605"><ele>625.3333333333334</ele><time>2026-04-06T16:55:36.999Z</time></trkpt><trkpt lat="44.39964615220134" lon="10.833112541443118"><ele>623.6666666666666</ele><time>2026-04-06T16:55:37.999Z</time></trkpt><trkpt lat="44.39961760870892" lon="10.833276485959663"><ele>622.0</ele><time>2026-04-06T16:55:39.999Z</time></trkpt><trkpt lat="44.39956293270173" lon="10.833334892577739"><ele>620.3333333333333</ele><time>2026-04-06T16:55:40.999Z</time></trkpt><trkpt lat="44.39948653071016" lon="10.833357484157126"><ele>618.6666666666666</ele><time>2026-04-06T16:55:41.999Z</time></trkpt><trkpt lat="44.399383150027084" lon="10.833351864124475"><ele>617.0</ele><time>2026-04-06T16:55:42.999Z</time></trkpt><trkpt lat="44.39927188094854" lon="10.833320849893266"><ele>617.0</ele><time>2026-04-06T16:55:43.999Z</time></trkpt><trkpt lat="44.39914927443801" lon="10.833234904866755"><ele>617.0</ele><time>2026-04-06T16:55:44.999Z</time></trkpt><trkpt lat="44.39902012168859" lon="10.833182025814827"><ele>617.0</ele><time>2026-04-06T16:55:45.999Z</time></trkpt><trkpt lat="44.39889868901152" lon="10.833113853954222"><ele>617.0</ele><time>2026-04-06T16:55:46.999Z</time></trkpt><trkpt lat="44.39877713147308" lon="10.833067361456964"><ele>615.75</ele><time>2026-04-06T16:55:47.999Z</time></trkpt><trkpt lat="44.39865360072539" lon="10.833028483007542"><ele>614.5</ele><time>2026-04-06T16:55:48.999Z</time></trkpt><trkpt lat="44.39852272490237" lon="10.833001293827154"><ele>613.25</ele><time>2026-04-06T16:55:49.999Z</time></trkpt><trkpt lat="44.39840990456981" lon="10.832965147225165"><ele>612.0</ele><time>2026-04-06T16:55:50.999Z</time></trkpt><trkpt lat="44.398293005391665" lon="10.832920683423714"><ele>612.0</ele><time>2026-04-06T16:55:51.999Z</time></trkpt><trkpt lat="44.39819191667916" lon="10.832866119713753"><ele>612.0</ele><time>2026-04-06T16:55:52.999Z</time></trkpt><trkpt lat="44.39808752192552" lon="10.832816420022166"><ele>612.0</ele><time>2026-04-06T16:55:53.999Z</time></trkpt><trkpt lat="44.39799154656335" lon="10.832772174580368"><ele>612.0</ele><time>2026-04-06T16:55:54.999Z</time></trkpt><trkpt lat="44.397895781444284" lon="10.832736802783945"><ele>612.0</ele><time>2026-04-06T16:55:55.999Z</time></trkpt><trkpt lat="44.39780407880571" lon="10.832673197082771"><ele>610.2</ele><time>2026-04-06T16:55:56.999Z</time></trkpt><trkpt lat="44.397700759722916" lon="10.832626778511038"><ele>608.4000000000001</ele><time>2026-04-06T16:55:57.999Z</time></trkpt><trkpt lat="44.39761657949206" lon="10.832555898856489"><ele>606.5999999999999</ele><time>2026-04-06T16:55:58.999Z</time></trkpt><trkpt lat="44.397527918903144" lon="10.832494943090081"><ele>604.8</ele><time>2026-04-06T16:55:59.999Z</time></trkpt><trkpt lat="44.39744547364831" lon="10.832443246195641"><ele>603.0</ele><time>2026-04-06T16:56:00.999Z</time></trkpt><trkpt lat="44.39737449533604" lon="10.8323808300138"><ele>603.0</ele><time>2026-04-06T16:56:01.999Z</time></trkpt><trkpt lat="44.39731806941047" lon="10.832298249441008"><ele>603.0</ele><time>2026-04-06T16:56:02.999Z</time></trkpt><trkpt lat="44.397281269544585" lon="10.832186345164146"><ele>603.0</ele><time>2026-04-06T16:56:03.999Z</time></trkpt><trkpt lat="44.397262423391986" lon="10.8320688918104"><ele>603.0</ele><time>2026-04-06T16:56:04.999Z</time></trkpt><trkpt lat="44.39724518935268" lon="10.831958980224297"><ele>603.0</ele><time>2026-04-06T16:56:05.999Z</time></trkpt><trkpt lat="44.397212698470106" lon="10.831854744049684"><ele>603.0</ele><time>2026-04-06T16:56:06.999Z</time></trkpt><trkpt lat="44.39716452282059" lon="10.831789386923806"><ele>602.4</ele><time>2026-04-06T16:56:07.999Z</time></trkpt><trkpt lat="44.397100733692" lon="10.831744351284966"><ele>601.8</ele><time>2026-04-06T16:56:08.999Z</time></trkpt><trkpt lat="44.397010364374" lon="10.831750533585595"><ele>601.2</ele><time>2026-04-06T16:56:09.999Z</time></trkpt><trkpt lat="44.39690683608497" lon="10.83167011773429"><ele>600.6</ele><time>2026-04-06T16:56:10.999Z</time></trkpt><trkpt lat="44.396788444028864" lon="10.831666624711476"><ele>600.0</ele><time>2026-04-06T16:56:11.999Z</time></trkpt><trkpt lat="44.396662866572285" lon="10.83167795845897"><ele>600.0</ele><time>2026-04-06T16:56:12.999Z</time></trkpt><trkpt lat="44.396542657882016" lon="10.831714397071075"><ele>600.0</ele><time>2026-04-06T16:56:13.999Z</time></trkpt><trkpt lat="44.39643896408295" lon="10.831781323409086"><ele>600.0</ele><time>2026-04-06T16:56:14.999Z</time></trkpt><trkpt lat="44.39635582217535" lon="10.831890014063903"><ele>600.0</ele><time>2026-04-06T16:56:15.999Z</time></trkpt><trkpt lat="44.3962793141183" lon="10.832029361246208"><ele>601.0</ele><time>2026-04-06T16:56:16.999Z</time></trkpt><trkpt lat="44.396215378088634" lon="10.832174514220199"><ele>602.0</ele><time>2026-04-06T16:56:17.999Z</time></trkpt><trkpt lat="44.396131578447616" lon="10.83229723954652"><ele>603.0</ele><time>2026-04-06T16:56:18.999Z</time></trkpt><trkpt lat="44.396075616295576" lon="10.832444905990338"><ele>604.0</ele><time>2026-04-06T16:56:19.999Z</time></trkpt><trkpt lat="44.39600800484957" lon="10.832586309580172"><ele>603.4</ele><time>2026-04-06T16:56:20.999Z</time></trkpt><trkpt lat="44.39595325733431" lon="10.832737194217353"><ele>602.8</ele><time>2026-04-06T16:56:21.999Z</time></trkpt><trkpt lat="44.39591384374446" lon="10.832896435004729"><ele>602.2</ele><time>2026-04-06T16:56:22.999Z</time></trkpt><trkpt lat="44.395882228704785" lon="10.833043638784051"><ele>601.6</ele><time>2026-04-06T16:56:23.999Z</time></trkpt><trkpt lat="44.3958438502072" lon="10.833165214021019"><ele>601.0</ele><time>2026-04-06T16:56:24.999Z</time></trkpt><trkpt lat="44.39578105672275" lon="10.833265502947805"><ele>601.0</ele><time>2026-04-06T16:56:25.999Z</time></trkpt><trkpt lat="44.39569546820204" lon="10.833340267386335"><ele>601.0</ele><time>2026-04-06T16:56:26.999Z</time></trkpt><trkpt lat="44.395602765950365" lon="10.833396542949158"><ele>601.0</ele><time>2026-04-06T16:56:27.999Z</time></trkpt><trkpt lat="44.39549821648925" lon="10.833448372614537"><ele>601.0</ele><time>2026-04-06T16:56:28.999Z</time></trkpt><trkpt lat="44.395383710747616" lon="10.833502446458017"><ele>601.0</ele><time>2026-04-06T16:56:29.999Z</time></trkpt><trkpt lat="44.39526446917499" lon="10.833559460093793"><ele>602.6666666666667</ele><time>2026-04-06T16:56:30.999Z</time></trkpt><trkpt lat="44.39513870547103" lon="10.833625267582907"><ele>604.3333333333334</ele><time>2026-04-06T16:56:31.999Z</time></trkpt><trkpt lat="44.39500129510652" lon="10.833703382532915"><ele>606.0</ele><time>2026-04-06T16:56:32.999Z</time></trkpt><trkpt lat="44.39484551862619" lon="10.833791790436731"><ele>608.0</ele><time>2026-04-06T16:56:33.999Z</time></trkpt><trkpt lat="44.394655330179766" lon="10.833907598667123"><ele>610.0</ele><time>2026-04-06T16:56:34.999Z</time></trkpt><trkpt lat="44.394481251407896" lon="10.833996970198223"><ele>612.0</ele><time>2026-04-06T16:56:35.999Z</time></trkpt><trkpt lat="44.39432578914965" lon="10.834082755842045"><ele>612.0</ele><time>2026-04-06T16:56:36.999Z</time></trkpt><trkpt lat="44.39420236419545" lon="10.834143827726653"><ele>612.0</ele><time>2026-04-06T16:56:37.999Z</time></trkpt><trkpt lat="44.39408106995094" lon="10.834200364880063"><ele>612.0</ele><time>2026-04-06T16:56:38.999Z</time></trkpt><trkpt lat="44.39397234742779" lon="10.834223776333625"><ele>612.0</ele><time>2026-04-06T16:56:39.999Z</time></trkpt><trkpt lat="44.39385990957927" lon="10.834175518976377"><ele>612.0</ele><time>2026-04-06T16:56:40.999Z</time></trkpt><trkpt lat="44.3937620878069" lon="10.834071149513859"><ele>612.0</ele><time>2026-04-06T16:56:41.999Z</time></trkpt><trkpt lat="44.39367550405584" lon="10.833939141616778"><ele>612.0</ele><time>2026-04-06T16:56:42.999Z</time></trkpt><trkpt lat="44.39356813795648" lon="10.833787803994861"><ele>612.0</ele><time>2026-04-06T16:56:43.999Z</time></trkpt><trkpt lat="44.3934639306735" lon="10.833645471325847"><ele>612.0</ele><time>2026-04-06T16:56:44.999Z</time></trkpt><trkpt lat="44.39337858927011" lon="10.833524328359166"><ele>612.0</ele><time>2026-04-06T16:56:45.999Z</time></trkpt><trkpt lat="44.39330484793182" lon="10.833426418376664"><ele>612.0</ele><time>2026-04-06T16:56:46.999Z</time></trkpt><trkpt lat="44.39322720084698" lon="10.833324526176302"><ele>612.0</ele><time>2026-04-06T16:56:47.999Z</time></trkpt><trkpt lat="44.39312878095849" lon="10.833194397929395"><ele>611.6666666666666</ele><time>2026-04-06T16:56:48.999Z</time></trkpt><trkpt lat="44.39301307662814" lon="10.8330489442382"><ele>611.3333333333333</ele><time>2026-04-06T16:56:49.999Z</time></trkpt><trkpt lat="44.392890536523446" lon="10.832895834101448"><ele>611.0</ele><time>2026-04-06T16:56:50.999Z</time></trkpt><trkpt lat="44.392777631898184" lon="10.832735522268724"><ele>614.0</ele><time>2026-04-06T16:56:51.999Z</time></trkpt><trkpt lat="44.3926513072702" lon="10.832588096116055"><ele>617.0</ele><time>2026-04-06T16:56:52.999Z</time></trkpt><trkpt lat="44.392514416487764" lon="10.832394724674058"><ele>620.0</ele><time>2026-04-06T16:56:53.999Z</time></trkpt><trkpt lat="44.39238353306617" lon="10.832225160515733"><ele>620.0</ele><time>2026-04-06T16:56:54.999Z</time></trkpt><trkpt lat="44.39225241132601" lon="10.832049686183215"><ele>620.0</ele><time>2026-04-06T16:56:56Z</time></trkpt><trkpt lat="44.392113235656296" lon="10.83186894068009"><ele>620.0</ele><time>2026-04-06T16:56:57Z</time></trkpt><trkpt lat="44.3919696144361" lon="10.831679999563463"><ele>621.0</ele><time>2026-04-06T16:56:58Z</time></trkpt><trkpt lat="44.391821279100135" lon="10.831485512585525"><ele>622.0</ele><time>2026-04-06T16:56:59Z</time></trkpt><trkpt lat="44.39167119710702" lon="10.831284565071517"><ele>623.0</ele><time>2026-04-06T16:57:00Z</time></trkpt><trkpt lat="44.391528425923234" lon="10.831092472535644"><ele>622.0</ele><time>2026-04-06T16:57:01Z</time></trkpt><trkpt lat="44.391391729122844" lon="10.830911616332637"><ele>621.0</ele><time>2026-04-06T16:57:02Z</time></trkpt><trkpt lat="44.391260737242675" lon="10.83073497727926"><ele>620.0</ele><time>2026-04-06T16:57:03Z</time></trkpt><trkpt lat="44.39113411034849" lon="10.830566165415505"><ele>620.0</ele><time>2026-04-06T16:57:04Z</time></trkpt><trkpt lat="44.39101623948633" lon="10.830421871224283"><ele>620.0</ele><time>2026-04-06T16:57:05Z</time></trkpt><trkpt lat="44.390904634208376" lon="10.830270852252175"><ele>620.0</ele><time>2026-04-06T16:57:06Z</time></trkpt><trkpt lat="44.39081386085816" lon="10.830135230886485"><ele>620.0</ele><time>2026-04-06T16:57:07Z</time></trkpt><trkpt lat="44.39075723277045" lon="10.830001337440208"><ele>621.5</ele><time>2026-04-06T16:57:08Z</time></trkpt><trkpt lat="44.390728017555524" lon="10.829841997300111"><ele>623.0</ele><time>2026-04-06T16:57:09Z</time></trkpt><trkpt lat="44.390750362745834" lon="10.8296828539417"><ele>624.5</ele><time>2026-04-06T16:57:10Z</time></trkpt><trkpt lat="44.39082477196732" lon="10.82953925047325"><ele>626.0</ele><time>2026-04-06T16:57:11Z</time></trkpt><trkpt lat="44.3908858282968" lon="10.829373753296654"><ele>627.5</ele><time>2026-04-06T16:57:12Z</time></trkpt><trkpt lat="44.39095735089789" lon="10.829214485682792"><ele>629.0</ele><time>2026-04-06T16:57:13Z</time></trkpt><trkpt lat="44.390992760507864" lon="10.829076546383636"><ele>630.5</ele><time>2026-04-06T16:57:14Z</time></trkpt><trkpt lat="44.39098724676233" lon="10.828936215499663"><ele>632.0</ele><time>2026-04-06T16:57:15Z</time></trkpt><trkpt lat="44.39091422410538" lon="10.82881272725911"><ele>632.0</ele><time>2026-04-06T16:57:16Z</time></trkpt><trkpt lat="44.390798630199505" lon="10.82872953663437"><ele>632.0</ele><time>2026-04-06T16:57:17Z</time></trkpt><trkpt lat="44.390666392319005" lon="10.828686547969738"><ele>632.0</ele><time>2026-04-06T16:57:18Z</time></trkpt><trkpt lat="44.39053829527192" lon="10.828659551564684"><ele>632.0</ele><time>2026-04-06T16:57:19Z</time></trkpt><trkpt lat="44.390423714720505" lon="10.82860359499436"><ele>631.0</ele><time>2026-04-06T16:57:20Z</time></trkpt><trkpt lat="44.39033159806071" lon="10.82850284368329"><ele>630.0</ele><time>2026-04-06T16:57:21Z</time></trkpt><trkpt lat="44.39026033282126" lon="10.828360347793925"><ele>629.0</ele><time>2026-04-06T16:57:22Z</time></trkpt><trkpt lat="44.39020472342695" lon="10.828215185318308"><ele>628.0</ele><time>2026-04-06T16:57:23Z</time></trkpt><trkpt lat="44.39014790878365" lon="10.828143103223685"><ele>627.0</ele><time>2026-04-06T16:57:24Z</time></trkpt><trkpt lat="44.39004644421686" lon="10.828083239596719"><ele>629.4</ele><time>2026-04-06T16:57:25Z</time></trkpt><trkpt lat="44.389935804208804" lon="10.828038669008652"><ele>631.8000000000001</ele><time>2026-04-06T16:57:26Z</time></trkpt><trkpt lat="44.389841612519525" lon="10.828096046132428"><ele>634.2</ele><time>2026-04-06T16:57:27Z</time></trkpt><trkpt lat="44.38974082891661" lon="10.828165925787678"><ele>636.6</ele><time>2026-04-06T16:57:28Z</time></trkpt><trkpt lat="44.3896711011646" lon="10.828294890483086"><ele>639.0</ele><time>2026-04-06T16:57:29Z</time></trkpt><trkpt lat="44.38962376047634" lon="10.828469228621024"><ele>638.5</ele><time>2026-04-06T16:57:30Z</time></trkpt><trkpt lat="44.38959329427049" lon="10.828679720657258"><ele>638.0</ele><time>2026-04-06T16:57:30.999Z</time></trkpt><trkpt lat="44.38957346930692" lon="10.828887115744877"><ele>637.5</ele><time>2026-04-06T16:57:31.999Z</time></trkpt><trkpt lat="44.38953543809169" lon="10.829048462067329"><ele>637.0</ele><time>2026-04-06T16:57:32.999Z</time></trkpt><trkpt lat="44.38948799381963" lon="10.829178891116403"><ele>637.0</ele><time>2026-04-06T16:57:33.999Z</time></trkpt><trkpt lat="44.38940382096316" lon="10.829257458260324"><ele>637.0</ele><time>2026-04-06T16:57:34.999Z</time></trkpt><trkpt lat="44.38931957814144" lon="10.82930234455028"><ele>637.0</ele><time>2026-04-06T16:57:35.999Z</time></trkpt><trkpt lat="44.38922599367661" lon="10.829314078906604"><ele>637.0</ele><time>2026-04-06T16:57:36.999Z</time></trkpt><trkpt lat="44.38913203478461" lon="10.829258203415367"><ele>637.0</ele><time>2026-04-06T16:57:37.999Z</time></trkpt><trkpt lat="44.38900365103158" lon="10.829181475271165"><ele>637.0</ele><time>2026-04-06T16:57:38.999Z</time></trkpt><trkpt lat="44.38884452638168" lon="10.829094522349443"><ele>637.0</ele><time>2026-04-06T16:57:39.999Z</time></trkpt><trkpt lat="44.388680880525634" lon="10.829026248590575"><ele>637.0</ele><time>2026-04-06T16:57:40.999Z</time></trkpt><trkpt lat="44.38856445223195" lon="10.828929841209543"><ele>637.75</ele><time>2026-04-06T16:57:41.999Z</time></trkpt><trkpt lat="44.38845981000104" lon="10.828835936231872"><ele>638.5</ele><time>2026-04-06T16:57:42.999Z</time></trkpt><trkpt lat="44.38835925879671" lon="10.828706921518318"><ele>639.25</ele><time>2026-04-06T16:57:43.999Z</time></trkpt><trkpt lat="44.388269210398505" lon="10.828548205952604"><ele>640.0</ele><time>2026-04-06T16:57:44.999Z</time></trkpt><trkpt lat="44.388197643553866" lon="10.828363463518478"><ele>640.0</ele><time>2026-04-06T16:57:45.999Z</time></trkpt><trkpt lat="44.388129369321966" lon="10.828180246339778"><ele>640.0</ele><time>2026-04-06T16:57:46.999Z</time></trkpt><trkpt lat="44.38807717551085" lon="10.828003684958336"><ele>640.0</ele><time>2026-04-06T16:57:47.999Z</time></trkpt><trkpt lat="44.38798871823753" lon="10.827930197148625"><ele>640.0</ele><time>2026-04-06T16:57:48.999Z</time></trkpt><trkpt lat="44.387877090285976" lon="10.82788165540142"><ele>638.3333333333334</ele><time>2026-04-06T16:57:49.999Z</time></trkpt><trkpt lat="44.3877332728598" lon="10.827863375510187"><ele>636.6666666666666</ele><time>2026-04-06T16:57:50.999Z</time></trkpt><trkpt lat="44.38757298596039" lon="10.827853874949035"><ele>635.0</ele><time>2026-04-06T16:57:51.999Z</time></trkpt><trkpt lat="44.38740556587917" lon="10.827832782600172"><ele>635.0</ele><time>2026-04-06T16:57:52.999Z</time></trkpt><trkpt lat="44.38722920255178" lon="10.827796819648475"><ele>635.0</ele><time>2026-04-06T16:57:53.999Z</time></trkpt><trkpt lat="44.387044839313326" lon="10.82775742183163"><ele>635.0</ele><time>2026-04-06T16:57:54.999Z</time></trkpt><trkpt lat="44.38687741634378" lon="10.827722135705054"><ele>636.6666666666666</ele><time>2026-04-06T16:57:55.999Z</time></trkpt><trkpt lat="44.38671684887988" lon="10.827686564749996"><ele>638.3333333333334</ele><time>2026-04-06T16:57:56.999Z</time></trkpt><trkpt lat="44.3865446474561" lon="10.827656088814907"><ele>640.0</ele><time>2026-04-06T16:57:57.999Z</time></trkpt><trkpt lat="44.38638046218297" lon="10.827626975007227"><ele>639.75</ele><time>2026-04-06T16:57:58.999Z</time></trkpt><trkpt lat="44.38624390250826" lon="10.827601691152172"><ele>639.5</ele><time>2026-04-06T16:57:59.999Z</time></trkpt><trkpt lat="44.38611543343194" lon="10.827585965001179"><ele>639.25</ele><time>2026-04-06T16:58:00.999Z</time></trkpt><trkpt lat="44.385989078652926" lon="10.827592931844217"><ele>639.0</ele><time>2026-04-06T16:58:01.999Z</time></trkpt><trkpt lat="44.385876383570356" lon="10.827640371897681"><ele>637.6</ele><time>2026-04-06T16:58:02.999Z</time></trkpt><trkpt lat="44.38578810591466" lon="10.827739817151052"><ele>636.2</ele><time>2026-04-06T16:58:03.999Z</time></trkpt><trkpt lat="44.385714843001466" lon="10.827855400328692"><ele>634.8000000000001</ele><time>2026-04-06T16:58:04.999Z</time></trkpt><trkpt lat="44.38566164915634" lon="10.827974735159978"><ele>633.4</ele><time>2026-04-06T16:58:05.999Z</time></trkpt><trkpt lat="44.38561740802031" lon="10.82806958224877"><ele>632.0</ele><time>2026-04-06T16:58:06.999Z</time></trkpt><trkpt lat="44.38556759502688" lon="10.828145364369384"><ele>632.0</ele><time>2026-04-06T16:58:07.999Z</time></trkpt><trkpt lat="44.385536846191954" lon="10.82825186561322"><ele>632.0</ele><time>2026-04-06T16:58:08.999Z</time></trkpt><trkpt lat="44.38539894913814" lon="10.828310410874257"><ele>632.0</ele><time>2026-04-06T16:58:09.999Z</time></trkpt><trkpt lat="44.385278892801644" lon="10.82840123613542"><ele>632.0</ele><time>2026-04-06T16:58:10.999Z</time></trkpt><trkpt lat="44.38513478176835" lon="10.828499002046396"><ele>632.6666666666666</ele><time>2026-04-06T16:58:11.999Z</time></trkpt><trkpt lat="44.38496312700799" lon="10.828606006241605"><ele>633.3333333333334</ele><time>2026-04-06T16:58:12.999Z</time></trkpt><trkpt lat="44.384780041201005" lon="10.828705429298367"><ele>634.0</ele><time>2026-04-06T16:58:13.999Z</time></trkpt><trkpt lat="44.384576764683146" lon="10.828801754763699"><ele>636.5</ele><time>2026-04-06T16:58:14.999Z</time></trkpt><trkpt lat="44.384366188861016" lon="10.828883717906423"><ele>639.0</ele><time>2026-04-06T16:58:15.999Z</time></trkpt><trkpt lat="44.384138371849495" lon="10.828957697922887"><ele>639.0</ele><time>2026-04-06T16:58:16.999Z</time></trkpt><trkpt lat="44.38391583335187" lon="10.829019737239365"><ele>639.0</ele><time>2026-04-06T16:58:17.999Z</time></trkpt><trkpt lat="44.383692255442085" lon="10.829078474647575"><ele>641.6666666666666</ele><time>2026-04-06T16:58:18.999Z</time></trkpt><trkpt lat="44.383486352914076" lon="10.829128226227622"><ele>644.3333333333333</ele><time>2026-04-06T16:58:19.999Z</time></trkpt><trkpt lat="44.38328783355488" lon="10.829164300856846"><ele>647.0</ele><time>2026-04-06T16:58:20.999Z</time></trkpt><trkpt lat="44.38308732974196" lon="10.829168812934803"><ele>649.0</ele><time>2026-04-06T16:58:21.999Z</time></trkpt><trkpt lat="44.382897106909695" lon="10.829127216119796"><ele>651.0</ele><time>2026-04-06T16:58:22.999Z</time></trkpt><trkpt lat="44.38270883823864" lon="10.829074103547565"><ele>653.0</ele><time>2026-04-06T16:58:23.999Z</time></trkpt><trkpt lat="44.38250728494405" lon="10.82906074516709"><ele>653.0</ele><time>2026-04-06T16:58:24.999Z</time></trkpt><trkpt lat="44.38228548427178" lon="10.829101673921471"><ele>653.0</ele><time>2026-04-06T16:58:25.999Z</time></trkpt><trkpt lat="44.38207290041399" lon="10.82917261251296"><ele>653.0</ele><time>2026-04-06T16:58:26.999Z</time></trkpt><trkpt lat="44.3818414892381" lon="10.829236103886519"><ele>652.0</ele><time>2026-04-06T16:58:27.999Z</time></trkpt><trkpt lat="44.381622343507566" lon="10.829285976518126"><ele>651.0</ele><time>2026-04-06T16:58:28.999Z</time></trkpt><trkpt lat="44.381412048616724" lon="10.829333300449226"><ele>650.0</ele><time>2026-04-06T16:58:29.999Z</time></trkpt><trkpt lat="44.38122162067916" lon="10.829395183499228"><ele>652.6666666666666</ele><time>2026-04-06T16:58:30.999Z</time></trkpt><trkpt lat="44.38102910381532" lon="10.82948170602398"><ele>655.3333333333334</ele><time>2026-04-06T16:58:31.999Z</time></trkpt><trkpt lat="44.380828655288845" lon="10.829586321546271"><ele>658.0</ele><time>2026-04-06T16:58:32.999Z</time></trkpt><trkpt lat="44.38064095498987" lon="10.829677140192032"><ele>660.3333333333334</ele><time>2026-04-06T16:58:33.999Z</time></trkpt><trkpt lat="44.38046659845837" lon="10.829747486394968"><ele>662.6666666666666</ele><time>2026-04-06T16:58:34.999Z</time></trkpt><trkpt lat="44.38028535638466" lon="10.829794021844785"><ele>665.0</ele><time>2026-04-06T16:58:35.999Z</time></trkpt><trkpt lat="44.38011196084384" lon="10.829784327834172"><ele>665.0</ele><time>2026-04-06T16:58:36.999Z</time></trkpt><trkpt lat="44.37990957276974" lon="10.82973809974038"><ele>665.0</ele><time>2026-04-06T16:58:37.999Z</time></trkpt><trkpt lat="44.37971599778617" lon="10.829684458242609"><ele>665.0</ele><time>2026-04-06T16:58:38.999Z</time></trkpt><trkpt lat="44.37950466449928" lon="10.82966520898246"><ele>666.0</ele><time>2026-04-06T16:58:39.999Z</time></trkpt><trkpt lat="44.37929525759412" lon="10.829687537705246"><ele>667.0</ele><time>2026-04-06T16:58:40.999Z</time></trkpt><trkpt lat="44.379080153809795" lon="10.82971407136015"><ele>668.0</ele><time>2026-04-06T16:58:41.999Z</time></trkpt><trkpt lat="44.37887625457231" lon="10.829725555689045"><ele>669.0</ele><time>2026-04-06T16:58:42.999Z</time></trkpt><trkpt lat="44.378658876013326" lon="10.829737566619833"><ele>670.0</ele><time>2026-04-06T16:58:43.999Z</time></trkpt><trkpt lat="44.37844326977182" lon="10.829772394512348"><ele>671.0</ele><time>2026-04-06T16:58:44.999Z</time></trkpt><trkpt lat="44.3782180369896" lon="10.829839772807475"><ele>674.3333333333333</ele><time>2026-04-06T16:58:45.999Z</time></trkpt><trkpt lat="44.37801168941378" lon="10.829926184360577"><ele>677.6666666666666</ele><time>2026-04-06T16:58:46.999Z</time></trkpt><trkpt lat="44.37780617814166" lon="10.830017276451102"><ele>681.0</ele><time>2026-04-06T16:58:47.999Z</time></trkpt><trkpt lat="44.37760459631324" lon="10.830116812314497"><ele>680.6666666666666</ele><time>2026-04-06T16:58:48.999Z</time></trkpt><trkpt lat="44.377415039270204" lon="10.830235308296494"><ele>680.3333333333333</ele><time>2026-04-06T16:58:49.999Z</time></trkpt><trkpt lat="44.377229692587534" lon="10.8303784699034"><ele>680.0</ele><time>2026-04-06T16:58:50.999Z</time></trkpt><trkpt lat="44.377040737676374" lon="10.83052565393796"><ele>680.0</ele><time>2026-04-06T16:58:51.999Z</time></trkpt><trkpt lat="44.376865534056286" lon="10.830653677769739"><ele>680.0</ele><time>2026-04-06T16:58:52.999Z</time></trkpt><trkpt lat="44.37668712864481" lon="10.830786210445838"><ele>680.0</ele><time>2026-04-06T16:58:53.999Z</time></trkpt><trkpt lat="44.376525189764436" lon="10.830944103344553"><ele>679.0</ele><time>2026-04-06T16:58:54.998Z</time></trkpt><trkpt lat="44.37636828633806" lon="10.831152767295567"><ele>678.0</ele><time>2026-04-06T16:58:55.998Z</time></trkpt><trkpt lat="44.376223170717715" lon="10.831388225105027"><ele>677.0</ele><time>2026-04-06T16:58:56.998Z</time></trkpt><trkpt lat="44.37607337591808" lon="10.831649088307854"><ele>678.6666666666666</ele><time>2026-04-06T16:58:57.998Z</time></trkpt><trkpt lat="44.37591808125881" lon="10.831907374089644"><ele>680.3333333333334</ele><time>2026-04-06T16:58:58.998Z</time></trkpt><trkpt lat="44.375780363879215" lon="10.832125908107207"><ele>682.0</ele><time>2026-04-06T16:58:59.998Z</time></trkpt><trkpt lat="44.37565550499818" lon="10.832327159672314"><ele>682.0</ele><time>2026-04-06T16:59:00.998Z</time></trkpt><trkpt lat="44.375530609377115" lon="10.832540015686787"><ele>682.0</ele><time>2026-04-06T16:59:02Z</time></trkpt><trkpt lat="44.37540819058853" lon="10.832737776869525"><ele>682.0</ele><time>2026-04-06T16:59:03Z</time></trkpt><trkpt lat="44.3752785490913" lon="10.832908007819704"><ele>684.3333333333334</ele><time>2026-04-06T16:59:04Z</time></trkpt><trkpt lat="44.375114796240815" lon="10.833069621575842"><ele>686.6666666666666</ele><time>2026-04-06T16:59:05Z</time></trkpt><trkpt lat="44.374928948279326" lon="10.833212801372454"><ele>689.0</ele><time>2026-04-06T16:59:06Z</time></trkpt><trkpt lat="44.37476025667789" lon="10.8333512722335"><ele>692.0</ele><time>2026-04-06T16:59:07Z</time></trkpt><trkpt lat="44.37460131649213" lon="10.833481757599337"><ele>695.0</ele><time>2026-04-06T16:59:08Z</time></trkpt><trkpt lat="44.37445902133636" lon="10.833590691479671"><ele>698.0</ele><time>2026-04-06T16:59:09Z</time></trkpt><trkpt lat="44.37429577028362" lon="10.833729612940195"><ele>698.0</ele><time>2026-04-06T16:59:10Z</time></trkpt><trkpt lat="44.374149495187496" lon="10.8338742547111"><ele>698.0</ele><time>2026-04-06T16:59:11Z</time></trkpt><trkpt lat="44.37402884729852" lon="10.8340040595291"><ele>698.0</ele><time>2026-04-06T16:59:12Z</time></trkpt><trkpt lat="44.37392197632384" lon="10.8341274446601"><ele>699.0</ele><time>2026-04-06T16:59:13Z</time></trkpt><trkpt lat="44.37383442504827" lon="10.834277152491916"><ele>700.0</ele><time>2026-04-06T16:59:14Z</time></trkpt><trkpt lat="44.37373804837828" lon="10.834456275654015"><ele>701.0</ele><time>2026-04-06T16:59:15Z</time></trkpt><trkpt lat="44.37365036675607" lon="10.834611365755517"><ele>702.0</ele><time>2026-04-06T16:59:16Z</time></trkpt><trkpt lat="44.37356525280065" lon="10.834762564899824"><ele>702.0</ele><time>2026-04-06T16:59:17Z</time></trkpt><trkpt lat="44.37348202179652" lon="10.834896968375778"><ele>702.0</ele><time>2026-04-06T16:59:18Z</time></trkpt><trkpt lat="44.373386704111965" lon="10.835017442408276"><ele>702.0</ele><time>2026-04-06T16:59:19Z</time></trkpt><trkpt lat="44.3732814278201" lon="10.835093234962702"><ele>702.0</ele><time>2026-04-06T16:59:20Z</time></trkpt><trkpt lat="44.3731576153637" lon="10.835128835616464"><ele>702.0</ele><time>2026-04-06T16:59:21Z</time></trkpt><trkpt lat="44.37302603790178" lon="10.83513107341347"><ele>702.0</ele><time>2026-04-06T16:59:22Z</time></trkpt><trkpt lat="44.372904504552096" lon="10.835106061541675"><ele>702.0</ele><time>2026-04-06T16:59:23Z</time></trkpt><trkpt lat="44.372802304617245" lon="10.83507675896001"><ele>702.0</ele><time>2026-04-06T16:59:24Z</time></trkpt><trkpt lat="44.37271594107129" lon="10.835061518538707"><ele>702.0</ele><time>2026-04-06T16:59:25Z</time></trkpt><trkpt lat="44.37267950434609" lon="10.83532321261769"><ele>701.6</ele><time>2026-04-06T16:59:29Z</time></trkpt><trkpt lat="44.3726734949139" lon="10.835473851561446"><ele>701.2</ele><time>2026-04-06T16:59:30Z</time></trkpt><trkpt lat="44.37268536757448" lon="10.83560160583566"><ele>700.8</ele><time>2026-04-06T16:59:31Z</time></trkpt><trkpt lat="44.372711288851676" lon="10.835725270633645"><ele>700.4</ele><time>2026-04-06T16:59:32Z</time></trkpt><trkpt lat="44.372745555323256" lon="10.835832658738063"><ele>700.0</ele><time>2026-04-06T16:59:33Z</time></trkpt><trkpt lat="44.37280155774437" lon="10.835919130252494"><ele>698.2</ele><time>2026-04-06T16:59:34Z</time></trkpt><trkpt lat="44.372867693453664" lon="10.836009348893578"><ele>696.4</ele><time>2026-04-06T16:59:35Z</time></trkpt><trkpt lat="44.3729011521437" lon="10.836124336961701"><ele>694.5999999999999</ele><time>2026-04-06T16:59:36Z</time></trkpt><trkpt lat="44.37291630369854" lon="10.836260705576137"><ele>692.8</ele><time>2026-04-06T16:59:37Z</time></trkpt><trkpt lat="44.37293804145534" lon="10.83639695441259"><ele>691.0</ele><time>2026-04-06T16:59:38Z</time></trkpt><trkpt lat="44.3729608231251" lon="10.83651279026441"><ele>688.8</ele><time>2026-04-06T16:59:39Z</time></trkpt><trkpt lat="44.37302666547374" lon="10.836610958277715"><ele>686.5999999999999</ele><time>2026-04-06T16:59:39.999Z</time></trkpt><trkpt lat="44.37313298867649" lon="10.836645452875448"><ele>684.4</ele><time>2026-04-06T16:59:40.999Z</time></trkpt><trkpt lat="44.37323337973942" lon="10.836707062639869"><ele>682.2</ele><time>2026-04-06T16:59:41.999Z</time></trkpt><trkpt lat="44.37333237106349" lon="10.836772747703368"><ele>680.0</ele><time>2026-04-06T16:59:42.999Z</time></trkpt><trkpt lat="44.3734028315023" lon="10.836842722367573"><ele>678.0</ele><time>2026-04-06T16:59:43.999Z</time></trkpt><trkpt lat="44.37347896563541" lon="10.836913266945816"><ele>676.0</ele><time>2026-04-06T16:59:44.999Z</time></trkpt><trkpt lat="44.373488269628695" lon="10.837053437126862"><ele>674.0</ele><time>2026-04-06T16:59:45.999Z</time></trkpt><trkpt lat="44.37354210627055" lon="10.837194235633177"><ele>672.0</ele><time>2026-04-06T16:59:46.999Z</time></trkpt><trkpt lat="44.37356321524402" lon="10.837345197584716"><ele>670.0</ele><time>2026-04-06T16:59:47.999Z</time></trkpt><trkpt lat="44.373602590604364" lon="10.837491113353254"><ele>670.0</ele><time>2026-04-06T16:59:48.999Z</time></trkpt><trkpt lat="44.3736572222058" lon="10.83761878803538"><ele>670.0</ele><time>2026-04-06T16:59:49.999Z</time></trkpt><trkpt lat="44.373698218224455" lon="10.837759824249549"><ele>670.0</ele><time>2026-04-06T16:59:50.999Z</time></trkpt><trkpt lat="44.37375169284804" lon="10.837884619257283"><ele>670.0</ele><time>2026-04-06T16:59:51.999Z</time></trkpt><trkpt lat="44.37382532517259" lon="10.837986910071903"><ele>670.0</ele><time>2026-04-06T16:59:52.999Z</time></trkpt><trkpt lat="44.37392025930138" lon="10.838090525316545"><ele>668.0</ele><time>2026-04-06T16:59:53.999Z</time></trkpt><trkpt lat="44.37401246591766" lon="10.838181378481222"><ele>666.0</ele><time>2026-04-06T16:59:54.999Z</time></trkpt><trkpt lat="44.3741010307402" lon="10.838253520971755"><ele>664.0</ele><time>2026-04-06T16:59:55.999Z</time></trkpt><trkpt lat="44.374198115550506" lon="10.838296224622496"><ele>662.0</ele><time>2026-04-06T16:59:56.999Z</time></trkpt><trkpt lat="44.37429531909402" lon="10.838357846703046"><ele>660.0</ele><time>2026-04-06T16:59:57.999Z</time></trkpt><trkpt lat="44.37438473692043" lon="10.838403673486827"><ele>657.6</ele><time>2026-04-06T16:59:58.999Z</time></trkpt><trkpt lat="44.37447032371175" lon="10.838470312540618"><ele>655.2</ele><time>2026-04-06T16:59:59.999Z</time></trkpt><trkpt lat="44.37456010780004" lon="10.838553337199368"><ele>652.8</ele><time>2026-04-06T17:00:00.999Z</time></trkpt><trkpt lat="44.37464330290983" lon="10.838613681338245"><ele>650.4</ele><time>2026-04-06T17:00:01.999Z</time></trkpt><trkpt lat="44.37471494820447" lon="10.838709701482673"><ele>648.0</ele><time>2026-04-06T17:00:02.999Z</time></trkpt><trkpt lat="44.37478092278201" lon="10.83880972234713"><ele>646.8</ele><time>2026-04-06T17:00:03.999Z</time></trkpt><trkpt lat="44.37485464381611" lon="10.838907424215314"><ele>645.5999999999999</ele><time>2026-04-06T17:00:04.999Z</time></trkpt><trkpt lat="44.37493532566229" lon="10.839011733146691"><ele>644.4000000000001</ele><time>2026-04-06T17:00:05.999Z</time></trkpt><trkpt lat="44.37501069795814" lon="10.839107253993133"><ele>643.2</ele><time>2026-04-06T17:00:06.999Z</time></trkpt><trkpt lat="44.3750822776986" lon="10.839201134099614"><ele>642.0</ele><time>2026-04-06T17:00:07.999Z</time></trkpt><trkpt lat="44.375142763143984" lon="10.839281717273767"><ele>641.4</ele><time>2026-04-06T17:00:08.999Z</time></trkpt><trkpt lat="44.375216534323236" lon="10.839412062308277"><ele>640.8000000000001</ele><time>2026-04-06T17:00:10.999Z</time></trkpt><trkpt lat="44.37522426576153" lon="10.839580535692821"><ele>640.2</ele><time>2026-04-06T17:00:12.999Z</time></trkpt><trkpt lat="44.37519546966406" lon="10.839678403297377"><ele>639.6</ele><time>2026-04-06T17:00:13.999Z</time></trkpt><trkpt lat="44.37517448806943" lon="10.83977326721699"><ele>639.0</ele><time>2026-04-06T17:00:14.999Z</time></trkpt><trkpt lat="44.375160009214646" lon="10.839866636391566"><ele>639.0</ele><time>2026-04-06T17:00:15.999Z</time></trkpt><trkpt lat="44.37516287460797" lon="10.839960606654932"><ele>639.0</ele><time>2026-04-06T17:00:16.999Z</time></trkpt><trkpt lat="44.375156418317026" lon="10.840054734558223"><ele>639.0</ele><time>2026-04-06T17:00:17.999Z</time></trkpt><trkpt lat="44.37513627922842" lon="10.840140724378971"><ele>639.0</ele><time>2026-04-06T17:00:18.999Z</time></trkpt><trkpt lat="44.37514127398612" lon="10.84023464817805"><ele>639.0</ele><time>2026-04-06T17:00:19.999Z</time></trkpt><trkpt lat="44.37509797997316" lon="10.840392929794724"><ele>639.0</ele><time>2026-04-06T17:00:21.999Z</time></trkpt><trkpt lat="44.37506678368968" lon="10.84048019734718"><ele>638.0</ele><time>2026-04-06T17:00:22.999Z</time></trkpt><trkpt lat="44.37503248768039" lon="10.840566585358578"><ele>637.0</ele><time>2026-04-06T17:00:23.999Z</time></trkpt><trkpt lat="44.37498927888784" lon="10.840656459204023"><ele>636.0</ele><time>2026-04-06T17:00:24.999Z</time></trkpt><trkpt lat="44.374956582833164" lon="10.84082671740477"><ele>635.0</ele><time>2026-04-06T17:00:26.999Z</time></trkpt><trkpt lat="44.37495901702991" lon="10.840929862696727"><ele>634.0</ele><time>2026-04-06T17:00:27.999Z</time></trkpt><trkpt lat="44.374952366075604" lon="10.841040469814903"><ele>633.0</ele><time>2026-04-06T17:00:28.999Z</time></trkpt><trkpt lat="44.37496723436427" lon="10.84114010698774"><ele>632.0</ele><time>2026-04-06T17:00:29.999Z</time></trkpt><trkpt lat="44.37496368388887" lon="10.841236192299743"><ele>631.0</ele><time>2026-04-06T17:00:30.999Z</time></trkpt><trkpt lat="44.37498114635131" lon="10.841352987901885"><ele>630.0</ele><time>2026-04-06T17:00:31.999Z</time></trkpt><trkpt lat="44.375004752616846" lon="10.841471622399126"><ele>629.0</ele><time>2026-04-06T17:00:32.999Z</time></trkpt><trkpt lat="44.37499449769785" lon="10.84157675922691"><ele>628.0</ele><time>2026-04-06T17:00:33.999Z</time></trkpt><trkpt lat="44.37499415289836" lon="10.84169145763361"><ele>627.0</ele><time>2026-04-06T17:00:34.999Z</time></trkpt><trkpt lat="44.374980457883304" lon="10.841812675104833"><ele>625.8000000000001</ele><time>2026-04-06T17:00:35.999Z</time></trkpt><trkpt lat="44.374957326908095" lon="10.841949485981125"><ele>624.6</ele><time>2026-04-06T17:00:36.999Z</time></trkpt><trkpt lat="44.37493699983136" lon="10.842089924452745"><ele>623.4000000000001</ele><time>2026-04-06T17:00:37.999Z</time></trkpt><trkpt lat="44.37492334533413" lon="10.842229025652594"><ele>622.2</ele><time>2026-04-06T17:00:38.999Z</time></trkpt><trkpt lat="44.37491532162198" lon="10.842362325279769"><ele>621.0</ele><time>2026-04-06T17:00:39.999Z</time></trkpt><trkpt lat="44.37490888603845" lon="10.842489397200547"><ele>621.0</ele><time>2026-04-06T17:00:40.999Z</time></trkpt><trkpt lat="44.37491347183897" lon="10.842598166014126"><ele>621.0</ele><time>2026-04-06T17:00:41.999Z</time></trkpt><trkpt lat="44.37496488778943" lon="10.842681441479309"><ele>621.0</ele><time>2026-04-06T17:00:42.999Z</time></trkpt><trkpt lat="44.37502373440823" lon="10.842769495175588"><ele>621.0</ele><time>2026-04-06T17:00:43.999Z</time></trkpt><trkpt lat="44.3750924845718" lon="10.842828714006362"><ele>621.0</ele><time>2026-04-06T17:00:44.999Z</time></trkpt><trkpt lat="44.375178288673226" lon="10.842864632220996"><ele>621.0</ele><time>2026-04-06T17:00:45.999Z</time></trkpt><trkpt lat="44.375278781634954" lon="10.842864915957366"><ele>619.4</ele><time>2026-04-06T17:00:46.999Z</time></trkpt><trkpt lat="44.37538127426109" lon="10.842901556105579"><ele>617.8</ele><time>2026-04-06T17:00:47.999Z</time></trkpt><trkpt lat="44.37548028389065" lon="10.84288964887202"><ele>616.1999999999999</ele><time>2026-04-06T17:00:48.999Z</time></trkpt><trkpt lat="44.37558038446365" lon="10.842892775691446"><ele>614.6</ele><time>2026-04-06T17:00:49.999Z</time></trkpt><trkpt lat="44.37567650274292" lon="10.842897393250869"><ele>613.0</ele><time>2026-04-06T17:00:50.999Z</time></trkpt><trkpt lat="44.375768626964465" lon="10.842913848421404"><ele>611.8</ele><time>2026-04-06T17:00:51.999Z</time></trkpt><trkpt lat="44.37587691462794" lon="10.8429213644446"><ele>610.5999999999999</ele><time>2026-04-06T17:00:52.999Z</time></trkpt><trkpt lat="44.37597835490449" lon="10.84292955284151"><ele>609.4000000000001</ele><time>2026-04-06T17:00:53.999Z</time></trkpt><trkpt lat="44.37607016971451" lon="10.842937939050701"><ele>608.2</ele><time>2026-04-06T17:00:54.999Z</time></trkpt><trkpt lat="44.37616245905131" lon="10.842948828611112"><ele>607.0</ele><time>2026-04-06T17:00:55.999Z</time></trkpt><trkpt lat="44.37624319930906" lon="10.842965078228405"><ele>607.0</ele><time>2026-04-06T17:00:56.999Z</time></trkpt><trkpt lat="44.376316889085146" lon="10.842982606959817"><ele>607.0</ele><time>2026-04-06T17:00:57.999Z</time></trkpt><trkpt lat="44.37638456594256" lon="10.843029548330419"><ele>607.0</ele><time>2026-04-06T17:00:58.999Z</time></trkpt><trkpt lat="44.37644034685634" lon="10.843086697441795"><ele>607.0</ele><time>2026-04-06T17:00:59.998Z</time></trkpt><trkpt lat="44.376458769321154" lon="10.84317771044992"><ele>607.0</ele><time>2026-04-06T17:01:00.998Z</time></trkpt><trkpt lat="44.37651115474532" lon="10.84328315405318"><ele>607.0</ele><time>2026-04-06T17:01:01.998Z</time></trkpt><trkpt lat="44.37656950572347" lon="10.843403855045798"><ele>603.8000000000001</ele><time>2026-04-06T17:01:02.998Z</time></trkpt><trkpt lat="44.376621913943204" lon="10.843514683559933"><ele>600.6</ele><time>2026-04-06T17:01:03.998Z</time></trkpt><trkpt lat="44.37669240427124" lon="10.84359869350876"><ele>597.4000000000001</ele><time>2026-04-06T17:01:04.998Z</time></trkpt><trkpt lat="44.37673590023418" lon="10.843722940812656"><ele>594.2</ele><time>2026-04-06T17:01:05.998Z</time></trkpt><trkpt lat="44.37679368066097" lon="10.843844828196017"><ele>591.0</ele><time>2026-04-06T17:01:06.998Z</time></trkpt><trkpt lat="44.37683430530645" lon="10.843948053403958"><ele>591.0</ele><time>2026-04-06T17:01:08Z</time></trkpt><trkpt lat="44.37686245247559" lon="10.844042882290957"><ele>591.0</ele><time>2026-04-06T17:01:09Z</time></trkpt><trkpt lat="44.37688509117926" lon="10.844136460583904"><ele>591.0</ele><time>2026-04-06T17:01:10Z</time></trkpt><trkpt lat="44.37691157081046" lon="10.844252012529251"><ele>591.0</ele><time>2026-04-06T17:01:11Z</time></trkpt><trkpt lat="44.376939993142365" lon="10.844369499581061"><ele>591.0</ele><time>2026-04-06T17:01:12Z</time></trkpt><trkpt lat="44.37697103677652" lon="10.844488976284639"><ele>591.0</ele><time>2026-04-06T17:01:13Z</time></trkpt><trkpt lat="44.37700204183564" lon="10.844606235319363"><ele>589.8</ele><time>2026-04-06T17:01:14Z</time></trkpt><trkpt lat="44.37703147398746" lon="10.844720447169147"><ele>588.6</ele><time>2026-04-06T17:01:15Z</time></trkpt><trkpt lat="44.37707394976199" lon="10.844847402127137"><ele>587.4</ele><time>2026-04-06T17:01:16Z</time></trkpt><trkpt lat="44.37710508249728" lon="10.844981722803194"><ele>586.2</ele><time>2026-04-06T17:01:17Z</time></trkpt><trkpt lat="44.37713108675526" lon="10.845102792412424"><ele>585.0</ele><time>2026-04-06T17:01:18Z</time></trkpt><trkpt lat="44.377152599391124" lon="10.845226154021114"><ele>583.6</ele><time>2026-04-06T17:01:19Z</time></trkpt><trkpt lat="44.37717614355693" lon="10.845366943982587"><ele>582.2</ele><time>2026-04-06T17:01:20Z</time></trkpt><trkpt lat="44.37720991791396" lon="10.84547895885956"><ele>580.8</ele><time>2026-04-06T17:01:21Z</time></trkpt><trkpt lat="44.37725366614994" lon="10.845586811945402"><ele>579.4</ele><time>2026-04-06T17:01:22Z</time></trkpt><trkpt lat="44.37730114188877" lon="10.845699345271608"><ele>578.0</ele><time>2026-04-06T17:01:23Z</time></trkpt><trkpt lat="44.37732748988954" lon="10.845816742417353"><ele>576.8</ele><time>2026-04-06T17:01:24Z</time></trkpt><trkpt lat="44.37738430002733" lon="10.84591913287869"><ele>575.5999999999999</ele><time>2026-04-06T17:01:25Z</time></trkpt><trkpt lat="44.37742962204642" lon="10.846028947173966"><ele>574.4000000000001</ele><time>2026-04-06T17:01:26Z</time></trkpt><trkpt lat="44.37748225829476" lon="10.846141490545875"><ele>573.2</ele><time>2026-04-06T17:01:27Z</time></trkpt><trkpt lat="44.377536162687086" lon="10.846258484439081"><ele>572.0</ele><time>2026-04-06T17:01:28Z</time></trkpt><trkpt lat="44.37757156189994" lon="10.846378902465094"><ele>570.6666666666666</ele><time>2026-04-06T17:01:29Z</time></trkpt><trkpt lat="44.37761193180529" lon="10.846504880910246"><ele>569.3333333333333</ele><time>2026-04-06T17:01:30Z</time></trkpt><trkpt lat="44.37764938227907" lon="10.846613802034646"><ele>568.0</ele><time>2026-04-06T17:01:31Z</time></trkpt><trkpt lat="44.377706569581704" lon="10.846692173373242"><ele>566.6666666666666</ele><time>2026-04-06T17:01:32Z</time></trkpt><trkpt lat="44.37775723754582" lon="10.846774093033954"><ele>565.3333333333334</ele><time>2026-04-06T17:01:33Z</time></trkpt><trkpt lat="44.377847372736404" lon="10.846801387424046"><ele>564.0</ele><time>2026-04-06T17:01:34Z</time></trkpt><trkpt lat="44.37792089356445" lon="10.846839427436759"><ele>562.6666666666666</ele><time>2026-04-06T17:01:35Z</time></trkpt><trkpt lat="44.37799284076268" lon="10.84690533752305"><ele>561.3333333333334</ele><time>2026-04-06T17:01:36Z</time></trkpt><trkpt lat="44.37807035520213" lon="10.846956145281718"><ele>560.0</ele><time>2026-04-06T17:01:37Z</time></trkpt><trkpt lat="44.37816028262582" lon="10.847004795048472"><ele>558.6666666666667</ele><time>2026-04-06T17:01:38Z</time></trkpt><trkpt lat="44.37822299911787" lon="10.847086292622084"><ele>557.3333333333334</ele><time>2026-04-06T17:01:39Z</time></trkpt><trkpt lat="44.378282642231724" lon="10.8471537638007"><ele>556.0</ele><time>2026-04-06T17:01:40Z</time></trkpt><trkpt lat="44.378339614267254" lon="10.84723380742806"><ele>556.0</ele><time>2026-04-06T17:01:41Z</time></trkpt><trkpt lat="44.37839688654742" lon="10.847310850568121"><ele>556.0</ele><time>2026-04-06T17:01:42Z</time></trkpt><trkpt lat="44.37842461916853" lon="10.847410900067064"><ele>556.0</ele><time>2026-04-06T17:01:43Z</time></trkpt><trkpt lat="44.37844686467413" lon="10.84750367359937"><ele>556.0</ele><time>2026-04-06T17:01:44Z</time></trkpt><trkpt lat="44.37843975848519" lon="10.847608902318163"><ele>556.0</ele><time>2026-04-06T17:01:44.999Z</time></trkpt><trkpt lat="44.378462740490484" lon="10.847704555509976"><ele>556.0</ele><time>2026-04-06T17:01:45.999Z</time></trkpt><trkpt lat="44.37849191172086" lon="10.84781062650087"><ele>553.6666666666667</ele><time>2026-04-06T17:01:46.999Z</time></trkpt><trkpt lat="44.37852298347119" lon="10.847906485772567"><ele>551.3333333333334</ele><time>2026-04-06T17:01:47.999Z</time></trkpt><trkpt lat="44.37855525315069" lon="10.848006500811328"><ele>549.0</ele><time>2026-04-06T17:01:48.999Z</time></trkpt><trkpt lat="44.37858424881221" lon="10.84811122066346"><ele>546.6666666666666</ele><time>2026-04-06T17:01:49.999Z</time></trkpt><trkpt lat="44.378607928088755" lon="10.848217095189783"><ele>544.3333333333333</ele><time>2026-04-06T17:01:50.999Z</time></trkpt><trkpt lat="44.378634770517024" lon="10.84832582795937"><ele>542.0</ele><time>2026-04-06T17:01:51.999Z</time></trkpt><trkpt lat="44.378682084647046" lon="10.848422586107601"><ele>540.4285714285714</ele><time>2026-04-06T17:01:52.999Z</time></trkpt><trkpt lat="44.37871516128955" lon="10.848520004176603"><ele>538.8571428571429</ele><time>2026-04-06T17:01:53.999Z</time></trkpt><trkpt lat="44.37875338036666" lon="10.848608836942379"><ele>537.2857142857143</ele><time>2026-04-06T17:01:54.999Z</time></trkpt><trkpt lat="44.378800056058736" lon="10.848681706414778"><ele>535.7142857142858</ele><time>2026-04-06T17:01:55.999Z</time></trkpt><trkpt lat="44.378854567276754" lon="10.848746122589072"><ele>534.1428571428572</ele><time>2026-04-06T17:01:56.999Z</time></trkpt><trkpt lat="44.37888474464479" lon="10.8488279302667"><ele>532.5714285714286</ele><time>2026-04-06T17:01:57.999Z</time></trkpt><trkpt lat="44.378916739083536" lon="10.848910258570577"><ele>531.0</ele><time>2026-04-06T17:01:58.999Z</time></trkpt><trkpt lat="44.3789336870908" lon="10.849013057830351"><ele>531.0</ele><time>2026-04-06T17:01:59.999Z</time></trkpt><trkpt lat="44.37894198646474" lon="10.849119544019725"><ele>531.0</ele><time>2026-04-06T17:02:00.999Z</time></trkpt><trkpt lat="44.378976710276014" lon="10.849220895599867"><ele>531.0</ele><time>2026-04-06T17:02:01.999Z</time></trkpt><trkpt lat="44.379004414721365" lon="10.849315223523062"><ele>531.0</ele><time>2026-04-06T17:02:02.999Z</time></trkpt><trkpt lat="44.379028593492116" lon="10.849413438040761"><ele>531.0</ele><time>2026-04-06T17:02:03.999Z</time></trkpt><trkpt lat="44.37907348967013" lon="10.849505682580743"><ele>531.0</ele><time>2026-04-06T17:02:04.999Z</time></trkpt><trkpt lat="44.379126347342925" lon="10.849649712412663"><ele>529.4</ele><time>2026-04-06T17:02:06.999Z</time></trkpt><trkpt lat="44.37913244026559" lon="10.849750670682328"><ele>527.8</ele><time>2026-04-06T17:02:08.999Z</time></trkpt><trkpt lat="44.37914784706125" lon="10.84983620338421"><ele>526.1999999999999</ele><time>2026-04-06T17:02:11.999Z</time></trkpt><trkpt lat="44.37907468835935" lon="10.849868968445204"><ele>524.6</ele><time>2026-04-06T17:02:14.999Z</time></trkpt><trkpt lat="44.37917261447885" lon="10.849973702696198"><ele>523.0</ele><time>2026-04-06T17:02:15.999Z</time></trkpt><trkpt lat="44.37933394654898" lon="10.850385208912472"><ele>520.9999999999999</ele><time>2026-04-06T17:02:24.999Z</time></trkpt><trkpt lat="44.37934985401711" lon="10.85047496167638"><ele>519.0</ele><time>2026-04-06T17:02:26.999Z</time></trkpt><trkpt lat="44.3794012687517" lon="10.850552631002786"><ele>517.0</ele><time>2026-04-06T17:02:29.999Z</time></trkpt><trkpt lat="44.379406409946135" lon="10.850648759198936"><ele>515.0</ele><time>2026-04-06T17:02:33.999Z</time></trkpt><trkpt lat="44.3793810328022" lon="10.850741656091992"><ele>513.0</ele><time>2026-04-06T17:02:39.999Z</time></trkpt><trkpt lat="44.37931796833507" lon="10.850817409905675"><ele>510.99999999999994</ele><time>2026-04-06T17:02:42.999Z</time></trkpt><trkpt lat="44.379275591489616" lon="10.850904222867388"><ele>508.99999999999994</ele><time>2026-04-06T17:02:44.999Z</time></trkpt><trkpt lat="44.3792073700053" lon="10.851032696495414"><ele>505.4</ele><time>2026-04-06T17:02:46.999Z</time></trkpt><trkpt lat="44.379187088894064" lon="10.851168798002663"><ele>501.79999999999995</ele><time>2026-04-06T17:02:48.999Z</time></trkpt><trkpt lat="44.37913614981587" lon="10.851313720990145"><ele>498.20000000000005</ele><time>2026-04-06T17:02:50.999Z</time></trkpt><trkpt lat="44.37908859386428" lon="10.85143455729472"><ele>494.6</ele><time>2026-04-06T17:02:52.999Z</time></trkpt><trkpt lat="44.37904278607607" lon="10.851546140428013"><ele>491.0</ele><time>2026-04-06T17:02:54.999Z</time></trkpt><trkpt lat="44.37898137248139" lon="10.851646768446708"><ele>491.0</ele><time>2026-04-06T17:02:56.999Z</time></trkpt><trkpt lat="44.37890604852498" lon="10.851693487555872"><ele>491.0</ele><time>2026-04-06T17:02:58.999Z</time></trkpt><trkpt lat="44.37881797819695" lon="10.85172591368431"><ele>491.0</ele><time>2026-04-06T17:03:00.998Z</time></trkpt><trkpt lat="44.378755127795365" lon="10.85181699102669"><ele>491.0</ele><time>2026-04-06T17:03:02.998Z</time></trkpt><trkpt lat="44.37868371845556" lon="10.851963583166219"><ele>491.0</ele><time>2026-04-06T17:03:04.998Z</time></trkpt><trkpt lat="44.37862755323438" lon="10.852078036618266"><ele>485.8</ele><time>2026-04-06T17:03:06.998Z</time></trkpt><trkpt lat="44.37854157547355" lon="10.852182219594726"><ele>480.6</ele><time>2026-04-06T17:03:08.998Z</time></trkpt><trkpt lat="44.37845251583312" lon="10.852277583758243"><ele>475.4</ele><time>2026-04-06T17:03:10.998Z</time></trkpt><trkpt lat="44.37839469959317" lon="10.852365049096235"><ele>470.2</ele><time>2026-04-06T17:03:13Z</time></trkpt><trkpt lat="44.37833730109615" lon="10.852473274064435"><ele>465.0</ele><time>2026-04-06T17:03:15Z</time></trkpt><trkpt lat="44.378303147213735" lon="10.852547676797473"><ele>465.0</ele><time>2026-04-06T17:03:17Z</time></trkpt><trkpt lat="44.378255198114154" lon="10.852606909300674"><ele>465.0</ele><time>2026-04-06T17:03:19Z</time></trkpt><trkpt lat="44.37824681386981" lon="10.852709918849188"><ele>465.0</ele><time>2026-04-06T17:03:24Z</time></trkpt><trkpt lat="44.37833280040663" lon="10.852765705797369"><ele>465.0</ele><time>2026-04-06T17:03:26Z</time></trkpt><trkpt lat="44.37841608081206" lon="10.8527724006164"><ele>465.0</ele><time>2026-04-06T17:03:28Z</time></trkpt><trkpt lat="44.378518532177665" lon="10.852788253899478"><ele>465.0</ele><time>2026-04-06T17:03:30Z</time></trkpt><trkpt lat="44.378624293078396" lon="10.852823174625751"><ele>461.4</ele><time>2026-04-06T17:03:32Z</time></trkpt><trkpt lat="44.378670333291225" lon="10.852926071574826"><ele>457.8</ele><time>2026-04-06T17:03:36Z</time></trkpt><trkpt lat="44.37872520803547" lon="10.853048632664738"><ele>454.20000000000005</ele><time>2026-04-06T17:03:38Z</time></trkpt><trkpt lat="44.37875597766974" lon="10.853134311629283"><ele>450.6</ele><time>2026-04-06T17:03:39Z</time></trkpt><trkpt lat="44.378798066340586" lon="10.853289834334973"><ele>447.0</ele><time>2026-04-06T17:03:41Z</time></trkpt><trkpt lat="44.378825596798116" lon="10.853402534435961"><ele>442.8</ele><time>2026-04-06T17:03:43Z</time></trkpt><trkpt lat="44.378878622344054" lon="10.85351986658916"><ele>438.6</ele><time>2026-04-06T17:03:45Z</time></trkpt><trkpt lat="44.378906245945245" lon="10.853599401985633"><ele>434.40000000000003</ele><time>2026-04-06T17:03:46Z</time></trkpt><trkpt lat="44.37894683081043" lon="10.853765896352359"><ele>430.20000000000005</ele><time>2026-04-06T17:03:48Z</time></trkpt><trkpt lat="44.37896122140658" lon="10.85392275543834"><ele>426.0</ele><time>2026-04-06T17:03:50Z</time></trkpt><trkpt lat="44.37898825941023" lon="10.854026070177785"><ele>426.0</ele><time>2026-04-06T17:03:51.999Z</time></trkpt><trkpt lat="44.37903808126859" lon="10.854125705061143"><ele>426.0</ele><time>2026-04-06T17:03:53.999Z</time></trkpt><trkpt lat="44.379127814604956" lon="10.854205463271784"><ele>426.0</ele><time>2026-04-06T17:03:55.999Z</time></trkpt><trkpt lat="44.379241825599465" lon="10.854278031634179"><ele>426.0</ele><time>2026-04-06T17:03:57.999Z</time></trkpt><trkpt lat="44.37930031337302" lon="10.854357627299287"><ele>426.0</ele><time>2026-04-06T17:03:58.999Z</time></trkpt><trkpt lat="44.3793393239012" lon="10.85445611082066"><ele>425.0</ele><time>2026-04-06T17:03:59.999Z</time></trkpt><trkpt lat="44.37938918362879" lon="10.85456098402116"><ele>424.0</ele><time>2026-04-06T17:04:00.999Z</time></trkpt><trkpt lat="44.379441852117665" lon="10.85463700442042"><ele>423.0</ele><time>2026-04-06T17:04:01.999Z</time></trkpt><trkpt lat="44.3794858093448" lon="10.854710687699054"><ele>422.0</ele><time>2026-04-06T17:04:02.999Z</time></trkpt><trkpt lat="44.37952813369013" lon="10.854799947133635"><ele>421.0</ele><time>2026-04-06T17:04:03.999Z</time></trkpt><trkpt lat="44.379571446435165" lon="10.854890353152722"><ele>420.0</ele><time>2026-04-06T17:04:04.999Z</time></trkpt><trkpt lat="44.37964410481288" lon="10.854944490640184"><ele>419.8333333333333</ele><time>2026-04-06T17:04:05.999Z</time></trkpt><trkpt lat="44.37969692957897" lon="10.85506314415764"><ele>419.66666666666663</ele><time>2026-04-06T17:04:07.999Z</time></trkpt><trkpt lat="44.379779096934314" lon="10.855082796608642"><ele>419.5</ele><time>2026-04-06T17:04:08.999Z</time></trkpt><trkpt lat="44.37984585218551" lon="10.855030126918068"><ele>419.3333333333333</ele><time>2026-04-06T17:04:09.999Z</time></trkpt><trkpt lat="44.37991360996358" lon="10.854999493871135"><ele>419.16666666666663</ele><time>2026-04-06T17:04:10.999Z</time></trkpt><trkpt lat="44.38000249277427" lon="10.85499280441816"><ele>419.0</ele><time>2026-04-06T17:04:11.999Z</time></trkpt><trkpt lat="44.38008225047803" lon="10.854948876909972"><ele>418.99999999999994</ele><time>2026-04-06T17:04:12.999Z</time></trkpt><trkpt lat="44.38014507756231" lon="10.854897959077558"><ele>419.0</ele><time>2026-04-06T17:04:13.999Z</time></trkpt><trkpt lat="44.38018534435315" lon="10.854802005939836"><ele>419.0</ele><time>2026-04-06T17:04:14.999Z</time></trkpt><trkpt lat="44.38025726428642" lon="10.854733958250446"><ele>419.0</ele><time>2026-04-06T17:04:16.999Z</time></trkpt><trkpt lat="44.38034509136392" lon="10.8548122975644"><ele>418.99999999999994</ele><time>2026-04-06T17:04:18.999Z</time></trkpt><trkpt lat="44.38040221985067" lon="10.854858390023212"><ele>419.0</ele><time>2026-04-06T17:04:19.999Z</time></trkpt><trkpt lat="44.38045832443166" lon="10.854915021883288"><ele>419.0</ele><time>2026-04-06T17:04:20.999Z</time></trkpt><trkpt lat="44.38050242983814" lon="10.855027910712208"><ele>419.0</ele><time>2026-04-06T17:04:22.999Z</time></trkpt><trkpt lat="44.38047810231826" lon="10.855144552882608"><ele>419.0</ele><time>2026-04-06T17:04:24.999Z</time></trkpt><trkpt lat="44.38041631614243" lon="10.855203355546196"><ele>419.0</ele><time>2026-04-06T17:04:26.999Z</time></trkpt><trkpt lat="44.38034311495342" lon="10.855348027856268"><ele>419.0</ele><time>2026-04-06T17:04:28.999Z</time></trkpt><trkpt lat="44.380321543309535" lon="10.855490938732359"><ele>417.0</ele><time>2026-04-06T17:04:29.999Z</time></trkpt><trkpt lat="44.38031896248912" lon="10.85569242870906"><ele>415.0</ele><time>2026-04-06T17:04:31.999Z</time></trkpt><trkpt lat="44.38030906714208" lon="10.855892132613494"><ele>413.0</ele><time>2026-04-06T17:04:33.999Z</time></trkpt><trkpt lat="44.380293022905555" lon="10.856009334652406"><ele>411.0</ele><time>2026-04-06T17:04:34.999Z</time></trkpt><trkpt lat="44.38027550572336" lon="10.856146227962077"><ele>410.20000000000005</ele><time>2026-04-06T17:04:36.999Z</time></trkpt><trkpt lat="44.38026300524856" lon="10.856314450170247"><ele>409.40000000000003</ele><time>2026-04-06T17:04:38.999Z</time></trkpt><trkpt lat="44.38026658329006" lon="10.856447196671175"><ele>408.6</ele><time>2026-04-06T17:04:40.999Z</time></trkpt><trkpt lat="44.38028368568831" lon="10.85658346120604"><ele>407.8</ele><time>2026-04-06T17:04:55.999Z</time></trkpt><trkpt lat="44.38031321438062" lon="10.856731592382914"><ele>407.0</ele><time>2026-04-06T17:04:57.999Z</time></trkpt><trkpt lat="44.38033847964299" lon="10.856842392364808"><ele>407.0</ele><time>2026-04-06T17:04:58.999Z</time></trkpt><trkpt lat="44.38038059349599" lon="10.856963947650279"><ele>407.0</ele><time>2026-04-06T17:04:59.999Z</time></trkpt><trkpt lat="44.38039756649952" lon="10.857076779484546"><ele>407.0</ele><time>2026-04-06T17:05:00.999Z</time></trkpt><trkpt lat="44.38041127808982" lon="10.857182653656944"><ele>407.0</ele><time>2026-04-06T17:05:01.999Z</time></trkpt><trkpt lat="44.38043315275935" lon="10.857355542049802"><ele>407.0</ele><time>2026-04-06T17:05:03.998Z</time></trkpt><trkpt lat="44.380404251805565" lon="10.857493911394915"><ele>406.66666666666663</ele><time>2026-04-06T17:05:05.998Z</time></trkpt><trkpt lat="44.38039121678772" lon="10.857669099655412"><ele>406.3333333333333</ele><time>2026-04-06T17:05:07.998Z</time></trkpt><trkpt lat="44.380399353027855" lon="10.857764953255733"><ele>406.0</ele><time>2026-04-06T17:05:08.998Z</time></trkpt><trkpt lat="44.38038550482585" lon="10.857874788999608"><ele>405.66666666666663</ele><time>2026-04-06T17:05:09.998Z</time></trkpt><trkpt lat="44.38039322686848" lon="10.85796453838289"><ele>405.3333333333333</ele><time>2026-04-06T17:05:10.998Z</time></trkpt><trkpt lat="44.38041344168756" lon="10.858061205598245"><ele>405.0</ele><time>2026-04-06T17:05:11.998Z</time></trkpt><trkpt lat="44.380453773018196" lon="10.858150420877331"><ele>405.0</ele><time>2026-04-06T17:05:12.998Z</time></trkpt><trkpt lat="44.38048746969475" lon="10.858276468722186"><ele>405.0</ele><time>2026-04-06T17:05:13.998Z</time></trkpt><trkpt lat="44.38048897818248" lon="10.858426266872788"><ele>405.0</ele><time>2026-04-06T17:05:14.998Z</time></trkpt><trkpt lat="44.380493473182526" lon="10.858554046852037"><ele>405.0</ele><time>2026-04-06T17:05:15.998Z</time></trkpt><trkpt lat="44.38050508395001" lon="10.858658742744614"><ele>405.0</ele><time>2026-04-06T17:05:16.998Z</time></trkpt><trkpt lat="44.380541861665634" lon="10.858746271129561"><ele>405.0</ele><time>2026-04-06T17:05:17.998Z</time></trkpt><trkpt lat="44.38063045330985" lon="10.858871506325944"><ele>404.3333333333333</ele><time>2026-04-06T17:05:20Z</time></trkpt><trkpt lat="44.38068774314421" lon="10.858953155014245"><ele>403.66666666666663</ele><time>2026-04-06T17:05:21Z</time></trkpt><trkpt lat="44.38077187015193" lon="10.85902589226286"><ele>403.0</ele><time>2026-04-06T17:05:22Z</time></trkpt><trkpt lat="44.380835133849594" lon="10.85908668861837"><ele>402.3333333333333</ele><time>2026-04-06T17:05:23Z</time></trkpt><trkpt lat="44.380860323967774" lon="10.859168620100032"><ele>401.66666666666663</ele><time>2026-04-06T17:05:24Z</time></trkpt><trkpt lat="44.380859534455375" lon="10.859258714040338"><ele>401.0</ele><time>2026-04-06T17:05:25Z</time></trkpt><trkpt lat="44.380872952285294" lon="10.859371673920984"><ele>400.20000000000005</ele><time>2026-04-06T17:05:26Z</time></trkpt><trkpt lat="44.38090219429349" lon="10.859497930434271"><ele>399.40000000000003</ele><time>2026-04-06T17:05:27Z</time></trkpt><trkpt lat="44.38092088130673" lon="10.859668960031865"><ele>398.6</ele><time>2026-04-06T17:05:28Z</time></trkpt><trkpt lat="44.38093892511054" lon="10.859803606890294"><ele>397.8</ele><time>2026-04-06T17:05:29Z</time></trkpt><trkpt lat="44.38092838006002" lon="10.859913441992983"><ele>397.0</ele><time>2026-04-06T17:05:30Z</time></trkpt><trkpt lat="44.38092760470842" lon="10.860007715638496"><ele>396.6</ele><time>2026-04-06T17:05:31Z</time></trkpt><trkpt lat="44.380915041789606" lon="10.860128031092076"><ele>396.20000000000005</ele><time>2026-04-06T17:05:33Z</time></trkpt><trkpt lat="44.38089706130229" lon="10.860358483094796"><ele>395.8</ele><time>2026-04-06T17:05:35Z</time></trkpt><trkpt lat="44.380873766632725" lon="10.860492026103774"><ele>395.4</ele><time>2026-04-06T17:05:36Z</time></trkpt><trkpt lat="44.38085705432183" lon="10.860606892810726"><ele>395.0</ele><time>2026-04-06T17:05:37Z</time></trkpt><trkpt lat="44.38084034981976" lon="10.860705345086387"><ele>394.99999999999994</ele><time>2026-04-06T17:05:38Z</time></trkpt><trkpt lat="44.38084207289348" lon="10.860800992924755"><ele>395.0</ele><time>2026-04-06T17:05:39Z</time></trkpt><trkpt lat="44.3808528365934" lon="10.860908509456358"><ele>395.0</ele><time>2026-04-06T17:05:40Z</time></trkpt><trkpt lat="44.38086618132253" lon="10.861030559907535"><ele>395.0</ele><time>2026-04-06T17:05:41Z</time></trkpt><trkpt lat="44.38085979309768" lon="10.861149500711889"><ele>394.99999999999994</ele><time>2026-04-06T17:05:42Z</time></trkpt><trkpt lat="44.3808511490464" lon="10.861252161915223"><ele>395.0</ele><time>2026-04-06T17:05:43Z</time></trkpt><trkpt lat="44.3808324029781" lon="10.861356308386412"><ele>394.3333333333333</ele><time>2026-04-06T17:05:44Z</time></trkpt><trkpt lat="44.38081004853316" lon="10.861447648272534"><ele>393.66666666666663</ele><time>2026-04-06T17:05:45Z</time></trkpt><trkpt lat="44.38075044377109" lon="10.861584499242571"><ele>393.0</ele><time>2026-04-06T17:05:47Z</time></trkpt><trkpt lat="44.38072914932867" lon="10.861668652470058"><ele>392.33333333333337</ele><time>2026-04-06T17:05:48Z</time></trkpt><trkpt lat="44.38071014571117" lon="10.861764513924745"><ele>391.6666666666667</ele><time>2026-04-06T17:05:49Z</time></trkpt><trkpt lat="44.38069174704128" lon="10.861857324046047"><ele>391.0</ele><time>2026-04-06T17:05:50Z</time></trkpt><trkpt lat="44.380667828326814" lon="10.861954190620725"><ele>390.6666666666667</ele><time>2026-04-06T17:05:50.999Z</time></trkpt><trkpt lat="44.380622018688264" lon="10.86204933187498"><ele>390.33333333333337</ele><time>2026-04-06T17:05:51.999Z</time></trkpt><trkpt lat="44.380563208141936" lon="10.862153516155185"><ele>390.0</ele><time>2026-04-06T17:05:52.999Z</time></trkpt><trkpt lat="44.380517146336025" lon="10.86224697670106"><ele>389.66666666666663</ele><time>2026-04-06T17:05:53.999Z</time></trkpt><trkpt lat="44.38048057086277" lon="10.862323117786339"><ele>389.3333333333333</ele><time>2026-04-06T17:05:54.999Z</time></trkpt><trkpt lat="44.380444814410886" lon="10.862396764500433"><ele>389.0</ele><time>2026-04-06T17:05:55.999Z</time></trkpt><trkpt lat="44.38040496668234" lon="10.862478175243776"><ele>389.79999999999995</ele><time>2026-04-06T17:05:56.999Z</time></trkpt><trkpt lat="44.380359501022575" lon="10.862589712002327"><ele>390.59999999999997</ele><time>2026-04-06T17:05:57.999Z</time></trkpt><trkpt lat="44.3803003339927" lon="10.862675889847374"><ele>391.4</ele><time>2026-04-06T17:05:58.999Z</time></trkpt><trkpt lat="44.38023788727475" lon="10.862806226365088"><ele>392.2</ele><time>2026-04-06T17:06:00.999Z</time></trkpt><trkpt lat="44.38022304552596" lon="10.862969993753554"><ele>393.0</ele><time>2026-04-06T17:06:02.999Z</time></trkpt><trkpt lat="44.38024285905545" lon="10.863074436898538"><ele>393.0</ele><time>2026-04-06T17:06:03.999Z</time></trkpt><trkpt lat="44.38027717692388" lon="10.863205087023326"><ele>393.0</ele><time>2026-04-06T17:06:05.999Z</time></trkpt><trkpt lat="44.38029569579464" lon="10.86329296699678"><ele>393.0</ele><time>2026-04-06T17:06:06.999Z</time></trkpt><trkpt lat="44.38029653314463" lon="10.863447005220095"><ele>393.0</ele><time>2026-04-06T17:06:08.999Z</time></trkpt><trkpt lat="44.38029440767972" lon="10.863558502640187"><ele>393.0</ele><time>2026-04-06T17:06:09.999Z</time></trkpt><trkpt lat="44.380313844871914" lon="10.86366912939383"><ele>393.0</ele><time>2026-04-06T17:06:10.999Z</time></trkpt><trkpt lat="44.38035787199919" lon="10.86375036681328"><ele>392.4</ele><time>2026-04-06T17:06:11.999Z</time></trkpt><trkpt lat="44.38039868686809" lon="10.863890835083037"><ele>391.79999999999995</ele><time>2026-04-06T17:06:13.999Z</time></trkpt><trkpt lat="44.38039009117326" lon="10.86401538481034"><ele>391.2</ele><time>2026-04-06T17:06:15.999Z</time></trkpt><trkpt lat="44.38037867143021" lon="10.86417343322107"><ele>390.6</ele><time>2026-04-06T17:06:17.999Z</time></trkpt><trkpt lat="44.38039546150732" lon="10.864328519196095"><ele>390.0</ele><time>2026-04-06T17:06:19.999Z</time></trkpt><trkpt lat="44.380437695426444" lon="10.86448489292615"><ele>389.8</ele><time>2026-04-06T17:06:21.999Z</time></trkpt><trkpt lat="44.38047357083913" lon="10.86459433476573"><ele>389.6</ele><time>2026-04-06T17:06:23.999Z</time></trkpt><trkpt lat="44.38050199196707" lon="10.864763857093891"><ele>389.4</ele><time>2026-04-06T17:06:25.999Z</time></trkpt><trkpt lat="44.38052542384747" lon="10.864915273032498"><ele>389.2</ele><time>2026-04-06T17:06:27.999Z</time></trkpt><trkpt lat="44.38054118213679" lon="10.865022916389693"><ele>389.0</ele><time>2026-04-06T17:06:29.999Z</time></trkpt><trkpt lat="44.3805669299737" lon="10.865193866487953"><ele>387.3333333333333</ele><time>2026-04-06T17:06:31.999Z</time></trkpt><trkpt lat="44.38057689380373" lon="10.86529946916181"><ele>385.66666666666663</ele><time>2026-04-06T17:06:32.999Z</time></trkpt><trkpt lat="44.38058010054852" lon="10.86540517599497"><ele>384.0</ele><time>2026-04-06T17:06:33.999Z</time></trkpt><trkpt lat="44.380582841864644" lon="10.86549424816534"><ele>382.3333333333333</ele><time>2026-04-06T17:06:34.999Z</time></trkpt><trkpt lat="44.38058888095017" lon="10.865582130508653"><ele>380.66666666666663</ele><time>2026-04-06T17:06:35.999Z</time></trkpt><trkpt lat="44.380633991383085" lon="10.865721075793953"><ele>379.0</ele><time>2026-04-06T17:06:37.999Z</time></trkpt><trkpt lat="44.38066363112832" lon="10.865828947706994"><ele>379.0</ele><time>2026-04-06T17:06:38.999Z</time></trkpt><trkpt lat="44.38069911204185" lon="10.865920938708097"><ele>379.0</ele><time>2026-04-06T17:06:39.999Z</time></trkpt><trkpt lat="44.38073260394858" lon="10.86607670396156"><ele>379.0</ele><time>2026-04-06T17:06:41.999Z</time></trkpt><trkpt lat="44.38077665446116" lon="10.866218597382845"><ele>379.0</ele><time>2026-04-06T17:06:43.999Z</time></trkpt><trkpt lat="44.38082516928011" lon="10.866367624372025"><ele>379.0</ele><time>2026-04-06T17:06:45.999Z</time></trkpt><trkpt lat="44.380823022322296" lon="10.866481347453991"><ele>378.66666666666663</ele><time>2026-04-06T17:06:46.999Z</time></trkpt><trkpt lat="44.380837551359726" lon="10.866598531098312"><ele>378.3333333333333</ele><time>2026-04-06T17:06:47.999Z</time></trkpt><trkpt lat="44.38086238516912" lon="10.866697483258367"><ele>378.0</ele><time>2026-04-06T17:06:48.999Z</time></trkpt><trkpt lat="44.38087760509226" lon="10.866828924602036"><ele>377.6666666666667</ele><time>2026-04-06T17:06:49.999Z</time></trkpt><trkpt lat="44.38089525761857" lon="10.866937494731859"><ele>377.33333333333337</ele><time>2026-04-06T17:06:50.999Z</time></trkpt><trkpt lat="44.380916227375806" lon="10.867035615822703"><ele>377.0</ele><time>2026-04-06T17:06:51.999Z</time></trkpt><trkpt lat="44.38091316393224" lon="10.867130717842448"><ele>375.6</ele><time>2026-04-06T17:06:52.999Z</time></trkpt><trkpt lat="44.380926441799105" lon="10.867290726780725"><ele>374.20000000000005</ele><time>2026-04-06T17:06:54.999Z</time></trkpt><trkpt lat="44.380950114258745" lon="10.867426756850875"><ele>372.8</ele><time>2026-04-06T17:06:56.999Z</time></trkpt><trkpt lat="44.3809663147731" lon="10.867613709437379"><ele>371.4</ele><time>2026-04-06T17:06:58.998Z</time></trkpt><trkpt lat="44.380970445300065" lon="10.86772815743847"><ele>370.0</ele><time>2026-04-06T17:06:59.998Z</time></trkpt><trkpt lat="44.380956919082" lon="10.86786950279195"><ele>367.75</ele><time>2026-04-06T17:07:01.998Z</time></trkpt><trkpt lat="44.38092584032065" lon="10.868137091826226"><ele>365.5</ele><time>2026-04-06T17:07:02.998Z</time></trkpt><trkpt lat="44.38092412255335" lon="10.868264262424361"><ele>363.25</ele><time>2026-04-06T17:07:03.998Z</time></trkpt><trkpt lat="44.38092232864144" lon="10.868447536465249"><ele>361.0</ele><time>2026-04-06T17:07:05.998Z</time></trkpt><trkpt lat="44.38091760023139" lon="10.868554412315001"><ele>360.66666666666663</ele><time>2026-04-06T17:07:06.998Z</time></trkpt><trkpt lat="44.38091182987805" lon="10.86865471602784"><ele>360.3333333333333</ele><time>2026-04-06T17:07:07.998Z</time></trkpt><trkpt lat="44.38090551183648" lon="10.868764539682077"><ele>360.0</ele><time>2026-04-06T17:07:08.998Z</time></trkpt><trkpt lat="44.38091654302298" lon="10.868872852283808"><ele>359.6666666666667</ele><time>2026-04-06T17:07:09.999Z</time></trkpt><trkpt lat="44.38091804778954" lon="10.869055424957011"><ele>359.33333333333337</ele><time>2026-04-06T17:07:11.999Z</time></trkpt><trkpt lat="44.380919457063385" lon="10.869146351723035"><ele>359.0</ele><time>2026-04-06T17:07:12.999Z</time></trkpt><trkpt lat="44.38090346317039" lon="10.869238370475712"><ele>359.0</ele><time>2026-04-06T17:07:13.999Z</time></trkpt><trkpt lat="44.38092045588688" lon="10.86939649998489"><ele>359.0</ele><time>2026-04-06T17:07:15.999Z</time></trkpt><trkpt lat="44.3809207377161" lon="10.869494790323312"><ele>359.0</ele><time>2026-04-06T17:07:16.999Z</time></trkpt><trkpt lat="44.38092240183146" lon="10.869593643095032"><ele>359.0</ele><time>2026-04-06T17:07:17.999Z</time></trkpt><trkpt lat="44.380924098257466" lon="10.869682244123767"><ele>359.0</ele><time>2026-04-06T17:07:18.999Z</time></trkpt><trkpt lat="44.38091121578763" lon="10.869838491993217"><ele>359.0</ele><time>2026-04-06T17:07:20.999Z</time></trkpt><trkpt lat="44.3809156456816" lon="10.87000960492634"><ele>359.0</ele><time>2026-04-06T17:07:22.999Z</time></trkpt><trkpt lat="44.38091902512188" lon="10.870098351988737"><ele>359.0</ele><time>2026-04-06T17:07:24.001Z</time></trkpt><trkpt lat="44.38092390146681" lon="10.87019534152773"><ele>359.0</ele><time>2026-04-06T17:07:25.001Z</time></trkpt><trkpt lat="44.38095172031193" lon="10.87029036504641"><ele>359.0</ele><time>2026-04-06T17:07:26.001Z</time></trkpt><trkpt lat="44.38097826756481" lon="10.870418592729704"><ele>359.0</ele><time>2026-04-06T17:07:27.001Z</time></trkpt><trkpt lat="44.38101480696558" lon="10.870532865578953"><ele>359.0</ele><time>2026-04-06T17:07:28.001Z</time></trkpt><trkpt lat="44.38106040576773" lon="10.870694555048113"><ele>357.79999999999995</ele><time>2026-04-06T17:07:29.001Z</time></trkpt><trkpt lat="44.38110738089733" lon="10.870856535207713"><ele>356.59999999999997</ele><time>2026-04-06T17:07:30.001Z</time></trkpt><trkpt lat="44.381139891741924" lon="10.871014941963299"><ele>355.4</ele><time>2026-04-06T17:07:34.001Z</time></trkpt><trkpt lat="44.381149884214906" lon="10.871136711177627"><ele>354.2</ele><time>2026-04-06T17:07:35.001Z</time></trkpt><trkpt lat="44.381158262432876" lon="10.871246361266403"><ele>353.0</ele><time>2026-04-06T17:07:36.001Z</time></trkpt><trkpt lat="44.381135905530854" lon="10.871329092022046"><ele>352.1666666666667</ele><time>2026-04-06T17:07:37.001Z</time></trkpt><trkpt lat="44.38111101005081" lon="10.8714292633723"><ele>351.33333333333337</ele><time>2026-04-06T17:07:38.001Z</time></trkpt><trkpt lat="44.381079718176586" lon="10.871540473590219"><ele>350.5</ele><time>2026-04-06T17:07:39.001Z</time></trkpt><trkpt lat="44.38104762761454" lon="10.871666933010847"><ele>349.6666666666667</ele><time>2026-04-06T17:07:40.001Z</time></trkpt><trkpt lat="44.38103706982591" lon="10.87179310564629"><ele>348.8333333333333</ele><time>2026-04-06T17:07:41.001Z</time></trkpt><trkpt lat="44.38101698104383" lon="10.871898481335359"><ele>348.0</ele><time>2026-04-06T17:07:42.001Z</time></trkpt><trkpt lat="44.38101730851626" lon="10.872012235598845"><ele>348.0</ele><time>2026-04-06T17:07:43.001Z</time></trkpt><trkpt lat="44.381032366214825" lon="10.872108732300685"><ele>348.0</ele><time>2026-04-06T17:07:44.001Z</time></trkpt><trkpt lat="44.38116121904848" lon="10.872171409973907"><ele>348.0</ele><time>2026-04-06T17:07:46.001Z</time></trkpt><trkpt lat="44.3812410325472" lon="10.872212114785599"><ele>348.0</ele><time>2026-04-06T17:07:47.001Z</time></trkpt><trkpt lat="44.38133169413158" lon="10.872228627189513"><ele>348.0</ele><time>2026-04-06T17:07:48.001Z</time></trkpt><trkpt lat="44.38139866444218" lon="10.872298241737797"><ele>347.79999999999995</ele><time>2026-04-06T17:07:49.001Z</time></trkpt><trkpt lat="44.381464161365415" lon="10.872374845654358"><ele>347.6</ele><time>2026-04-06T17:07:50Z</time></trkpt><trkpt lat="44.3815462011301" lon="10.872470091420237"><ele>347.4</ele><time>2026-04-06T17:07:51Z</time></trkpt><trkpt lat="44.381612786674594" lon="10.872556549386308"><ele>347.20000000000005</ele><time>2026-04-06T17:07:52Z</time></trkpt><trkpt lat="44.38168907069887" lon="10.872594044823622"><ele>347.0</ele><time>2026-04-06T17:07:53Z</time></trkpt><trkpt lat="44.381778610799216" lon="10.872618410581572"><ele>347.0</ele><time>2026-04-06T17:07:54Z</time></trkpt><trkpt lat="44.38188791184702" lon="10.872630353221927"><ele>347.0</ele><time>2026-04-06T17:07:55Z</time></trkpt><trkpt lat="44.38196494671064" lon="10.872676119156692"><ele>347.0</ele><time>2026-04-06T17:07:56Z</time></trkpt><trkpt lat="44.382023733629" lon="10.872727335953256"><ele>347.0</ele><time>2026-04-06T17:07:57Z</time></trkpt><trkpt lat="44.382074272419615" lon="10.872788493115605"><ele>347.0</ele><time>2026-04-06T17:07:58Z</time></trkpt><trkpt lat="44.38207368383091" lon="10.872877286051832"><ele>347.0</ele><time>2026-04-06T17:07:59Z</time></trkpt><trkpt lat="44.3820838334837" lon="10.872984847409889"><ele>347.0</ele><time>2026-04-06T17:08:00Z</time></trkpt><trkpt lat="44.38209627832487" lon="10.87310793663873"><ele>347.0</ele><time>2026-04-06T17:08:01Z</time></trkpt><trkpt lat="44.38213038492297" lon="10.873227699615532"><ele>347.0</ele><time>2026-04-06T17:08:02Z</time></trkpt><trkpt lat="44.38215789568328" lon="10.873337241019009"><ele>347.0</ele><time>2026-04-06T17:08:03Z</time></trkpt><trkpt lat="44.38221762938089" lon="10.873438592242442"><ele>347.0</ele><time>2026-04-06T17:08:04Z</time></trkpt><trkpt lat="44.382285626558215" lon="10.873539502376303"><ele>344.83333333333337</ele><time>2026-04-06T17:08:05Z</time></trkpt><trkpt lat="44.38236419857696" lon="10.873625553183654"><ele>342.6666666666667</ele><time>2026-04-06T17:08:06Z</time></trkpt><trkpt lat="44.382421881708105" lon="10.873708526940616"><ele>340.5</ele><time>2026-04-06T17:08:07Z</time></trkpt><trkpt lat="44.382479041888" lon="10.87379012613327"><ele>338.3333333333333</ele><time>2026-04-06T17:08:08Z</time></trkpt><trkpt lat="44.38251982691222" lon="10.87389973508994"><ele>336.16666666666663</ele><time>2026-04-06T17:08:09Z</time></trkpt><trkpt lat="44.382567195619465" lon="10.873998751333204"><ele>334.0</ele><time>2026-04-06T17:08:10Z</time></trkpt><trkpt lat="44.3826037227141" lon="10.874099800611004"><ele>334.0</ele><time>2026-04-06T17:08:11Z</time></trkpt><trkpt lat="44.38265487460228" lon="10.874236641937902"><ele>334.0</ele><time>2026-04-06T17:08:13Z</time></trkpt><trkpt lat="44.382719604334575" lon="10.874266996373356"><ele>334.0</ele><time>2026-04-06T17:08:14Z</time></trkpt><trkpt lat="44.382783336486945" lon="10.874356804303188"><ele>334.0</ele><time>2026-04-06T17:08:16Z</time></trkpt><trkpt lat="44.3827204361887" lon="10.874463361672637"><ele>334.0</ele><time>2026-04-06T17:08:18Z</time></trkpt><trkpt lat="44.38269610225788" lon="10.874580728542881"><ele>334.5</ele><time>2026-04-06T17:08:19Z</time></trkpt><trkpt lat="44.382696064864966" lon="10.874721278913185"><ele>335.0</ele><time>2026-04-06T17:08:20Z</time></trkpt><trkpt lat="44.382670543392635" lon="10.874845868256754"><ele>335.5</ele><time>2026-04-06T17:08:21Z</time></trkpt><trkpt lat="44.38264858378851" lon="10.874973064625879"><ele>336.0</ele><time>2026-04-06T17:08:22Z</time></trkpt><trkpt lat="44.382623248179385" lon="10.87505536906108"><ele>336.5</ele><time>2026-04-06T17:08:23Z</time></trkpt><trkpt lat="44.382549349657474" lon="10.87504288965903"><ele>337.0</ele><time>2026-04-06T17:08:25Z</time></trkpt><trkpt lat="44.382467637659204" lon="10.874917621641636"><ele>337.0</ele><time>2026-04-06T17:08:27Z</time></trkpt><trkpt lat="44.382404055459766" lon="10.874861486214058"><ele>337.0</ele><time>2026-04-06T17:08:28Z</time></trkpt><trkpt lat="44.38234392258165" lon="10.874808396454332"><ele>337.0</ele><time>2026-04-06T17:08:29Z</time></trkpt><trkpt lat="44.382252115480576" lon="10.874846320985796"><ele>337.0</ele><time>2026-04-06T17:08:30Z</time></trkpt><trkpt lat="44.38218187425692" lon="10.874868324044598"><ele>337.0</ele><time>2026-04-06T17:08:31Z</time></trkpt><trkpt lat="44.38210748984375" lon="10.8749119364389"><ele>337.0</ele><time>2026-04-06T17:08:32Z</time></trkpt><trkpt lat="44.38203261350042" lon="10.874929741679034"><ele>340.8</ele><time>2026-04-06T17:08:33Z</time></trkpt><trkpt lat="44.38193223923403" lon="10.874901887271669"><ele>344.6</ele><time>2026-04-06T17:08:34Z</time></trkpt><trkpt lat="44.381835966052876" lon="10.874902077770306"><ele>348.40000000000003</ele><time>2026-04-06T17:08:35Z</time></trkpt><trkpt lat="44.3817079181893" lon="10.874926401533061"><ele>352.20000000000005</ele><time>2026-04-06T17:08:37Z</time></trkpt><trkpt lat="44.381642873725724" lon="10.874991111917973"><ele>356.0</ele><time>2026-04-06T17:08:38Z</time></trkpt><trkpt lat="44.381568832420925" lon="10.875049843418664"><ele>357.1666666666667</ele><time>2026-04-06T17:08:39Z</time></trkpt><trkpt lat="44.38149750888594" lon="10.875110458771779"><ele>358.33333333333337</ele><time>2026-04-06T17:08:40Z</time></trkpt><trkpt lat="44.38143448570797" lon="10.87516713457929"><ele>359.5</ele><time>2026-04-06T17:08:41Z</time></trkpt><trkpt lat="44.38137223603509" lon="10.875210152119388"><ele>360.6666666666667</ele><time>2026-04-06T17:08:42Z</time></trkpt><trkpt lat="44.381285347628804" lon="10.875235922514173"><ele>361.8333333333333</ele><time>2026-04-06T17:08:43Z</time></trkpt><trkpt lat="44.38119093680306" lon="10.875286831434883"><ele>363.0</ele><time>2026-04-06T17:08:44Z</time></trkpt><trkpt lat="44.381111534609396" lon="10.875337209357228"><ele>365.79999999999995</ele><time>2026-04-06T17:08:45Z</time></trkpt><trkpt lat="44.381042300459846" lon="10.875418071627868"><ele>368.6</ele><time>2026-04-06T17:08:46Z</time></trkpt><trkpt lat="44.38098033270465" lon="10.87546490604336"><ele>371.4</ele><time>2026-04-06T17:08:47Z</time></trkpt><trkpt lat="44.38090969915176" lon="10.875519155749542"><ele>374.20000000000005</ele><time>2026-04-06T17:08:50Z</time></trkpt><trkpt lat="44.38101026474841" lon="10.87571644580364"><ele>377.0</ele><time>2026-04-06T17:08:51Z</time></trkpt><trkpt lat="44.38114145471197" lon="10.875742401395373"><ele>377.0</ele><time>2026-04-06T17:08:53Z</time></trkpt><trkpt lat="44.381212690374284" lon="10.875734374324924"><ele>377.0</ele><time>2026-04-06T17:08:54Z</time></trkpt><trkpt lat="44.38127967960148" lon="10.875738103103224"><ele>377.0</ele><time>2026-04-06T17:08:55Z</time></trkpt><trkpt lat="44.38139749021241" lon="10.875781539694733"><ele>377.0</ele><time>2026-04-06T17:08:56.999Z</time></trkpt><trkpt lat="44.3814623609223" lon="10.875819482958942"><ele>377.0</ele><time>2026-04-06T17:08:57.999Z</time></trkpt><trkpt lat="44.38154551138608" lon="10.875865635243716"><ele>377.0</ele><time>2026-04-06T17:08:59.999Z</time></trkpt><trkpt lat="44.38158054696152" lon="10.875944266746929"><ele>375.20000000000005</ele><time>2026-04-06T17:09:02.999Z</time></trkpt><trkpt lat="44.381538070857104" lon="10.876052259154887"><ele>373.4</ele><time>2026-04-06T17:09:06.999Z</time></trkpt><trkpt lat="44.38140511202821" lon="10.876107777273905"><ele>371.6</ele><time>2026-04-06T17:09:08.999Z</time></trkpt><trkpt lat="44.3813422869598" lon="10.876124820384799"><ele>369.79999999999995</ele><time>2026-04-06T17:09:09.999Z</time></trkpt><trkpt lat="44.38126248461042" lon="10.876160843111466"><ele>368.0</ele><time>2026-04-06T17:09:11.999Z</time></trkpt><trkpt lat="44.38118914914586" lon="10.876240613878354"><ele>368.0</ele><time>2026-04-06T17:09:13.999Z</time></trkpt><trkpt lat="44.381091686330585" lon="10.876285593396375"><ele>368.0</ele><time>2026-04-06T17:09:15.999Z</time></trkpt><trkpt lat="44.381020013376414" lon="10.876344648726393"><ele>368.0</ele><time>2026-04-06T17:09:17.999Z</time></trkpt><trkpt lat="44.38093249162765" lon="10.876354201695468"><ele>368.0</ele><time>2026-04-06T17:09:19.999Z</time></trkpt><trkpt lat="44.38086663435412" lon="10.876374941169201"><ele>368.0</ele><time>2026-04-06T17:09:20.999Z</time></trkpt><trkpt lat="44.380752680142734" lon="10.876351669703642"><ele>368.0</ele><time>2026-04-06T17:09:22.999Z</time></trkpt><trkpt lat="44.38067242435609" lon="10.876329276587978"><ele>368.0</ele><time>2026-04-06T17:09:23.999Z</time></trkpt><trkpt lat="44.380667372186025" lon="10.876219517793029"><ele>368.0</ele><time>2026-04-06T17:09:25.999Z</time></trkpt><trkpt lat="44.38051770614398" lon="10.876179707514147"><ele>368.0</ele><time>2026-04-06T17:09:27.999Z</time></trkpt><trkpt lat="44.38044412923331" lon="10.876174188389678"><ele>368.0</ele><time>2026-04-06T17:09:28.999Z</time></trkpt><trkpt lat="44.380284908006296" lon="10.876081884070409"><ele>369.1666666666667</ele><time>2026-04-06T17:09:31.001Z</time></trkpt><trkpt lat="44.380211004036674" lon="10.876142044044606"><ele>370.33333333333337</ele><time>2026-04-06T17:09:33.001Z</time></trkpt><trkpt lat="44.38015221836109" lon="10.876180200544713"><ele>371.5</ele><time>2026-04-06T17:09:35.001Z</time></trkpt><trkpt lat="44.3800715739416" lon="10.87622106292426"><ele>372.6666666666667</ele><time>2026-04-06T17:09:38.001Z</time></trkpt><trkpt lat="44.38000274692722" lon="10.8762405231369"><ele>373.8333333333333</ele><time>2026-04-06T17:09:41.001Z</time></trkpt><trkpt lat="44.37988591407183" lon="10.8762308201542"><ele>375.0</ele><time>2026-04-06T17:09:44.001Z</time></trkpt><trkpt lat="44.37981753651413" lon="10.876219063274672"><ele>375.0</ele><time>2026-04-06T17:09:46.001Z</time></trkpt><trkpt lat="44.379730557928816" lon="10.876204108089674"><ele>375.0</ele><time>2026-04-06T17:09:47.001Z</time></trkpt><trkpt lat="44.379666922332405" lon="10.876217424741126"><ele>375.0</ele><time>2026-04-06T17:09:48Z</time></trkpt><trkpt lat="44.37959101045616" lon="10.876221267047253"><ele>375.0</ele><time>2026-04-06T17:09:49Z</time></trkpt><trkpt lat="44.379511040391804" lon="10.876223901380033"><ele>375.0</ele><time>2026-04-06T17:09:50Z</time></trkpt><trkpt lat="44.37943129025771" lon="10.876231087941527"><ele>375.0</ele><time>2026-04-06T17:09:51Z</time></trkpt><trkpt lat="44.37931865181489" lon="10.876236727082889"><ele>377.0</ele><time>2026-04-06T17:09:53Z</time></trkpt><trkpt lat="44.37924635969351" lon="10.876236793313122"><ele>379.0</ele><time>2026-04-06T17:09:54Z</time></trkpt><trkpt lat="44.37918111105603" lon="10.876247069778858"><ele>381.0</ele><time>2026-04-06T17:09:55Z</time></trkpt><trkpt lat="44.3790518228225" lon="10.876240014614437"><ele>383.0</ele><time>2026-04-06T17:09:57Z</time></trkpt><trkpt lat="44.37892671794232" lon="10.876252163414303"><ele>385.0</ele><time>2026-04-06T17:09:59Z</time></trkpt><trkpt lat="44.378856822062886" lon="10.87629910025636"><ele>387.2</ele><time>2026-04-06T17:10:00Z</time></trkpt><trkpt lat="44.37873799201929" lon="10.876331915985455"><ele>389.4</ele><time>2026-04-06T17:10:02Z</time></trkpt><trkpt lat="44.37868205166145" lon="10.876258562246544"><ele>391.6</ele><time>2026-04-06T17:10:03Z</time></trkpt><trkpt lat="44.37861902117123" lon="10.876216589527349"><ele>393.8</ele><time>2026-04-06T17:10:04Z</time></trkpt><trkpt lat="44.37853555456903" lon="10.876125811800842"><ele>396.0</ele><time>2026-04-06T17:10:06Z</time></trkpt><trkpt lat="44.37850223093959" lon="10.876001289840453"><ele>397.6666666666667</ele><time>2026-04-06T17:10:08Z</time></trkpt><trkpt lat="44.378434444882245" lon="10.875915162576804"><ele>399.33333333333337</ele><time>2026-04-06T17:10:10Z</time></trkpt><trkpt lat="44.37836407039851" lon="10.875847447876682"><ele>401.0</ele><time>2026-04-06T17:10:12Z</time></trkpt><trkpt lat="44.37828468217919" lon="10.875759984525681"><ele>402.6666666666667</ele><time>2026-04-06T17:10:14Z</time></trkpt><trkpt lat="44.37821188842593" lon="10.875707576003299"><ele>404.33333333333337</ele><time>2026-04-06T17:10:15Z</time></trkpt><trkpt lat="44.378147943458245" lon="10.875651790816882"><ele>406.0</ele><time>2026-04-06T17:10:16Z</time></trkpt><trkpt lat="44.37805118422541" lon="10.875570837264506"><ele>406.6666666666667</ele><time>2026-04-06T17:10:18Z</time></trkpt><trkpt lat="44.377994397987855" lon="10.875511361487266"><ele>407.33333333333337</ele><time>2026-04-06T17:10:19Z</time></trkpt><trkpt lat="44.377933605729105" lon="10.875449542754076"><ele>408.0</ele><time>2026-04-06T17:10:20Z</time></trkpt><trkpt lat="44.37786989875017" lon="10.875393887971216"><ele>408.66666666666663</ele><time>2026-04-06T17:10:21Z</time></trkpt><trkpt lat="44.377808950432694" lon="10.875336485214829"><ele>409.3333333333333</ele><time>2026-04-06T17:10:22Z</time></trkpt><trkpt lat="44.37777055175962" lon="10.875263940497037"><ele>410.0</ele><time>2026-04-06T17:10:23Z</time></trkpt><trkpt lat="44.37773314333769" lon="10.875133633056887"><ele>412.4</ele><time>2026-04-06T17:10:25Z</time></trkpt><trkpt lat="44.37768869020104" lon="10.874974879903206"><ele>414.8</ele><time>2026-04-06T17:10:27Z</time></trkpt><trkpt lat="44.37766052907154" lon="10.874893904505377"><ele>417.20000000000005</ele><time>2026-04-06T17:10:28Z</time></trkpt><trkpt lat="44.37761595482829" lon="10.87474942414771"><ele>419.6</ele><time>2026-04-06T17:10:30Z</time></trkpt><trkpt lat="44.37758041633475" lon="10.87461229623838"><ele>422.0</ele><time>2026-04-06T17:10:32Z</time></trkpt><trkpt lat="44.37754576774108" lon="10.874533272627971"><ele>422.0</ele><time>2026-04-06T17:10:33Z</time></trkpt><trkpt lat="44.377485590233505" lon="10.874409747987247"><ele>422.0</ele><time>2026-04-06T17:10:35Z</time></trkpt><trkpt lat="44.377423621368045" lon="10.874260528132028"><ele>422.0</ele><time>2026-04-06T17:10:36Z</time></trkpt><trkpt lat="44.377391207917235" lon="10.874168857086193"><ele>422.0</ele><time>2026-04-06T17:10:37Z</time></trkpt><trkpt lat="44.37736236517636" lon="10.874079045461086"><ele>422.0</ele><time>2026-04-06T17:10:38Z</time></trkpt><trkpt lat="44.3773242550584" lon="10.873986237065441"><ele>424.8</ele><time>2026-04-06T17:10:39Z</time></trkpt><trkpt lat="44.37728036258647" lon="10.873849074549915"><ele>427.6</ele><time>2026-04-06T17:10:41Z</time></trkpt><trkpt lat="44.37727730039602" lon="10.873759768242662"><ele>430.40000000000003</ele><time>2026-04-06T17:10:42Z</time></trkpt><trkpt lat="44.37733350318543" lon="10.873629849866102"><ele>433.20000000000005</ele><time>2026-04-06T17:10:44Z</time></trkpt><trkpt lat="44.37733088130293" lon="10.873485380969807"><ele>436.0</ele><time>2026-04-06T17:10:46Z</time></trkpt><trkpt lat="44.377282325592795" lon="10.873417130307457"><ele>437.20000000000005</ele><time>2026-04-06T17:10:48Z</time></trkpt><trkpt lat="44.37717427514534" lon="10.87344942206634"><ele>438.40000000000003</ele><time>2026-04-06T17:10:50Z</time></trkpt><trkpt lat="44.37705575469325" lon="10.87345425045962"><ele>439.6</ele><time>2026-04-06T17:10:52Z</time></trkpt><trkpt lat="44.37696442216853" lon="10.873447800438846"><ele>440.8</ele><time>2026-04-06T17:10:52.999Z</time></trkpt><trkpt lat="44.376848723248315" lon="10.873450995577272"><ele>442.0</ele><time>2026-04-06T17:10:54.999Z</time></trkpt><trkpt lat="44.37679092984785" lon="10.873409802406535"><ele>443.6</ele><time>2026-04-06T17:10:55.999Z</time></trkpt><trkpt lat="44.37668795304802" lon="10.873324309625314"><ele>445.20000000000005</ele><time>2026-04-06T17:10:57.999Z</time></trkpt><trkpt lat="44.37662707567641" lon="10.873238570289576"><ele>446.8</ele><time>2026-04-06T17:10:58.999Z</time></trkpt><trkpt lat="44.376578979756324" lon="10.87315510563051"><ele>448.4</ele><time>2026-04-06T17:10:59.999Z</time></trkpt><trkpt lat="44.37648330330303" lon="10.873048715051594"><ele>450.0</ele><time>2026-04-06T17:11:01.999Z</time></trkpt><trkpt lat="44.37635690971825" lon="10.873042254133603"><ele>452.4</ele><time>2026-04-06T17:11:03.999Z</time></trkpt><trkpt lat="44.3762961252299" lon="10.873078154264748"><ele>454.8</ele><time>2026-04-06T17:11:04.999Z</time></trkpt><trkpt lat="44.37622307535028" lon="10.873137512461637"><ele>457.20000000000005</ele><time>2026-04-06T17:11:05.999Z</time></trkpt><trkpt lat="44.37612559452687" lon="10.873215333233427"><ele>459.6</ele><time>2026-04-06T17:11:06.999Z</time></trkpt><trkpt lat="44.37603881689617" lon="10.873291312140116"><ele>462.0</ele><time>2026-04-06T17:11:07.999Z</time></trkpt><trkpt lat="44.37595807271654" lon="10.873362364248692"><ele>462.0</ele><time>2026-04-06T17:11:08.999Z</time></trkpt><trkpt lat="44.37589129044886" lon="10.873415837058602"><ele>462.0</ele><time>2026-04-06T17:11:09.999Z</time></trkpt><trkpt lat="44.375819117445786" lon="10.873491861271251"><ele>462.0</ele><time>2026-04-06T17:11:10.999Z</time></trkpt><trkpt lat="44.3757480038928" lon="10.873541860196598"><ele>462.0</ele><time>2026-04-06T17:11:11.999Z</time></trkpt><trkpt lat="44.37566891607393" lon="10.87358748827342"><ele>462.0</ele><time>2026-04-06T17:11:12.999Z</time></trkpt><trkpt lat="44.37558924909931" lon="10.873623824527355"><ele>462.0</ele><time>2026-04-06T17:11:13.999Z</time></trkpt><trkpt lat="44.37548024209062" lon="10.873644092316407"><ele>462.8</ele><time>2026-04-06T17:11:14.999Z</time></trkpt><trkpt lat="44.37540164050795" lon="10.873689321638489"><ele>463.6</ele><time>2026-04-06T17:11:15.999Z</time></trkpt><trkpt lat="44.37528009287931" lon="10.873720772320967"><ele>464.40000000000003</ele><time>2026-04-06T17:11:16.999Z</time></trkpt><trkpt lat="44.37517633315824" lon="10.873749608005754"><ele>465.20000000000005</ele><time>2026-04-06T17:11:17.999Z</time></trkpt><trkpt lat="44.37505285556558" lon="10.873774247110283"><ele>466.0</ele><time>2026-04-06T17:11:18.999Z</time></trkpt><trkpt lat="44.37493629292662" lon="10.873799781573453"><ele>466.0</ele><time>2026-04-06T17:11:19.999Z</time></trkpt><trkpt lat="44.37483396369702" lon="10.873823417788719"><ele>466.0</ele><time>2026-04-06T17:11:20.999Z</time></trkpt><trkpt lat="44.374712495714014" lon="10.873832905526674"><ele>466.0</ele><time>2026-04-06T17:11:21.999Z</time></trkpt><trkpt lat="44.37462327112953" lon="10.873842288383493"><ele>466.0</ele><time>2026-04-06T17:11:22.999Z</time></trkpt><trkpt lat="44.374520073539486" lon="10.873837734233561"><ele>466.0</ele><time>2026-04-06T17:11:23.999Z</time></trkpt><trkpt lat="44.374426973171765" lon="10.873842463445577"><ele>468.4</ele><time>2026-04-06T17:11:24.999Z</time></trkpt><trkpt lat="44.374328045987184" lon="10.873850950410626"><ele>470.8</ele><time>2026-04-06T17:11:25.999Z</time></trkpt><trkpt lat="44.37422875283117" lon="10.873860399104059"><ele>473.19999999999993</ele><time>2026-04-06T17:11:26.999Z</time></trkpt><trkpt lat="44.37415002958531" lon="10.873864151352162"><ele>475.59999999999997</ele><time>2026-04-06T17:11:27.999Z</time></trkpt><trkpt lat="44.37406288461679" lon="10.873856588856974"><ele>478.0</ele><time>2026-04-06T17:11:28.999Z</time></trkpt><trkpt lat="44.37397631284236" lon="10.873855256002654"><ele>478.0</ele><time>2026-04-06T17:11:29.999Z</time></trkpt><trkpt lat="44.373883723730806" lon="10.873845570182585"><ele>477.99999999999994</ele><time>2026-04-06T17:11:30.999Z</time></trkpt><trkpt lat="44.37380579241249" lon="10.873846701167485"><ele>477.99999999999994</ele><time>2026-04-06T17:11:31.999Z</time></trkpt><trkpt lat="44.37372358572317" lon="10.873835547462448"><ele>478.0</ele><time>2026-04-06T17:11:32.999Z</time></trkpt><trkpt lat="44.37362834632473" lon="10.873792901306347"><ele>478.0</ele><time>2026-04-06T17:11:33.999Z</time></trkpt><trkpt lat="44.37352289487442" lon="10.873789213617991"><ele>479.59999999999997</ele><time>2026-04-06T17:11:34.999Z</time></trkpt><trkpt lat="44.373453252543285" lon="10.873742722037353"><ele>481.19999999999993</ele><time>2026-04-06T17:11:36Z</time></trkpt><trkpt lat="44.37334392070164" lon="10.873700870988545"><ele>482.8</ele><time>2026-04-06T17:11:37Z</time></trkpt><trkpt lat="44.37326108291233" lon="10.873664405392201"><ele>484.4</ele><time>2026-04-06T17:11:38Z</time></trkpt><trkpt lat="44.37316244058253" lon="10.87361385761147"><ele>486.0</ele><time>2026-04-06T17:11:39Z</time></trkpt><trkpt lat="44.373064249521235" lon="10.87355548692611"><ele>488.8</ele><time>2026-04-06T17:11:40Z</time></trkpt><trkpt lat="44.37294989343267" lon="10.8735036202851"><ele>491.6</ele><time>2026-04-06T17:11:41Z</time></trkpt><trkpt lat="44.372864032338946" lon="10.873441995757672"><ele>494.4</ele><time>2026-04-06T17:11:42Z</time></trkpt><trkpt lat="44.37276555101834" lon="10.87338126069962"><ele>497.2</ele><time>2026-04-06T17:11:43Z</time></trkpt><trkpt lat="44.372670433899174" lon="10.873329747224059"><ele>500.0</ele><time>2026-04-06T17:11:44Z</time></trkpt><trkpt lat="44.37259925705641" lon="10.873285863621597"><ele>502.0</ele><time>2026-04-06T17:11:45Z</time></trkpt><trkpt lat="44.372528676052724" lon="10.873242145385284"><ele>504.0</ele><time>2026-04-06T17:11:46Z</time></trkpt><trkpt lat="44.37243426819587" lon="10.873187041284606"><ele>506.0</ele><time>2026-04-06T17:11:47Z</time></trkpt><trkpt lat="44.37233081347786" lon="10.873132712891715"><ele>508.0</ele><time>2026-04-06T17:11:48Z</time></trkpt><trkpt lat="44.37222508565899" lon="10.873074003882701"><ele>510.0</ele><time>2026-04-06T17:11:49Z</time></trkpt><trkpt lat="44.37214236287517" lon="10.873021124558807"><ele>513.6</ele><time>2026-04-06T17:11:50Z</time></trkpt><trkpt lat="44.372058497125515" lon="10.87297570521503"><ele>517.2</ele><time>2026-04-06T17:11:51Z</time></trkpt><trkpt lat="44.371968185370626" lon="10.872919073629022"><ele>520.8</ele><time>2026-04-06T17:11:52Z</time></trkpt><trkpt lat="44.371877504247365" lon="10.872871497166603"><ele>524.4</ele><time>2026-04-06T17:11:53Z</time></trkpt><trkpt lat="44.37178800097502" lon="10.872819579273848"><ele>528.0</ele><time>2026-04-06T17:11:54Z</time></trkpt><trkpt lat="44.37172481687388" lon="10.872723099897572"><ele>528.0</ele><time>2026-04-06T17:11:55Z</time></trkpt><trkpt lat="44.37167317682684" lon="10.872625392399941"><ele>528.0</ele><time>2026-04-06T17:11:56Z</time></trkpt><trkpt lat="44.371631502265004" lon="10.87252397440331"><ele>528.0</ele><time>2026-04-06T17:11:57Z</time></trkpt><trkpt lat="44.37157905693648" lon="10.872407074428141"><ele>528.0</ele><time>2026-04-06T17:11:58Z</time></trkpt><trkpt lat="44.37151296098186" lon="10.872286750123415"><ele>528.0</ele><time>2026-04-06T17:11:59Z</time></trkpt><trkpt lat="44.37144817676104" lon="10.872142900937607"><ele>528.6666666666666</ele><time>2026-04-06T17:12:00Z</time></trkpt><trkpt lat="44.37140102815633" lon="10.872031862886413"><ele>529.3333333333334</ele><time>2026-04-06T17:12:01Z</time></trkpt><trkpt lat="44.37135895732411" lon="10.871926778526904"><ele>530.0</ele><time>2026-04-06T17:12:02Z</time></trkpt><trkpt lat="44.37131420091806" lon="10.871834680390098"><ele>530.6666666666667</ele><time>2026-04-06T17:12:03Z</time></trkpt><trkpt lat="44.37126148831755" lon="10.871749479705988"><ele>531.3333333333334</ele><time>2026-04-06T17:12:04Z</time></trkpt><trkpt lat="44.371196995291655" lon="10.87169091416634"><ele>532.0</ele><time>2026-04-06T17:12:05Z</time></trkpt><trkpt lat="44.371126743604734" lon="10.87164276819374"><ele>535.8333333333334</ele><time>2026-04-06T17:12:06Z</time></trkpt><trkpt lat="44.37106487911049" lon="10.871591789534577"><ele>539.6666666666667</ele><time>2026-04-06T17:12:07Z</time></trkpt><trkpt lat="44.371006599267226" lon="10.87146619202065"><ele>543.5</ele><time>2026-04-06T17:12:09Z</time></trkpt><trkpt lat="44.37097278829811" lon="10.871376084412177"><ele>547.3333333333334</ele><time>2026-04-06T17:12:10Z</time></trkpt><trkpt lat="44.37092708822995" lon="10.871301966799491"><ele>551.1666666666666</ele><time>2026-04-06T17:12:11Z</time></trkpt><trkpt lat="44.37085533142734" lon="10.871223780054294"><ele>555.0</ele><time>2026-04-06T17:12:12Z</time></trkpt><trkpt lat="44.370774964794954" lon="10.871153411673337"><ele>555.0</ele><time>2026-04-06T17:12:13Z</time></trkpt><trkpt lat="44.3706984171929" lon="10.871110380769924"><ele>555.0</ele><time>2026-04-06T17:12:14Z</time></trkpt><trkpt lat="44.37061813025127" lon="10.871096739972906"><ele>555.0</ele><time>2026-04-06T17:12:15Z</time></trkpt><trkpt lat="44.370544851103546" lon="10.871129939611658"><ele>555.0</ele><time>2026-04-06T17:12:16Z</time></trkpt><trkpt lat="44.370470139147045" lon="10.87120358934372"><ele>555.0</ele><time>2026-04-06T17:12:17Z</time></trkpt><trkpt lat="44.370375419381745" lon="10.871303871131555"><ele>559.0</ele><time>2026-04-06T17:12:18Z</time></trkpt><trkpt lat="44.370235609762496" lon="10.8713849235331"><ele>563.0</ele><time>2026-04-06T17:12:19Z</time></trkpt><trkpt lat="44.3701078789801" lon="10.871475795051616"><ele>567.0</ele><time>2026-04-06T17:12:20Z</time></trkpt><trkpt lat="44.36999076954363" lon="10.87152826470776"><ele>571.0</ele><time>2026-04-06T17:12:21Z</time></trkpt><trkpt lat="44.36990441240281" lon="10.871520491861842"><ele>571.0</ele><time>2026-04-06T17:12:22Z</time></trkpt><trkpt lat="44.36983061403908" lon="10.871473915781833"><ele>571.0</ele><time>2026-04-06T17:12:23Z</time></trkpt><trkpt lat="44.36973433893082" lon="10.871437706513404"><ele>571.0</ele><time>2026-04-06T17:12:24Z</time></trkpt><trkpt lat="44.36961063988574" lon="10.87141732205771"><ele>571.0</ele><time>2026-04-06T17:12:25Z</time></trkpt><trkpt lat="44.369528452094826" lon="10.871397224590815"><ele>571.0</ele><time>2026-04-06T17:12:26Z</time></trkpt><trkpt lat="44.36943536493939" lon="10.871432579140823"><ele>573.6</ele><time>2026-04-06T17:12:28Z</time></trkpt><trkpt lat="44.36940263020728" lon="10.871508943603644"><ele>576.2</ele><time>2026-04-06T17:12:29Z</time></trkpt><trkpt lat="44.36943776474408" lon="10.871658510896347"><ele>578.8</ele><time>2026-04-06T17:12:30Z</time></trkpt><trkpt lat="44.369486625280736" lon="10.871791338385382"><ele>581.4</ele><time>2026-04-06T17:12:31Z</time></trkpt><trkpt lat="44.36955805801308" lon="10.871908364117457"><ele>584.0</ele><time>2026-04-06T17:12:32Z</time></trkpt><trkpt lat="44.36966095253456" lon="10.87198758446865"><ele>583.0</ele><time>2026-04-06T17:12:33Z</time></trkpt><trkpt lat="44.369794904101205" lon="10.872057061373493"><ele>582.0</ele><time>2026-04-06T17:12:34Z</time></trkpt><trkpt lat="44.36990589965434" lon="10.872121151080977"><ele>581.0</ele><time>2026-04-06T17:12:35Z</time></trkpt><trkpt lat="44.36997793115273" lon="10.872171807783069"><ele>580.0</ele><time>2026-04-06T17:12:36Z</time></trkpt><trkpt lat="44.37002910200544" lon="10.872247178592103"><ele>579.0</ele><time>2026-04-06T17:12:37Z</time></trkpt><trkpt lat="44.37007181262727" lon="10.87238853127644"><ele>579.0</ele><time>2026-04-06T17:12:39Z</time></trkpt><trkpt lat="44.3700326788558" lon="10.872467272255415"><ele>579.0</ele><time>2026-04-06T17:12:40Z</time></trkpt><trkpt lat="44.36997757568187" lon="10.872518798420113"><ele>579.0</ele><time>2026-04-06T17:12:41Z</time></trkpt><trkpt lat="44.36991076905067" lon="10.872544345285533"><ele>579.0</ele><time>2026-04-06T17:12:42Z</time></trkpt><trkpt lat="44.36982997812355" lon="10.872619532452571"><ele>579.0</ele><time>2026-04-06T17:12:43Z</time></trkpt><trkpt lat="44.36973403142504" lon="10.87272304177294"><ele>579.0</ele><time>2026-04-06T17:12:44Z</time></trkpt><trkpt lat="44.36965169222742" lon="10.872768810038146"><ele>579.0</ele><time>2026-04-06T17:12:45Z</time></trkpt><trkpt lat="44.369586115309666" lon="10.872793094501592"><ele>579.0</ele><time>2026-04-06T17:12:46Z</time></trkpt><trkpt lat="44.369526457963616" lon="10.872747524340548"><ele>579.0</ele><time>2026-04-06T17:12:47Z</time></trkpt><trkpt lat="44.36946407601597" lon="10.872687038685944"><ele>579.0</ele><time>2026-04-06T17:12:48Z</time></trkpt><trkpt lat="44.369406055622775" lon="10.872587535951576"><ele>579.0</ele><time>2026-04-06T17:12:49Z</time></trkpt><trkpt lat="44.36932694418176" lon="10.87251773832592"><ele>579.0</ele><time>2026-04-06T17:12:50Z</time></trkpt><trkpt lat="44.369228204581674" lon="10.872480129889476"><ele>581.0</ele><time>2026-04-06T17:12:51Z</time></trkpt><trkpt lat="44.36913406689554" lon="10.872448435487266"><ele>583.0</ele><time>2026-04-06T17:12:52Z</time></trkpt><trkpt lat="44.36902929714546" lon="10.87243689779949"><ele>585.0</ele><time>2026-04-06T17:12:52.999Z</time></trkpt><trkpt lat="44.368914997653924" lon="10.872435488948524"><ele>587.0</ele><time>2026-04-06T17:12:53.999Z</time></trkpt><trkpt lat="44.36881763577295" lon="10.872424980194134"><ele>589.0</ele><time>2026-04-06T17:12:54.999Z</time></trkpt><trkpt lat="44.36871789326192" lon="10.872405410860694"><ele>589.75</ele><time>2026-04-06T17:12:55.999Z</time></trkpt><trkpt lat="44.36861416722681" lon="10.872385043427876"><ele>590.5</ele><time>2026-04-06T17:12:56.999Z</time></trkpt><trkpt lat="44.36849091027626" lon="10.872341228885821"><ele>591.25</ele><time>2026-04-06T17:12:57.999Z</time></trkpt><trkpt lat="44.36835235383223" lon="10.872293853855414"><ele>592.0</ele><time>2026-04-06T17:12:58.999Z</time></trkpt><trkpt lat="44.36820465548607" lon="10.872235078174938"><ele>592.0</ele><time>2026-04-06T17:12:59.999Z</time></trkpt><trkpt lat="44.36806883336451" lon="10.872143739739677"><ele>592.0</ele><time>2026-04-06T17:13:00.999Z</time></trkpt><trkpt lat="44.36793721010883" lon="10.872073446930402"><ele>592.0</ele><time>2026-04-06T17:13:01.999Z</time></trkpt><trkpt lat="44.367815452199714" lon="10.872035272069837"><ele>592.0</ele><time>2026-04-06T17:13:02.999Z</time></trkpt><trkpt lat="44.36769514396645" lon="10.871984599283737"><ele>594.3333333333334</ele><time>2026-04-06T17:13:03.999Z</time></trkpt><trkpt lat="44.367533999887165" lon="10.871956786976822"><ele>596.6666666666666</ele><time>2026-04-06T17:13:04.999Z</time></trkpt><trkpt lat="44.367357430171076" lon="10.871926279778796"><ele>599.0</ele><time>2026-04-06T17:13:05.999Z</time></trkpt><trkpt lat="44.36717712418327" lon="10.871885382992621"><ele>600.3333333333333</ele><time>2026-04-06T17:13:06.999Z</time></trkpt><trkpt lat="44.36701532780203" lon="10.871852946364461"><ele>601.6666666666666</ele><time>2026-04-06T17:13:07.999Z</time></trkpt><trkpt lat="44.36686539826404" lon="10.871846996877522"><ele>603.0</ele><time>2026-04-06T17:13:08.999Z</time></trkpt><trkpt lat="44.36671048450462" lon="10.871887348893251"><ele>603.0</ele><time>2026-04-06T17:13:09.999Z</time></trkpt><trkpt lat="44.366560337875114" lon="10.87194265391692"><ele>603.0</ele><time>2026-04-06T17:13:10.999Z</time></trkpt><trkpt lat="44.366417314944016" lon="10.871939818005057"><ele>603.0</ele><time>2026-04-06T17:13:11.999Z</time></trkpt><trkpt lat="44.36628166587818" lon="10.871917995922553"><ele>603.0</ele><time>2026-04-06T17:13:12.999Z</time></trkpt><trkpt lat="44.366147250512256" lon="10.871906518732883"><ele>605.6</ele><time>2026-04-06T17:13:13.999Z</time></trkpt><trkpt lat="44.366018965594414" lon="10.871882565741469"><ele>608.1999999999999</ele><time>2026-04-06T17:13:14.999Z</time></trkpt><trkpt lat="44.36590702006427" lon="10.871859547476397"><ele>610.8</ele><time>2026-04-06T17:13:15.999Z</time></trkpt><trkpt lat="44.365817645633555" lon="10.871814524096832"><ele>613.4</ele><time>2026-04-06T17:13:16.999Z</time></trkpt><trkpt lat="44.365751522625764" lon="10.871793638311718"><ele>616.0</ele><time>2026-04-06T17:13:17.999Z</time></trkpt><trkpt lat="44.365677390263805" lon="10.871776249208443"><ele>617.25</ele><time>2026-04-06T17:13:18.999Z</time></trkpt><trkpt lat="44.365611407650064" lon="10.871714582706094"><ele>618.5</ele><time>2026-04-06T17:13:19.999Z</time></trkpt><trkpt lat="44.36554325364206" lon="10.871680046020668"><ele>619.75</ele><time>2026-04-06T17:13:20.999Z</time></trkpt><trkpt lat="44.36551152449212" lon="10.871461323387058"><ele>621.0</ele><time>2026-04-06T17:13:21.999Z</time></trkpt><trkpt lat="44.36546355818248" lon="10.871257838729033"><ele>621.0</ele><time>2026-04-06T17:13:22.999Z</time></trkpt><trkpt lat="44.36541951651834" lon="10.871021809202762"><ele>621.0</ele><time>2026-04-06T17:13:23.999Z</time></trkpt><trkpt lat="44.365366633424415" lon="10.870756813506441"><ele>621.0</ele><time>2026-04-06T17:13:24.999Z</time></trkpt><trkpt lat="44.36530248794625" lon="10.870493633283418"><ele>622.3333333333334</ele><time>2026-04-06T17:13:25.999Z</time></trkpt><trkpt lat="44.36521595627686" lon="10.8702538460913"><ele>623.6666666666667</ele><time>2026-04-06T17:13:26.999Z</time></trkpt><trkpt lat="44.36511826989445" lon="10.870056519243619"><ele>625.0</ele><time>2026-04-06T17:13:27.999Z</time></trkpt><trkpt lat="44.365027044317976" lon="10.86988102457332"><ele>625.0</ele><time>2026-04-06T17:13:28.999Z</time></trkpt><trkpt lat="44.36496768257824" lon="10.869672310317423"><ele>625.0</ele><time>2026-04-06T17:13:29.999Z</time></trkpt><trkpt lat="44.36497300061458" lon="10.869439699451332"><ele>625.0</ele><time>2026-04-06T17:13:30.999Z</time></trkpt><trkpt lat="44.364949527867935" lon="10.869139146841627"><ele>625.0</ele><time>2026-04-06T17:13:31.999Z</time></trkpt><trkpt lat="44.364954205359595" lon="10.868827873719042"><ele>625.0</ele><time>2026-04-06T17:13:32.999Z</time></trkpt><trkpt lat="44.364949064679735" lon="10.868502804841981"><ele>626.0</ele><time>2026-04-06T17:13:33.999Z</time></trkpt><trkpt lat="44.364943455867035" lon="10.868208324097322"><ele>627.0</ele><time>2026-04-06T17:13:34.999Z</time></trkpt><trkpt lat="44.364952863932665" lon="10.867955141478726"><ele>628.0</ele><time>2026-04-06T17:13:35.999Z</time></trkpt><trkpt lat="44.36498538415665" lon="10.86771989600466"><ele>630.0</ele><time>2026-04-06T17:13:36.999Z</time></trkpt><trkpt lat="44.365021045446696" lon="10.867483110764452"><ele>632.0</ele><time>2026-04-06T17:13:37.999Z</time></trkpt><trkpt lat="44.36504991002964" lon="10.867299895671248"><ele>634.0</ele><time>2026-04-06T17:13:38.999Z</time></trkpt><trkpt lat="44.36507733966253" lon="10.867124065988317"><ele>636.0</ele><time>2026-04-06T17:13:39.999Z</time></trkpt><trkpt lat="44.365107725976145" lon="10.866979195724573"><ele>636.0</ele><time>2026-04-06T17:13:40.999Z</time></trkpt><trkpt lat="44.36513250055627" lon="10.866877126270147"><ele>636.0</ele><time>2026-04-06T17:13:42Z</time></trkpt><trkpt lat="44.364978823187094" lon="10.866776753982036"><ele>636.0</ele><time>2026-04-06T17:13:46Z</time></trkpt><trkpt lat="44.364868077207674" lon="10.866786049659257"><ele>636.0</ele><time>2026-04-06T17:13:47Z</time></trkpt><trkpt lat="44.364739773872955" lon="10.866753151589934"><ele>638.0</ele><time>2026-04-06T17:13:48Z</time></trkpt><trkpt lat="44.36459851290814" lon="10.866737786964487"><ele>640.0</ele><time>2026-04-06T17:13:49Z</time></trkpt><trkpt lat="44.3644569849113" lon="10.866718439996731"><ele>642.0</ele><time>2026-04-06T17:13:50Z</time></trkpt><trkpt lat="44.3643374427333" lon="10.866704649583765"><ele>644.0</ele><time>2026-04-06T17:13:51Z</time></trkpt><trkpt lat="44.364223825515275" lon="10.866698182500262"><ele>644.0</ele><time>2026-04-06T17:13:52Z</time></trkpt><trkpt lat="44.36411019359735" lon="10.866705632958029"><ele>644.0</ele><time>2026-04-06T17:13:53Z</time></trkpt><trkpt lat="44.3640023939818" lon="10.866740010877828"><ele>644.0</ele><time>2026-04-06T17:13:54Z</time></trkpt><trkpt lat="44.363899565139256" lon="10.866793640266035"><ele>644.0</ele><time>2026-04-06T17:13:55Z</time></trkpt><trkpt lat="44.36379153345947" lon="10.866865077720021"><ele>640.2</ele><time>2026-04-06T17:13:56Z</time></trkpt><trkpt lat="44.36369142428181" lon="10.866947861772768"><ele>636.4000000000001</ele><time>2026-04-06T17:13:57Z</time></trkpt><trkpt lat="44.363590549129604" lon="10.866992661851077"><ele>632.6</ele><time>2026-04-06T17:13:58Z</time></trkpt><trkpt lat="44.3635114396747" lon="10.867031847395756"><ele>628.8</ele><time>2026-04-06T17:13:59Z</time></trkpt><trkpt lat="44.363423724014" lon="10.867049982908124"><ele>625.0</ele><time>2026-04-06T17:14:00Z</time></trkpt><trkpt lat="44.3633333122266" lon="10.86704579519973"><ele>625.0</ele><time>2026-04-06T17:14:01Z</time></trkpt><trkpt lat="44.36322725266204" lon="10.867027094921088"><ele>625.0</ele><time>2026-04-06T17:14:02Z</time></trkpt><trkpt lat="44.363105203274955" lon="10.867004692401421"><ele>625.0</ele><time>2026-04-06T17:14:03Z</time></trkpt><trkpt lat="44.36298256770826" lon="10.866986117804727"><ele>625.0</ele><time>2026-04-06T17:14:04Z</time></trkpt><trkpt lat="44.36287080030248" lon="10.866973602349569"><ele>625.5</ele><time>2026-04-06T17:14:05Z</time></trkpt><trkpt lat="44.3627664140841" lon="10.866956149437858"><ele>626.0</ele><time>2026-04-06T17:14:06Z</time></trkpt><trkpt lat="44.362657183748674" lon="10.866941879369202"><ele>626.5</ele><time>2026-04-06T17:14:07Z</time></trkpt><trkpt lat="44.362529809361156" lon="10.866942621784748"><ele>627.0</ele><time>2026-04-06T17:14:08Z</time></trkpt><trkpt lat="44.36240238825179" lon="10.866961180611153"><ele>627.0</ele><time>2026-04-06T17:14:09Z</time></trkpt><trkpt lat="44.36230231592446" lon="10.866956838152541"><ele>627.0</ele><time>2026-04-06T17:14:10Z</time></trkpt><trkpt lat="44.36221300726098" lon="10.866975114772075"><ele>627.0</ele><time>2026-04-06T17:14:11Z</time></trkpt><trkpt lat="44.36210821717916" lon="10.866999069733485"><ele>627.0</ele><time>2026-04-06T17:14:12Z</time></trkpt><trkpt lat="44.36198687547424" lon="10.8670268083869"><ele>627.0</ele><time>2026-04-06T17:14:13Z</time></trkpt><trkpt lat="44.361867634714535" lon="10.867055074446332"><ele>627.0</ele><time>2026-04-06T17:14:14Z</time></trkpt><trkpt lat="44.36173979744305" lon="10.867086167980032"><ele>627.0</ele><time>2026-04-06T17:14:15Z</time></trkpt><trkpt lat="44.36162238000738" lon="10.86711472712057"><ele>627.0</ele><time>2026-04-06T17:14:16Z</time></trkpt><trkpt lat="44.36150561053812" lon="10.867149359919496"><ele>627.0</ele><time>2026-04-06T17:14:17Z</time></trkpt><trkpt lat="44.36138911045885" lon="10.8671769803438"><ele>626.4</ele><time>2026-04-06T17:14:18Z</time></trkpt><trkpt lat="44.36128340647292" lon="10.867194758230559"><ele>625.8000000000001</ele><time>2026-04-06T17:14:19Z</time></trkpt><trkpt lat="44.36116924116143" lon="10.867203766644366"><ele>625.2</ele><time>2026-04-06T17:14:20Z</time></trkpt><trkpt lat="44.36106654268229" lon="10.867200930110071"><ele>624.6</ele><time>2026-04-06T17:14:21Z</time></trkpt><trkpt lat="44.36095933205706" lon="10.867217208663"><ele>624.0</ele><time>2026-04-06T17:14:22Z</time></trkpt><trkpt lat="44.36085270659722" lon="10.867226788859119"><ele>624.0</ele><time>2026-04-06T17:14:23Z</time></trkpt><trkpt lat="44.36075000106398" lon="10.867218891187717"><ele>624.0</ele><time>2026-04-06T17:14:24Z</time></trkpt><trkpt lat="44.3606436834018" lon="10.867270121194185"><ele>624.0</ele><time>2026-04-06T17:14:25Z</time></trkpt><trkpt lat="44.36052893762597" lon="10.867264458335184"><ele>624.0</ele><time>2026-04-06T17:14:26Z</time></trkpt><trkpt lat="44.36043459295055" lon="10.86726074893463"><ele>624.0</ele><time>2026-04-06T17:14:27Z</time></trkpt><trkpt lat="44.360335825061654" lon="10.86722609469735"><ele>622.6</ele><time>2026-04-06T17:14:28Z</time></trkpt><trkpt lat="44.360254525695105" lon="10.8671998638549"><ele>621.2</ele><time>2026-04-06T17:14:29Z</time></trkpt><trkpt lat="44.360148171017045" lon="10.867144325320126"><ele>619.8000000000001</ele><time>2026-04-06T17:14:30Z</time></trkpt><trkpt lat="44.360045705208385" lon="10.867113520993643"><ele>618.4</ele><time>2026-04-06T17:14:31Z</time></trkpt><trkpt lat="44.359928564182226" lon="10.867160691647237"><ele>617.0</ele><time>2026-04-06T17:14:32Z</time></trkpt><trkpt lat="44.35981281726363" lon="10.867233225616433"><ele>623.25</ele><time>2026-04-06T17:14:33Z</time></trkpt><trkpt lat="44.35969841914973" lon="10.867329447497129"><ele>629.5</ele><time>2026-04-06T17:14:34Z</time></trkpt><trkpt lat="44.35956223620662" lon="10.867400331967046"><ele>635.75</ele><time>2026-04-06T17:14:35Z</time></trkpt><trkpt lat="44.35942443828565" lon="10.867496275328604"><ele>642.0</ele><time>2026-04-06T17:14:36Z</time></trkpt><trkpt lat="44.35928871321911" lon="10.867588306768777"><ele>632.75</ele><time>2026-04-06T17:14:37Z</time></trkpt><trkpt lat="44.359169813809046" lon="10.867675359604071"><ele>623.5</ele><time>2026-04-06T17:14:38Z</time></trkpt><trkpt lat="44.35905672428407" lon="10.86777716861259"><ele>614.25</ele><time>2026-04-06T17:14:39Z</time></trkpt><trkpt lat="44.3589573590774" lon="10.8678965920408"><ele>605.0</ele><time>2026-04-06T17:14:40Z</time></trkpt><trkpt lat="44.35886979199822" lon="10.867994445539875"><ele>610.0</ele><time>2026-04-06T17:14:41Z</time></trkpt><trkpt lat="44.35877740112927" lon="10.868076662169619"><ele>615.0</ele><time>2026-04-06T17:14:42Z</time></trkpt><trkpt lat="44.35868808278353" lon="10.868152066324823"><ele>620.0</ele><time>2026-04-06T17:14:43Z</time></trkpt><trkpt lat="44.35859971815221" lon="10.868230040163068"><ele>625.0</ele><time>2026-04-06T17:14:44Z</time></trkpt><trkpt lat="44.35851840235087" lon="10.868317469795612"><ele>630.0</ele><time>2026-04-06T17:14:45Z</time></trkpt><trkpt lat="44.35845202050504" lon="10.868398904054773"><ele>627.6</ele><time>2026-04-06T17:14:46Z</time></trkpt><trkpt lat="44.35832042116249" lon="10.868550550699858"><ele>625.2</ele><time>2026-04-06T17:14:48Z</time></trkpt><trkpt lat="44.358247452758064" lon="10.868616764502734"><ele>622.8</ele><time>2026-04-06T17:14:49Z</time></trkpt><trkpt lat="44.358171661733245" lon="10.86866366532632"><ele>620.4</ele><time>2026-04-06T17:14:50Z</time></trkpt><trkpt lat="44.358089696437595" lon="10.868720333857976"><ele>618.0</ele><time>2026-04-06T17:14:51Z</time></trkpt><trkpt lat="44.35800429157395" lon="10.868782505645504"><ele>618.0</ele><time>2026-04-06T17:14:52Z</time></trkpt><trkpt lat="44.35793192297512" lon="10.868854173759795"><ele>618.0</ele><time>2026-04-06T17:14:53Z</time></trkpt><trkpt lat="44.357871146471496" lon="10.868941353922231"><ele>618.0</ele><time>2026-04-06T17:14:54Z</time></trkpt><trkpt lat="44.35781466464743" lon="10.86903431761205"><ele>618.0</ele><time>2026-04-06T17:14:54.999Z</time></trkpt><trkpt lat="44.35778097349224" lon="10.869147023383016"><ele>618.0</ele><time>2026-04-06T17:14:55.999Z</time></trkpt><trkpt lat="44.35778008028036" lon="10.869274942260125"><ele>618.0</ele><time>2026-04-06T17:14:56.999Z</time></trkpt><trkpt lat="44.35779722173707" lon="10.869426447873783"><ele>614.0</ele><time>2026-04-06T17:14:57.999Z</time></trkpt><trkpt lat="44.35778517631761" lon="10.869559249266338"><ele>610.0</ele><time>2026-04-06T17:14:58.999Z</time></trkpt><trkpt lat="44.3577755822558" lon="10.86965243432739"><ele>606.0</ele><time>2026-04-06T17:14:59.999Z</time></trkpt><trkpt lat="44.35772973969579" lon="10.869760683725898"><ele>602.0</ele><time>2026-04-06T17:15:01.999Z</time></trkpt><trkpt lat="44.35764732275116" lon="10.869764404322314"><ele>598.0</ele><time>2026-04-06T17:15:02.999Z</time></trkpt><trkpt lat="44.35756117651515" lon="10.869803021029252"><ele>594.0</ele><time>2026-04-06T17:15:03.999Z</time></trkpt><trkpt lat="44.357475159786695" lon="10.869856561311895"><ele>594.0</ele><time>2026-04-06T17:15:04.999Z</time></trkpt><trkpt lat="44.35738966338511" lon="10.869926285378783"><ele>594.0</ele><time>2026-04-06T17:15:05.999Z</time></trkpt><trkpt lat="44.35731328788388" lon="10.86998633030928"><ele>594.0</ele><time>2026-04-06T17:15:06.999Z</time></trkpt><trkpt lat="44.35724959812325" lon="10.87002659254265"><ele>594.0</ele><time>2026-04-06T17:15:07.999Z</time></trkpt><trkpt lat="44.357186987872794" lon="10.87004141501539"><ele>594.0</ele><time>2026-04-06T17:15:08.999Z</time></trkpt><trkpt lat="44.35710911514329" lon="10.870037251413141"><ele>594.0</ele><time>2026-04-06T17:15:09.999Z</time></trkpt><trkpt lat="44.357007376700096" lon="10.87004978662188"><ele>595.0</ele><time>2026-04-06T17:15:10.999Z</time></trkpt><trkpt lat="44.35689125386367" lon="10.869994850001875"><ele>596.0</ele><time>2026-04-06T17:15:11.999Z</time></trkpt><trkpt lat="44.35678436766736" lon="10.86997146889596"><ele>597.0</ele><time>2026-04-06T17:15:12.999Z</time></trkpt><trkpt lat="44.35668490601402" lon="10.86996650158335"><ele>598.0</ele><time>2026-04-06T17:15:13.999Z</time></trkpt><trkpt lat="44.35658336941241" lon="10.86997609712216"><ele>599.0</ele><time>2026-04-06T17:15:14.999Z</time></trkpt><trkpt lat="44.356504154278895" lon="10.870009824486049"><ele>599.0</ele><time>2026-04-06T17:15:15.999Z</time></trkpt><trkpt lat="44.35640661081715" lon="10.870026116671513"><ele>599.0</ele><time>2026-04-06T17:15:17.999Z</time></trkpt><trkpt lat="44.356306821428994" lon="10.870104713098629"><ele>599.0</ele><time>2026-04-06T17:15:19.999Z</time></trkpt><trkpt lat="44.35614599476908" lon="10.87032718401162"><ele>599.0</ele><time>2026-04-06T17:15:21.999Z</time></trkpt><trkpt lat="44.356024656773315" lon="10.870360206269778"><ele>598.8</ele><time>2026-04-06T17:15:22.999Z</time></trkpt><trkpt lat="44.35590907883281" lon="10.870387136086679"><ele>598.5999999999999</ele><time>2026-04-06T17:15:24.999Z</time></trkpt><trkpt lat="44.35580220208395" lon="10.870415822916113"><ele>598.4</ele><time>2026-04-06T17:15:26.999Z</time></trkpt><trkpt lat="44.35573937228745" lon="10.870432753802096"><ele>598.1999999999999</ele><time>2026-04-06T17:15:27.999Z</time></trkpt><trkpt lat="44.35562179809247" lon="10.87046443674366"><ele>598.0</ele><time>2026-04-06T17:15:29.999Z</time></trkpt><trkpt lat="44.355411957865016" lon="10.869934660444775"><ele>598.0</ele><time>2026-04-06T17:15:31.999Z</time></trkpt><trkpt lat="44.35533923988877" lon="10.86993729423986"><ele>598.0</ele><time>2026-04-06T17:15:32.999Z</time></trkpt><trkpt lat="44.35525715839518" lon="10.869955437771683"><ele>598.0</ele><time>2026-04-06T17:15:33.999Z</time></trkpt><trkpt lat="44.35517992465589" lon="10.869953321816928"><ele>598.0</ele><time>2026-04-06T17:15:34.999Z</time></trkpt><trkpt lat="44.35511336547647" lon="10.869943572368436"><ele>598.0</ele><time>2026-04-06T17:15:35.999Z</time></trkpt><trkpt lat="44.35499535695568" lon="10.86999434537402"><ele>598.0</ele><time>2026-04-06T17:15:37.999Z</time></trkpt><trkpt lat="44.35493706886477" lon="10.870086636267017"><ele>593.1999999999999</ele><time>2026-04-06T17:15:38.999Z</time></trkpt><trkpt lat="44.35487354519103" lon="10.87015942010536"><ele>588.4</ele><time>2026-04-06T17:15:39.999Z</time></trkpt><trkpt lat="44.35481253148876" lon="10.870232378669195"><ele>583.5999999999999</ele><time>2026-04-06T17:15:40.999Z</time></trkpt><trkpt lat="44.35474023218408" lon="10.870344203191824"><ele>578.8</ele><time>2026-04-06T17:15:42.999Z</time></trkpt><trkpt lat="44.35474477146061" lon="10.870497285830675"><ele>574.0</ele><time>2026-04-06T17:15:44.999Z</time></trkpt><trkpt lat="44.354697364687524" lon="10.870676857074514"><ele>573.4285714285714</ele><time>2026-04-06T17:15:46.999Z</time></trkpt><trkpt lat="44.35466552877064" lon="10.870755188889559"><ele>572.8571428571429</ele><time>2026-04-06T17:15:48Z</time></trkpt><trkpt lat="44.35463201482407" lon="10.870849831687078"><ele>572.2857142857142</ele><time>2026-04-06T17:15:49Z</time></trkpt><trkpt lat="44.354591421939915" lon="10.870924424000417"><ele>571.7142857142858</ele><time>2026-04-06T17:15:50Z</time></trkpt><trkpt lat="44.354543235419115" lon="10.870991937827"><ele>571.1428571428571</ele><time>2026-04-06T17:15:51Z</time></trkpt><trkpt lat="44.3544964017863" lon="10.8710511945594"><ele>570.5714285714286</ele><time>2026-04-06T17:15:52Z</time></trkpt><trkpt lat="44.354443135639535" lon="10.87110861280925"><ele>570.0</ele><time>2026-04-06T17:15:53Z</time></trkpt><trkpt lat="44.35435572343237" lon="10.87122266364419"><ele>567.2</ele><time>2026-04-06T17:15:55Z</time></trkpt><trkpt lat="44.354320643074665" lon="10.871354406670424"><ele>564.4</ele><time>2026-04-06T17:15:57Z</time></trkpt><trkpt lat="44.35423751316743" lon="10.871393959082557"><ele>561.6</ele><time>2026-04-06T17:16:00Z</time></trkpt><trkpt lat="44.35419609529726" lon="10.87126040106596"><ele>558.8</ele><time>2026-04-06T17:16:02Z</time></trkpt><trkpt lat="44.35415986424968" lon="10.871137854336931"><ele>556.0</ele><time>2026-04-06T17:16:04Z</time></trkpt><trkpt lat="44.35408505168367" lon="10.871079301683572"><ele>556.0</ele><time>2026-04-06T17:16:06Z</time></trkpt><trkpt lat="44.35402649515815" lon="10.87104226555919"><ele>556.0</ele><time>2026-04-06T17:16:07Z</time></trkpt><trkpt lat="44.35398170889549" lon="10.870978154797198"><ele>556.0</ele><time>2026-04-06T17:16:08Z</time></trkpt><trkpt lat="44.35390392629652" lon="10.87086023194186"><ele>556.0</ele><time>2026-04-06T17:16:10Z</time></trkpt><trkpt lat="44.353822782861805" lon="10.870793668509721"><ele>556.0</ele><time>2026-04-06T17:16:12Z</time></trkpt><trkpt lat="44.35373985935853" lon="10.87079861456704"><ele>556.0</ele><time>2026-04-06T17:16:14Z</time></trkpt><trkpt lat="44.35367842068406" lon="10.870890140377412"><ele>552.4</ele><time>2026-04-06T17:16:16Z</time></trkpt><trkpt lat="44.35368570769693" lon="10.871014288088206"><ele>548.8</ele><time>2026-04-06T17:16:18Z</time></trkpt><trkpt lat="44.35364608604503" lon="10.871112113001773"><ele>545.1999999999999</ele><time>2026-04-06T17:16:20Z</time></trkpt><trkpt lat="44.35356251881485" lon="10.871169525881294"><ele>541.6</ele><time>2026-04-06T17:16:22Z</time></trkpt><trkpt lat="44.35349855095557" lon="10.871254943948523"><ele>538.0</ele><time>2026-04-06T17:16:24Z</time></trkpt><trkpt lat="44.353427978541674" lon="10.871364258494072"><ele>538.0</ele><time>2026-04-06T17:16:26Z</time></trkpt><trkpt lat="44.35343780335561" lon="10.871483887241315"><ele>538.0</ele><time>2026-04-06T17:16:28Z</time></trkpt><trkpt lat="44.35350576869596" lon="10.871569922682282"><ele>538.0</ele><time>2026-04-06T17:16:30Z</time></trkpt><trkpt lat="44.35351527083606" lon="10.871701517496193"><ele>538.0</ele><time>2026-04-06T17:16:32Z</time></trkpt><trkpt lat="44.353538237372604" lon="10.871814583488701"><ele>538.0</ele><time>2026-04-06T17:16:34Z</time></trkpt><trkpt lat="44.35355883303513" lon="10.871973059054874"><ele>535.8333333333334</ele><time>2026-04-06T17:16:36Z</time></trkpt><trkpt lat="44.35356925119059" lon="10.872118048588517"><ele>533.6666666666667</ele><time>2026-04-06T17:16:38Z</time></trkpt><trkpt lat="44.35355915235641" lon="10.872259421890474"><ele>531.5</ele><time>2026-04-06T17:16:40Z</time></trkpt><trkpt lat="44.35353384003021" lon="10.872353285681996"><ele>529.3333333333334</ele><time>2026-04-06T17:16:42Z</time></trkpt><trkpt lat="44.35347827705337" lon="10.872432862401276"><ele>527.1666666666666</ele><time>2026-04-06T17:16:44Z</time></trkpt><trkpt lat="44.35342911649395" lon="10.87250672503703"><ele>525.0</ele><time>2026-04-06T17:16:46Z</time></trkpt><trkpt lat="44.35335007457661" lon="10.872526913658067"><ele>525.0</ele><time>2026-04-06T17:16:48Z</time></trkpt><trkpt lat="44.35324676479282" lon="10.872532666444622"><ele>525.0</ele><time>2026-04-06T17:16:50Z</time></trkpt><trkpt lat="44.35315406067686" lon="10.872561262323211"><ele>525.0</ele><time>2026-04-06T17:16:52Z</time></trkpt><trkpt lat="44.35307534750247" lon="10.8726106977941"><ele>525.0</ele><time>2026-04-06T17:16:54Z</time></trkpt><trkpt lat="44.35300637604211" lon="10.872685574901356"><ele>525.0</ele><time>2026-04-06T17:16:57Z</time></trkpt><trkpt lat="44.35300606044793" lon="10.872796847687907"><ele>523.5714285714286</ele><time>2026-04-06T17:16:58.999Z</time></trkpt><trkpt lat="44.353013124350845" lon="10.872896868123803"><ele>522.1428571428571</ele><time>2026-04-06T17:17:00.999Z</time></trkpt><trkpt lat="44.352963061600896" lon="10.872977127326426"><ele>520.7142857142858</ele><time>2026-04-06T17:17:02.999Z</time></trkpt><trkpt lat="44.352892265662135" lon="10.872993793131053"><ele>519.2857142857142</ele><time>2026-04-06T17:17:04.999Z</time></trkpt><trkpt lat="44.352824717346174" lon="10.872980090175503"><ele>517.8571428571429</ele><time>2026-04-06T17:17:06.999Z</time></trkpt><trkpt lat="44.3527594985175" lon="10.87289436785751"><ele>516.4285714285714</ele><time>2026-04-06T17:17:09.999Z</time></trkpt><trkpt lat="44.352694071019606" lon="10.872935835870896"><ele>515.0</ele><time>2026-04-06T17:17:12.999Z</time></trkpt><trkpt lat="44.35269327233786" lon="10.873059137484368"><ele>515.0</ele><time>2026-04-06T17:17:14.999Z</time></trkpt><trkpt lat="44.35270192613233" lon="10.873150219482154"><ele>515.0</ele><time>2026-04-06T17:17:16.999Z</time></trkpt><trkpt lat="44.352776557316" lon="10.873263200821865"><ele>515.0</ele><time>2026-04-06T17:17:18.999Z</time></trkpt><trkpt lat="44.35284197290265" lon="10.873342540427634"><ele>515.0</ele><time>2026-04-06T17:17:20.999Z</time></trkpt><trkpt lat="44.35284520273596" lon="10.873451590663779"><ele>515.0</ele><time>2026-04-06T17:17:22.999Z</time></trkpt><trkpt lat="44.35284038468696" lon="10.873543873721744"><ele>515.0</ele><time>2026-04-06T17:17:23.999Z</time></trkpt><trkpt lat="44.35282193722979" lon="10.87365826997407"><ele>514.4</ele><time>2026-04-06T17:17:25.999Z</time></trkpt><trkpt lat="44.35275388495461" lon="10.873773879549136"><ele>513.8</ele><time>2026-04-06T17:17:27.999Z</time></trkpt><trkpt lat="44.35269729146679" lon="10.873852017572295"><ele>513.2</ele><time>2026-04-06T17:17:30.999Z</time></trkpt><trkpt lat="44.352682936535764" lon="10.873951087933227"><ele>512.6</ele><time>2026-04-06T17:17:33.999Z</time></trkpt><trkpt lat="44.35273126393845" lon="10.874094916467637"><ele>512.0</ele><time>2026-04-06T17:17:36.999Z</time></trkpt><trkpt lat="44.35275238736987" lon="10.874212989231033"><ele>511.8</ele><time>2026-04-06T17:17:38.999Z</time></trkpt><trkpt lat="44.3527376625289" lon="10.87433689837903"><ele>511.6</ele><time>2026-04-06T17:17:40.999Z</time></trkpt><trkpt lat="44.352723961276766" lon="10.874478668969639"><ele>511.40000000000003</ele><time>2026-04-06T17:17:42.999Z</time></trkpt><trkpt lat="44.35272557509659" lon="10.874592770405858"><ele>511.20000000000005</ele><time>2026-04-06T17:17:44.999Z</time></trkpt><trkpt lat="44.35269897693209" lon="10.874688543788027"><ele>511.0</ele><time>2026-04-06T17:17:46.999Z</time></trkpt><trkpt lat="44.35259287593771" lon="10.874707281049668"><ele>511.0</ele><time>2026-04-06T17:17:48.999Z</time></trkpt><trkpt lat="44.35256855925136" lon="10.874818576191876"><ele>511.0</ele><time>2026-04-06T17:17:50.999Z</time></trkpt><trkpt lat="44.3525741743344" lon="10.874959879809053"><ele>511.0</ele><time>2026-04-06T17:17:52.999Z</time></trkpt><trkpt lat="44.35255469366971" lon="10.875124515634795"><ele>511.0</ele><time>2026-04-06T17:17:55Z</time></trkpt><trkpt lat="44.35256748730772" lon="10.875238640057153"><ele>511.0</ele><time>2026-04-06T17:17:57Z</time></trkpt><trkpt lat="44.35256451679797" lon="10.875335592028541"><ele>512.2</ele><time>2026-04-06T17:17:59Z</time></trkpt><trkpt lat="44.35253907310778" lon="10.875465774132984"><ele>513.4000000000001</ele><time>2026-04-06T17:18:01Z</time></trkpt><trkpt lat="44.352552841321724" lon="10.87560392971285"><ele>514.6</ele><time>2026-04-06T17:18:03Z</time></trkpt><trkpt lat="44.35252015948645" lon="10.87571682825661"><ele>515.8000000000001</ele><time>2026-04-06T17:18:05Z</time></trkpt><trkpt lat="44.35245059347472" lon="10.87581608693905"><ele>517.0</ele><time>2026-04-06T17:18:07Z</time></trkpt><trkpt lat="44.35239081171227" lon="10.87591010257189"><ele>519.0</ele><time>2026-04-06T17:18:09Z</time></trkpt><trkpt lat="44.352373021783414" lon="10.87604141546154"><ele>521.0</ele><time>2026-04-06T17:18:11Z</time></trkpt><trkpt lat="44.352395130090606" lon="10.876181414249926"><ele>523.0</ele><time>2026-04-06T17:18:14Z</time></trkpt><trkpt lat="44.352449086458044" lon="10.876272890815942"><ele>525.0</ele><time>2026-04-06T17:18:16Z</time></trkpt><trkpt lat="44.3525069178811" lon="10.876382456607322"><ele>527.0</ele><time>2026-04-06T17:18:18Z</time></trkpt><trkpt lat="44.35249901162025" lon="10.876508522001584"><ele>527.0</ele><time>2026-04-06T17:18:20Z</time></trkpt><trkpt lat="44.35245707364634" lon="10.876622607984974"><ele>527.0</ele><time>2026-04-06T17:18:23Z</time></trkpt><trkpt lat="44.3524157122556" lon="10.8766999642834"><ele>527.0</ele><time>2026-04-06T17:18:25Z</time></trkpt><trkpt lat="44.35238561995074" lon="10.876825312530995"><ele>527.0</ele><time>2026-04-06T17:18:27Z</time></trkpt><trkpt lat="44.352325650235834" lon="10.876969866573468"><ele>527.0</ele><time>2026-04-06T17:18:29Z</time></trkpt><trkpt lat="44.352279858140335" lon="10.877045868672484"><ele>527.0</ele><time>2026-04-06T17:18:30Z</time></trkpt><trkpt lat="44.352237204420085" lon="10.877138089960088"><ele>532.8000000000001</ele><time>2026-04-06T17:18:31Z</time></trkpt><trkpt lat="44.35220514382643" lon="10.877291976576076"><ele>538.6</ele><time>2026-04-06T17:18:33Z</time></trkpt><trkpt lat="44.35219528594155" lon="10.877411322687289"><ele>544.4000000000001</ele><time>2026-04-06T17:18:34Z</time></trkpt><trkpt lat="44.352159174643795" lon="10.877570473986948"><ele>550.2</ele><time>2026-04-06T17:18:36Z</time></trkpt><trkpt lat="44.35210179257919" lon="10.87771066428485"><ele>556.0</ele><time>2026-04-06T17:18:38Z</time></trkpt><trkpt lat="44.352056853989765" lon="10.87782112306898"><ele>556.0</ele><time>2026-04-06T17:18:40Z</time></trkpt><trkpt lat="44.3519705253476" lon="10.877906652938945"><ele>556.0</ele><time>2026-04-06T17:18:42Z</time></trkpt><trkpt lat="44.35190376987031" lon="10.878030874663711"><ele>556.0</ele><time>2026-04-06T17:18:44Z</time></trkpt><trkpt lat="44.351892933883036" lon="10.878195720826467"><ele>556.0</ele><time>2026-04-06T17:18:46Z</time></trkpt><trkpt lat="44.351889212654086" lon="10.878363637454633"><ele>556.3333333333334</ele><time>2026-04-06T17:18:47Z</time></trkpt><trkpt lat="44.351907219365025" lon="10.878489880619636"><ele>556.6666666666667</ele><time>2026-04-06T17:18:49Z</time></trkpt><trkpt lat="44.351918735566734" lon="10.878590970020525"><ele>557.0</ele><time>2026-04-06T17:18:50Z</time></trkpt><trkpt lat="44.35192758029434" lon="10.87868719444688"><ele>557.3333333333334</ele><time>2026-04-06T17:18:51Z</time></trkpt><trkpt lat="44.35192527482255" lon="10.878816953467116"><ele>557.6666666666666</ele><time>2026-04-06T17:18:53Z</time></trkpt><trkpt lat="44.35190170088301" lon="10.878965965696803"><ele>558.0</ele><time>2026-04-06T17:18:55Z</time></trkpt><trkpt lat="44.351935718625846" lon="10.879125229637777"><ele>558.0</ele><time>2026-04-06T17:18:57Z</time></trkpt><trkpt lat="44.35198247554685" lon="10.879231603968934"><ele>558.0</ele><time>2026-04-06T17:18:59Z</time></trkpt><trkpt lat="44.35199845957649" lon="10.879392320724323"><ele>558.0</ele><time>2026-04-06T17:19:01Z</time></trkpt><trkpt lat="44.35197869796303" lon="10.879478355614257"><ele>558.0</ele><time>2026-04-06T17:19:02.999Z</time></trkpt><trkpt lat="44.35196519799998" lon="10.879581530996303"><ele>558.0</ele><time>2026-04-06T17:19:04.999Z</time></trkpt><trkpt lat="44.351923803077405" lon="10.87971239806809"><ele>558.0</ele><time>2026-04-06T17:19:06.999Z</time></trkpt><trkpt lat="44.35182961293826" lon="10.87982683716169"><ele>556.6666666666666</ele><time>2026-04-06T17:19:08.999Z</time></trkpt><trkpt lat="44.35173160301322" lon="10.87989593136311"><ele>555.3333333333334</ele><time>2026-04-06T17:19:10.999Z</time></trkpt><trkpt lat="44.35166014448876" lon="10.879996436104456"><ele>554.0</ele><time>2026-04-06T17:19:12.999Z</time></trkpt><trkpt lat="44.35161074680123" lon="10.880058045959027"><ele>552.6666666666667</ele><time>2026-04-06T17:19:14.999Z</time></trkpt><trkpt lat="44.35153349311254" lon="10.880046917958216"><ele>551.3333333333334</ele><time>2026-04-06T17:19:17.999Z</time></trkpt><trkpt lat="44.35152175966222" lon="10.880145254185777"><ele>550.0</ele><time>2026-04-06T17:19:20.999Z</time></trkpt><trkpt lat="44.35149843542514" lon="10.880266296075543"><ele>547.6666666666667</ele><time>2026-04-06T17:19:22.999Z</time></trkpt><trkpt lat="44.351482272462796" lon="10.880375418657346"><ele>545.3333333333334</ele><time>2026-04-06T17:19:24.999Z</time></trkpt><trkpt lat="44.35146349978202" lon="10.88049234030122"><ele>543.0</ele><time>2026-04-06T17:19:26.999Z</time></trkpt><trkpt lat="44.351465705917626" lon="10.880589986145178"><ele>540.6666666666666</ele><time>2026-04-06T17:19:27.999Z</time></trkpt><trkpt lat="44.35144707161431" lon="10.880716866155216"><ele>538.3333333333333</ele><time>2026-04-06T17:19:29.999Z</time></trkpt><trkpt lat="44.35143998397951" lon="10.880828840722229"><ele>536.0</ele><time>2026-04-06T17:19:31.999Z</time></trkpt><trkpt lat="44.351432475601825" lon="10.880996262400558"><ele>535.8</ele><time>2026-04-06T17:19:33.999Z</time></trkpt><trkpt lat="44.35141043114262" lon="10.881121372001008"><ele>535.6</ele><time>2026-04-06T17:19:35.999Z</time></trkpt><trkpt lat="44.351392991085724" lon="10.881227691392725"><ele>535.4</ele><time>2026-04-06T17:19:37.999Z</time></trkpt><trkpt lat="44.35135624079122" lon="10.881333457122382"><ele>535.2</ele><time>2026-04-06T17:19:39.999Z</time></trkpt><trkpt lat="44.3512786379176" lon="10.881438610605082"><ele>535.0</ele><time>2026-04-06T17:19:41.999Z</time></trkpt><trkpt lat="44.351213063466254" lon="10.88154867854866"><ele>535.0</ele><time>2026-04-06T17:19:43.999Z</time></trkpt><trkpt lat="44.35121325261383" lon="10.88166845323866"><ele>535.0</ele><time>2026-04-06T17:19:45.999Z</time></trkpt><trkpt lat="44.351218389284426" lon="10.88178748040701"><ele>535.0</ele><time>2026-04-06T17:19:47.999Z</time></trkpt><trkpt lat="44.351179431541276" lon="10.881883722056445"><ele>535.0</ele><time>2026-04-06T17:19:49.999Z</time></trkpt><trkpt lat="44.35111777351342" lon="10.881958503752339"><ele>535.0</ele><time>2026-04-06T17:19:51.999Z</time></trkpt><trkpt lat="44.351039532723995" lon="10.88200167468693"><ele>535.0</ele><time>2026-04-06T17:19:53.999Z</time></trkpt><trkpt lat="44.35098384220255" lon="10.88206491656572"><ele>531.3333333333334</ele><time>2026-04-06T17:19:55.999Z</time></trkpt><trkpt lat="44.35092754423321" lon="10.882113649675912"><ele>527.6666666666667</ele><time>2026-04-06T17:19:57.999Z</time></trkpt><trkpt lat="44.35085479587176" lon="10.882151060905157"><ele>524.0</ele><time>2026-04-06T17:20:00Z</time></trkpt><trkpt lat="44.35075038470805" lon="10.882186121988047"><ele>520.3333333333334</ele><time>2026-04-06T17:20:02Z</time></trkpt><trkpt lat="44.35066593548752" lon="10.88218851402824"><ele>516.6666666666666</ele><time>2026-04-06T17:20:04Z</time></trkpt><trkpt lat="44.35060438890214" lon="10.88222958143978"><ele>513.0</ele><time>2026-04-06T17:20:05Z</time></trkpt><trkpt lat="44.35052630599475" lon="10.882311423489428"><ele>513.0</ele><time>2026-04-06T17:20:07Z</time></trkpt><trkpt lat="44.35042873454141" lon="10.882320569753428"><ele>513.0</ele><time>2026-04-06T17:20:09Z</time></trkpt><trkpt lat="44.35032516907393" lon="10.882276685296373"><ele>513.0</ele><time>2026-04-06T17:20:11Z</time></trkpt><trkpt lat="44.35025561295204" lon="10.88226943491024"><ele>513.0</ele><time>2026-04-06T17:20:12Z</time></trkpt><trkpt lat="44.35017136721146" lon="10.882323570588195"><ele>513.0</ele><time>2026-04-06T17:20:14Z</time></trkpt><trkpt lat="44.35008729599621" lon="10.882456776825498"><ele>513.0</ele><time>2026-04-06T17:20:16Z</time></trkpt><trkpt lat="44.35004452953809" lon="10.882555836287228"><ele>513.0</ele><time>2026-04-06T17:20:17Z</time></trkpt><trkpt lat="44.34999773574579" lon="10.882674567457642"><ele>513.0</ele><time>2026-04-06T17:20:18Z</time></trkpt><trkpt lat="44.34995796611952" lon="10.882752096553064"><ele>513.0</ele><time>2026-04-06T17:20:19Z</time></trkpt><trkpt lat="44.34987867418679" lon="10.882817275262653"><ele>513.0</ele><time>2026-04-06T17:20:21Z</time></trkpt><trkpt lat="44.349796132997405" lon="10.88279537698548"><ele>513.0</ele><time>2026-04-06T17:20:23Z</time></trkpt><trkpt lat="44.34971311401529" lon="10.882744951979422"><ele>511.1666666666667</ele><time>2026-04-06T17:20:25Z</time></trkpt><trkpt lat="44.34957594050965" lon="10.88275116270022"><ele>509.33333333333337</ele><time>2026-04-06T17:20:28Z</time></trkpt><trkpt lat="44.349509838963314" lon="10.882775771261308"><ele>507.5</ele><time>2026-04-06T17:20:29Z</time></trkpt><trkpt lat="44.349450171727554" lon="10.88283289859272"><ele>505.6666666666667</ele><time>2026-04-06T17:20:30Z</time></trkpt><trkpt lat="44.34939175795646" lon="10.882880554188139"><ele>503.83333333333337</ele><time>2026-04-06T17:20:31Z</time></trkpt><trkpt lat="44.34931735460505" lon="10.882918304791438"><ele>502.0</ele><time>2026-04-06T17:20:33Z</time></trkpt><trkpt lat="44.3491646810756" lon="10.883030471518971"><ele>501.99999999999994</ele><time>2026-04-06T17:20:36Z</time></trkpt><trkpt lat="44.34909874971632" lon="10.883092792468515"><ele>502.0</ele><time>2026-04-06T17:20:37Z</time></trkpt><trkpt lat="44.349061778454484" lon="10.883167460471046"><ele>501.99999999999994</ele><time>2026-04-06T17:20:38Z</time></trkpt><trkpt lat="44.34902205838927" lon="10.883245124121997"><ele>501.99999999999994</ele><time>2026-04-06T17:20:39Z</time></trkpt><trkpt lat="44.34899332881061" lon="10.883339144820058"><ele>502.0</ele><time>2026-04-06T17:20:40Z</time></trkpt><trkpt lat="44.34897777515268" lon="10.883437316058409"><ele>501.99999999999994</ele><time>2026-04-06T17:20:41Z</time></trkpt><trkpt lat="44.34896684900356" lon="10.883545022125459"><ele>501.99999999999994</ele><time>2026-04-06T17:20:42Z</time></trkpt><trkpt lat="44.34895342769974" lon="10.883688692981938"><ele>502.00000000000006</ele><time>2026-04-06T17:20:43Z</time></trkpt><trkpt lat="44.34893519735019" lon="10.883815569039902"><ele>502.0</ele><time>2026-04-06T17:20:44Z</time></trkpt><trkpt lat="44.3489290128389" lon="10.883904825869283"><ele>502.0</ele><time>2026-04-06T17:20:45Z</time></trkpt><trkpt lat="44.348874233686516" lon="10.883979475259778"><ele>502.0</ele><time>2026-04-06T17:20:47Z</time></trkpt><trkpt lat="44.348794675913645" lon="10.884084218768319"><ele>502.00000000000006</ele><time>2026-04-06T17:20:49Z</time></trkpt><trkpt lat="44.348702749817086" lon="10.884039461676204"><ele>502.0</ele><time>2026-04-06T17:20:50Z</time></trkpt><trkpt lat="44.34862669750591" lon="10.88408349540384"><ele>503.33333333333337</ele><time>2026-04-06T17:20:51Z</time></trkpt><trkpt lat="44.34855412467489" lon="10.884099964774036"><ele>504.6666666666667</ele><time>2026-04-06T17:20:52Z</time></trkpt><trkpt lat="44.34848734956368" lon="10.884105870962422"><ele>506.0</ele><time>2026-04-06T17:20:53Z</time></trkpt><trkpt lat="44.348426393048676" lon="10.88413071061348"><ele>507.33333333333337</ele><time>2026-04-06T17:20:54Z</time></trkpt><trkpt lat="44.34831576402316" lon="10.884091253117647"><ele>508.6666666666667</ele><time>2026-04-06T17:20:56Z</time></trkpt><trkpt lat="44.348235972120335" lon="10.88406820565224"><ele>510.0</ele><time>2026-04-06T17:20:57Z</time></trkpt><trkpt lat="44.34815277178859" lon="10.884111254458503"><ele>510.0</ele><time>2026-04-06T17:20:59Z</time></trkpt><trkpt lat="44.3481108702547" lon="10.884235162064476"><ele>510.0</ele><time>2026-04-06T17:21:01Z</time></trkpt><trkpt lat="44.34807427073551" lon="10.884310256023268"><ele>510.0</ele><time>2026-04-06T17:21:02Z</time></trkpt><trkpt lat="44.347968832857084" lon="10.884342902136122"><ele>510.0</ele><time>2026-04-06T17:21:04Z</time></trkpt><trkpt lat="44.34786772949024" lon="10.884334548872456"><ele>510.0</ele><time>2026-04-06T17:21:05.999Z</time></trkpt><trkpt lat="44.34780067598962" lon="10.884277551077398"><ele>514.0</ele><time>2026-04-06T17:21:07.999Z</time></trkpt><trkpt lat="44.34776343728002" lon="10.88418530315283"><ele>518.0</ele><time>2026-04-06T17:21:08.999Z</time></trkpt><trkpt lat="44.34770266062552" lon="10.884060850954953"><ele>522.0</ele><time>2026-04-06T17:21:09.999Z</time></trkpt><trkpt lat="44.34765312728953" lon="10.883984587764184"><ele>526.0</ele><time>2026-04-06T17:21:10.999Z</time></trkpt><trkpt lat="44.34759226848107" lon="10.883934398099036"><ele>530.0</ele><time>2026-04-06T17:21:11.999Z</time></trkpt><trkpt lat="44.34748803455226" lon="10.883871203149162"><ele>534.0</ele><time>2026-04-06T17:21:12.999Z</time></trkpt><trkpt lat="44.34741647949533" lon="10.88384007825212"><ele>534.0</ele><time>2026-04-06T17:21:13.999Z</time></trkpt><trkpt lat="44.3473397934241" lon="10.883818680664762"><ele>534.0</ele><time>2026-04-06T17:21:14.999Z</time></trkpt><trkpt lat="44.34721120635279" lon="10.883782996737112"><ele>534.0</ele><time>2026-04-06T17:21:15.999Z</time></trkpt><trkpt lat="44.34710745690048" lon="10.883728992084313"><ele>534.0</ele><time>2026-04-06T17:21:16.999Z</time></trkpt><trkpt lat="44.34701886941029" lon="10.883691983921521"><ele>534.0</ele><time>2026-04-06T17:21:17.999Z</time></trkpt><trkpt lat="44.34694448917676" lon="10.883650329221059"><ele>538.3333333333334</ele><time>2026-04-06T17:21:18.999Z</time></trkpt><trkpt lat="44.34686366618075" lon="10.883630586343111"><ele>542.6666666666666</ele><time>2026-04-06T17:21:19.999Z</time></trkpt><trkpt lat="44.34676857337659" lon="10.883622125208596"><ele>547.0</ele><time>2026-04-06T17:21:20.999Z</time></trkpt><trkpt lat="44.346678169830305" lon="10.883614118948241"><ele>551.3333333333333</ele><time>2026-04-06T17:21:21.999Z</time></trkpt><trkpt lat="44.34660131940497" lon="10.88359653663942"><ele>555.6666666666666</ele><time>2026-04-06T17:21:22.999Z</time></trkpt><trkpt lat="44.346518597791345" lon="10.883540499340116"><ele>560.0</ele><time>2026-04-06T17:21:23.999Z</time></trkpt><trkpt lat="44.34644335983273" lon="10.883467263897607"><ele>561.0</ele><time>2026-04-06T17:21:24.999Z</time></trkpt><trkpt lat="44.34634520712481" lon="10.883405679727797"><ele>562.0</ele><time>2026-04-06T17:21:25.999Z</time></trkpt><trkpt lat="44.34627049557242" lon="10.883359830599282"><ele>563.0</ele><time>2026-04-06T17:21:26.999Z</time></trkpt><trkpt lat="44.34619263046221" lon="10.883323287156612"><ele>564.0</ele><time>2026-04-06T17:21:27.999Z</time></trkpt><trkpt lat="44.346106952086146" lon="10.883268213257782"><ele>565.0</ele><time>2026-04-06T17:21:28.999Z</time></trkpt><trkpt lat="44.346022793576346" lon="10.883174938286734"><ele>565.0</ele><time>2026-04-06T17:21:29.999Z</time></trkpt><trkpt lat="44.3459183498556" lon="10.883084336485727"><ele>565.0</ele><time>2026-04-06T17:21:30.999Z</time></trkpt><trkpt lat="44.345840365394736" lon="10.88300803419093"><ele>565.0</ele><time>2026-04-06T17:21:31.999Z</time></trkpt><trkpt lat="44.345778650906716" lon="10.88292550557217"><ele>565.0</ele><time>2026-04-06T17:21:32.999Z</time></trkpt><trkpt lat="44.34570420237593" lon="10.882855405498088"><ele>565.0</ele><time>2026-04-06T17:21:33.999Z</time></trkpt><trkpt lat="44.34561315017317" lon="10.88280192655736"><ele>566.1666666666667</ele><time>2026-04-06T17:21:34.999Z</time></trkpt><trkpt lat="44.34553847431951" lon="10.882771459845724"><ele>567.3333333333334</ele><time>2026-04-06T17:21:35.999Z</time></trkpt><trkpt lat="44.34546514517659" lon="10.882743184870044"><ele>568.5</ele><time>2026-04-06T17:21:36.999Z</time></trkpt><trkpt lat="44.34538267413263" lon="10.882724783220226"><ele>569.6666666666666</ele><time>2026-04-06T17:21:38.999Z</time></trkpt><trkpt lat="44.34528958451545" lon="10.882787440744808"><ele>570.8333333333333</ele><time>2026-04-06T17:21:44.999Z</time></trkpt><trkpt lat="44.34521416678473" lon="10.88286737005352"><ele>572.0</ele><time>2026-04-06T17:21:46.999Z</time></trkpt><trkpt lat="44.34513530732832" lon="10.882984044049758"><ele>572.0</ele><time>2026-04-06T17:21:48.999Z</time></trkpt><trkpt lat="44.34508766466973" lon="10.883062319117279"><ele>572.0</ele><time>2026-04-06T17:21:49.999Z</time></trkpt><trkpt lat="44.345038067664674" lon="10.883183877769651"><ele>572.0</ele><time>2026-04-06T17:21:52.999Z</time></trkpt><trkpt lat="44.34498024925232" lon="10.883254571735696"><ele>572.0</ele><time>2026-04-06T17:21:54.999Z</time></trkpt><trkpt lat="44.34490807582146" lon="10.883171152473958"><ele>572.0</ele><time>2026-04-06T17:21:56.999Z</time></trkpt><trkpt lat="44.344817745035535" lon="10.88310586082795"><ele>572.0</ele><time>2026-04-06T17:21:58.999Z</time></trkpt><trkpt lat="44.34475282030248" lon="10.883024975168832"><ele>576.6</ele><time>2026-04-06T17:21:59.999Z</time></trkpt><trkpt lat="44.34467940166757" lon="10.882902126944007"><ele>581.2</ele><time>2026-04-06T17:22:01.999Z</time></trkpt><trkpt lat="44.34456881357721" lon="10.88284416733238"><ele>585.8</ele><time>2026-04-06T17:22:03.999Z</time></trkpt><trkpt lat="44.34449983594917" lon="10.882835864717492"><ele>590.4</ele><time>2026-04-06T17:22:04.999Z</time></trkpt><trkpt lat="44.34442138035662" lon="10.882821621504744"><ele>595.0</ele><time>2026-04-06T17:22:06Z</time></trkpt><trkpt lat="44.344348418969616" lon="10.882775195575459"><ele>595.0</ele><time>2026-04-06T17:22:07Z</time></trkpt><trkpt lat="44.344279269836726" lon="10.882724471112905"><ele>595.0</ele><time>2026-04-06T17:22:08Z</time></trkpt><trkpt lat="44.344228439353834" lon="10.88266443075203"><ele>595.0</ele><time>2026-04-06T17:22:09Z</time></trkpt><trkpt lat="44.34418664811346" lon="10.882574660335871"><ele>595.0</ele><time>2026-04-06T17:22:10Z</time></trkpt><trkpt lat="44.34413757964706" lon="10.88245478689101"><ele>595.0</ele><time>2026-04-06T17:22:12Z</time></trkpt><trkpt lat="44.344057380059006" lon="10.882338394760177"><ele>595.0</ele><time>2026-04-06T17:22:14Z</time></trkpt><trkpt lat="44.34396441835244" lon="10.882268661106972"><ele>592.3333333333334</ele><time>2026-04-06T17:22:16Z</time></trkpt><trkpt lat="44.3439081179912" lon="10.88221678521607"><ele>589.6666666666667</ele><time>2026-04-06T17:22:17Z</time></trkpt><trkpt lat="44.34384175526256" lon="10.882179058215778"><ele>587.0</ele><time>2026-04-06T17:22:19Z</time></trkpt><trkpt lat="44.343789372916525" lon="10.882109280781677"><ele>584.3333333333334</ele><time>2026-04-06T17:22:24Z</time></trkpt><trkpt lat="44.34374472010979" lon="10.881994856439313"><ele>581.6666666666666</ele><time>2026-04-06T17:22:26Z</time></trkpt><trkpt lat="44.343718378603064" lon="10.88188776441322"><ele>579.0</ele><time>2026-04-06T17:22:28Z</time></trkpt><trkpt lat="44.34374308331788" lon="10.881800311796772"><ele>581.6666666666666</ele><time>2026-04-06T17:22:30Z</time></trkpt><trkpt lat="44.343758748700154" lon="10.881708125681065"><ele>584.3333333333334</ele><time>2026-04-06T17:22:32Z</time></trkpt><trkpt lat="44.343759365529756" lon="10.881572950050051"><ele>587.0</ele><time>2026-04-06T17:22:34Z</time></trkpt><trkpt lat="44.34376446024839" lon="10.881471690756985"><ele>589.6666666666667</ele><time>2026-04-06T17:22:35Z</time></trkpt><trkpt lat="44.34377153524294" lon="10.881341067200808"><ele>592.3333333333334</ele><time>2026-04-06T17:22:36Z</time></trkpt><trkpt lat="44.34377625353014" lon="10.881191210089401"><ele>595.0</ele><time>2026-04-06T17:22:37Z</time></trkpt><trkpt lat="44.34378368537387" lon="10.88104889810469"><ele>594.1666666666667</ele><time>2026-04-06T17:22:38Z</time></trkpt><trkpt lat="44.34373025245594" lon="10.880920218275925"><ele>593.3333333333334</ele><time>2026-04-06T17:22:40Z</time></trkpt><trkpt lat="44.34365677895372" lon="10.88085285045982"><ele>592.5</ele><time>2026-04-06T17:22:41Z</time></trkpt><trkpt lat="44.343574575877874" lon="10.880801574390198"><ele>591.6666666666666</ele><time>2026-04-06T17:22:42Z</time></trkpt><trkpt lat="44.34350309682392" lon="10.880762199499861"><ele>590.8333333333333</ele><time>2026-04-06T17:22:43Z</time></trkpt><trkpt lat="44.34343012827345" lon="10.88072923624386"><ele>590.0</ele><time>2026-04-06T17:22:44Z</time></trkpt><trkpt lat="44.34335873118164" lon="10.880677911920994"><ele>590.0</ele><time>2026-04-06T17:22:45Z</time></trkpt><trkpt lat="44.34330697069765" lon="10.880626952555446"><ele>590.0</ele><time>2026-04-06T17:22:46Z</time></trkpt><trkpt lat="44.3432361325902" lon="10.880559849388804"><ele>590.0</ele><time>2026-04-06T17:22:47Z</time></trkpt><trkpt lat="44.34316879688714" lon="10.880498691639971"><ele>590.0</ele><time>2026-04-06T17:22:48Z</time></trkpt><trkpt lat="44.34312021531321" lon="10.880437111565882"><ele>590.0</ele><time>2026-04-06T17:22:49Z</time></trkpt><trkpt lat="44.343060383351606" lon="10.880383402348862"><ele>590.0</ele><time>2026-04-06T17:22:50Z</time></trkpt><trkpt lat="44.3429866653064" lon="10.880318721862247"><ele>594.5</ele><time>2026-04-06T17:22:51Z</time></trkpt><trkpt lat="44.34291525443232" lon="10.880241855733866"><ele>599.0</ele><time>2026-04-06T17:22:52Z</time></trkpt><trkpt lat="44.3428519984805" lon="10.880166275418372"><ele>603.5</ele><time>2026-04-06T17:22:53Z</time></trkpt><trkpt lat="44.34279864721286" lon="10.880090146421416"><ele>608.0</ele><time>2026-04-06T17:22:54Z</time></trkpt><trkpt lat="44.342743468036105" lon="10.880002565242012"><ele>612.5</ele><time>2026-04-06T17:22:55Z</time></trkpt><trkpt lat="44.34269794077803" lon="10.879925751918995"><ele>617.0</ele><time>2026-04-06T17:22:56Z</time></trkpt><trkpt lat="44.342640011988344" lon="10.879862871560652"><ele>617.0</ele><time>2026-04-06T17:22:57Z</time></trkpt><trkpt lat="44.34257601132237" lon="10.879806010291102"><ele>617.0</ele><time>2026-04-06T17:22:58Z</time></trkpt><trkpt lat="44.34250567436723" lon="10.879730310788851"><ele>617.0</ele><time>2026-04-06T17:22:59Z</time></trkpt><trkpt lat="44.342474808515604" lon="10.879632026719008"><ele>617.0</ele><time>2026-04-06T17:23:01Z</time></trkpt><trkpt lat="44.342540356047174" lon="10.879584396468964"><ele>617.0</ele><time>2026-04-06T17:23:03Z</time></trkpt><trkpt lat="44.34261439586545" lon="10.879537249308951"><ele>617.0</ele><time>2026-04-06T17:23:05Z</time></trkpt><trkpt lat="44.342696088319194" lon="10.87952475499908"><ele>617.0</ele><time>2026-04-06T17:23:06.999Z</time></trkpt><trkpt lat="44.34277941140091" lon="10.879503343403009"><ele>617.0</ele><time>2026-04-06T17:23:08.999Z</time></trkpt><trkpt lat="44.34285802620809" lon="10.879473495773588"><ele>617.0</ele><time>2026-04-06T17:23:10.999Z</time></trkpt><trkpt lat="44.34292427429564" lon="10.879415657637848"><ele>617.0</ele><time>2026-04-06T17:23:12.999Z</time></trkpt><trkpt lat="44.34299684775207" lon="10.879315316927192"><ele>617.0</ele><time>2026-04-06T17:23:14.999Z</time></trkpt><trkpt lat="44.343046366357214" lon="10.879247499921355"><ele>617.0</ele><time>2026-04-06T17:23:15.999Z</time></trkpt><trkpt lat="44.343139840757964" lon="10.879202196104131"><ele>617.5</ele><time>2026-04-06T17:23:17.999Z</time></trkpt><trkpt lat="44.343207078926916" lon="10.879193937358238"><ele>618.0</ele><time>2026-04-06T17:23:18.999Z</time></trkpt><trkpt lat="44.34330338804081" lon="10.879194835766143"><ele>618.5</ele><time>2026-04-06T17:23:19.999Z</time></trkpt><trkpt lat="44.3434126589192" lon="10.879171584489184"><ele>619.0</ele><time>2026-04-06T17:23:20.999Z</time></trkpt><trkpt lat="44.34348916073328" lon="10.87915140059657"><ele>619.5</ele><time>2026-04-06T17:23:21.999Z</time></trkpt><trkpt lat="44.343559421256664" lon="10.879162585910727"><ele>620.0</ele><time>2026-04-06T17:23:22.999Z</time></trkpt><trkpt lat="44.34362530826586" lon="10.879147742130584"><ele>620.0</ele><time>2026-04-06T17:23:23.999Z</time></trkpt><trkpt lat="44.34370225434713" lon="10.879128374963544"><ele>620.0</ele><time>2026-04-06T17:23:24.999Z</time></trkpt><trkpt lat="44.34378969291253" lon="10.879022937876455"><ele>620.0</ele><time>2026-04-06T17:23:26.999Z</time></trkpt><trkpt lat="44.34376980774422" lon="10.878897593554486"><ele>620.0</ele><time>2026-04-06T17:23:28.999Z</time></trkpt><trkpt lat="44.34364743255487" lon="10.878794443934567"><ele>620.0</ele><time>2026-04-06T17:23:30.999Z</time></trkpt><trkpt lat="44.34359753032006" lon="10.878728013526558"><ele>620.0</ele><time>2026-04-06T17:23:31.999Z</time></trkpt><trkpt lat="44.34354671245941" lon="10.87864310804098"><ele>620.0</ele><time>2026-04-06T17:23:32.999Z</time></trkpt><trkpt lat="44.34340994477222" lon="10.87855428848433"><ele>620.0</ele><time>2026-04-06T17:23:34.999Z</time></trkpt><trkpt lat="44.34333790040633" lon="10.878500372053741"><ele>620.0</ele><time>2026-04-06T17:23:35.999Z</time></trkpt><trkpt lat="44.34325107447867" lon="10.878421131803309"><ele>620.0</ele><time>2026-04-06T17:23:36.999Z</time></trkpt><trkpt lat="44.343176973652305" lon="10.878343907981744"><ele>621.1666666666666</ele><time>2026-04-06T17:23:37.999Z</time></trkpt><trkpt lat="44.34312203758554" lon="10.878299039887759"><ele>622.3333333333333</ele><time>2026-04-06T17:23:38.999Z</time></trkpt><trkpt lat="44.34306791849878" lon="10.878249582499045"><ele>623.5</ele><time>2026-04-06T17:23:39.999Z</time></trkpt><trkpt lat="44.34306124860912" lon="10.878120311753188"><ele>624.6666666666666</ele><time>2026-04-06T17:23:41.999Z</time></trkpt><trkpt lat="44.343092747194156" lon="10.87803622036891"><ele>625.8333333333334</ele><time>2026-04-06T17:23:42.999Z</time></trkpt><trkpt lat="44.34307939871335" lon="10.877878702126111"><ele>627.0</ele><time>2026-04-06T17:23:43.999Z</time></trkpt><trkpt lat="44.343086672961505" lon="10.87771933582851"><ele>626.0</ele><time>2026-04-06T17:23:44.999Z</time></trkpt><trkpt lat="44.34311839319296" lon="10.877490605377616"><ele>625.0</ele><time>2026-04-06T17:23:45.999Z</time></trkpt><trkpt lat="44.34312049602375" lon="10.877300251324364"><ele>624.0</ele><time>2026-04-06T17:23:46.999Z</time></trkpt><trkpt lat="44.343132769458016" lon="10.877135718928232"><ele>623.0</ele><time>2026-04-06T17:23:47.999Z</time></trkpt><trkpt lat="44.34316378800057" lon="10.876971000386696"><ele>623.0</ele><time>2026-04-06T17:23:48.999Z</time></trkpt><trkpt lat="44.34317801482692" lon="10.876829969234434"><ele>623.0</ele><time>2026-04-06T17:23:49.999Z</time></trkpt><trkpt lat="44.343190608801976" lon="10.876685582878919"><ele>623.0</ele><time>2026-04-06T17:23:50.999Z</time></trkpt><trkpt lat="44.343184589302695" lon="10.87653604701692"><ele>623.0</ele><time>2026-04-06T17:23:51.999Z</time></trkpt><trkpt lat="44.3431945344075" lon="10.876411965750425"><ele>623.0</ele><time>2026-04-06T17:23:52.999Z</time></trkpt><trkpt lat="44.343192491194" lon="10.876303504215494"><ele>623.3333333333333</ele><time>2026-04-06T17:23:53.999Z</time></trkpt><trkpt lat="44.343183303031644" lon="10.876202580748856"><ele>623.6666666666666</ele><time>2026-04-06T17:23:54.999Z</time></trkpt><trkpt lat="44.34316268829964" lon="10.876113965893731"><ele>624.0</ele><time>2026-04-06T17:23:55.999Z</time></trkpt><trkpt lat="44.34312065652202" lon="10.876031049523204"><ele>624.3333333333334</ele><time>2026-04-06T17:23:56.999Z</time></trkpt><trkpt lat="44.34304544489701" lon="10.876005864288654"><ele>624.6666666666667</ele><time>2026-04-06T17:23:57.999Z</time></trkpt><trkpt lat="44.34296982672775" lon="10.875978135762313"><ele>625.0</ele><time>2026-04-06T17:23:58.999Z</time></trkpt><trkpt lat="44.34284077412753" lon="10.875983063923357"><ele>628.5</ele><time>2026-04-06T17:23:59.999Z</time></trkpt><trkpt lat="44.34268389749285" lon="10.875986258755457"><ele>632.0</ele><time>2026-04-06T17:24:00.999Z</time></trkpt><trkpt lat="44.3425636856658" lon="10.87596260188013"><ele>635.5</ele><time>2026-04-06T17:24:01.999Z</time></trkpt><trkpt lat="44.34248106873575" lon="10.875916705095804"><ele>639.0</ele><time>2026-04-06T17:24:02.999Z</time></trkpt><trkpt lat="44.34241987053464" lon="10.875826951635828"><ele>639.2</ele><time>2026-04-06T17:24:03.999Z</time></trkpt><trkpt lat="44.34236718051027" lon="10.875736657770517"><ele>639.4</ele><time>2026-04-06T17:24:04.999Z</time></trkpt><trkpt lat="44.3422922872936" lon="10.87560622742637"><ele>639.6</ele><time>2026-04-06T17:24:05.999Z</time></trkpt><trkpt lat="44.34224298929721" lon="10.875515980428911"><ele>639.8</ele><time>2026-04-06T17:24:06.999Z</time></trkpt><trkpt lat="44.3421202071209" lon="10.875419893539208"><ele>640.0</ele><time>2026-04-06T17:24:08.999Z</time></trkpt><trkpt lat="44.341997008541654" lon="10.875337643160336"><ele>642.2</ele><time>2026-04-06T17:24:09.999Z</time></trkpt><trkpt lat="44.34187536257958" lon="10.875198594917354"><ele>644.4</ele><time>2026-04-06T17:24:10.999Z</time></trkpt><trkpt lat="44.34181369054328" lon="10.875095292673677"><ele>646.5999999999999</ele><time>2026-04-06T17:24:12Z</time></trkpt><trkpt lat="44.34174660927292" lon="10.875008712680378"><ele>648.8</ele><time>2026-04-06T17:24:13Z</time></trkpt><trkpt lat="44.34169881604389" lon="10.874928284974308"><ele>651.0</ele><time>2026-04-06T17:24:14Z</time></trkpt><trkpt lat="44.34165442418551" lon="10.874825043996053"><ele>651.0</ele><time>2026-04-06T17:24:15Z</time></trkpt><trkpt lat="44.34162911774161" lon="10.874726594718089"><ele>651.0</ele><time>2026-04-06T17:24:16Z</time></trkpt><trkpt lat="44.34161007085017" lon="10.874640736005793"><ele>651.0</ele><time>2026-04-06T17:24:18Z</time></trkpt><trkpt lat="44.34153019576869" lon="10.874716903038241"><ele>651.0</ele><time>2026-04-06T17:24:21Z</time></trkpt><trkpt lat="44.34147059066106" lon="10.874832514416958"><ele>651.0</ele><time>2026-04-06T17:24:23Z</time></trkpt><trkpt lat="44.34142518717951" lon="10.874945473680503"><ele>651.0</ele><time>2026-04-06T17:24:24Z</time></trkpt><trkpt lat="44.341381691368994" lon="10.875060756395717"><ele>653.1666666666666</ele><time>2026-04-06T17:24:25Z</time></trkpt><trkpt lat="44.341344074928024" lon="10.875161794880505"><ele>655.3333333333334</ele><time>2026-04-06T17:24:27Z</time></trkpt><trkpt lat="44.34129517872669" lon="10.875289776532123"><ele>657.5</ele><time>2026-04-06T17:24:29Z</time></trkpt><trkpt lat="44.341259332105146" lon="10.875382871468549"><ele>659.6666666666667</ele><time>2026-04-06T17:24:30Z</time></trkpt><trkpt lat="44.34123020861197" lon="10.875485587287976"><ele>661.8333333333334</ele><time>2026-04-06T17:24:31Z</time></trkpt><trkpt lat="44.34118741888638" lon="10.87559762250053"><ele>664.0</ele><time>2026-04-06T17:24:33Z</time></trkpt><trkpt lat="44.34114014142102" lon="10.875692413871631"><ele>664.0</ele><time>2026-04-06T17:24:34Z</time></trkpt><trkpt lat="44.34110437723399" lon="10.875789508189854"><ele>664.0</ele><time>2026-04-06T17:24:35Z</time></trkpt><trkpt lat="44.34107087991092" lon="10.875910568088687"><ele>664.0</ele><time>2026-04-06T17:24:37Z</time></trkpt><trkpt lat="44.34103998365682" lon="10.876049093920782"><ele>664.0</ele><time>2026-04-06T17:24:39Z</time></trkpt><trkpt lat="44.34102101268003" lon="10.876161064547663"><ele>664.0</ele><time>2026-04-06T17:24:40Z</time></trkpt><trkpt lat="44.340994918308766" lon="10.876282167990443"><ele>664.0</ele><time>2026-04-06T17:24:41Z</time></trkpt><trkpt lat="44.34097614500043" lon="10.876393642671518"><ele>664.0</ele><time>2026-04-06T17:24:42Z</time></trkpt><trkpt lat="44.340941839912794" lon="10.87647002325467"><ele>664.0</ele><time>2026-04-06T17:24:43Z</time></trkpt><trkpt lat="44.34087071006146" lon="10.876564060289867"><ele>664.0</ele><time>2026-04-06T17:24:44Z</time></trkpt><trkpt lat="44.340786788284284" lon="10.876702899100673"><ele>664.0</ele><time>2026-04-06T17:24:45Z</time></trkpt><trkpt lat="44.34070893116585" lon="10.87687358631139"><ele>664.0</ele><time>2026-04-06T17:24:46Z</time></trkpt><trkpt lat="44.34062419407619" lon="10.877015327237523"><ele>664.0</ele><time>2026-04-06T17:24:47Z</time></trkpt><trkpt lat="44.34055402921222" lon="10.877126759920944"><ele>664.0</ele><time>2026-04-06T17:24:48Z</time></trkpt><trkpt lat="44.340467762983856" lon="10.877212113606385"><ele>664.0</ele><time>2026-04-06T17:24:49Z</time></trkpt><trkpt lat="44.340388682209166" lon="10.877314594941026"><ele>664.0</ele><time>2026-04-06T17:24:50Z</time></trkpt><trkpt lat="44.34028103810463" lon="10.8773693261134"><ele>664.0</ele><time>2026-04-06T17:24:51Z</time></trkpt><trkpt lat="44.340145559195676" lon="10.877421742031729"><ele>666.6</ele><time>2026-04-06T17:24:52Z</time></trkpt><trkpt lat="44.34002434630135" lon="10.877453113478271"><ele>669.2</ele><time>2026-04-06T17:24:53Z</time></trkpt><trkpt lat="44.33993075930054" lon="10.877472770657356"><ele>671.8000000000001</ele><time>2026-04-06T17:24:54Z</time></trkpt><trkpt lat="44.33985640759198" lon="10.87749652629911"><ele>674.4000000000001</ele><time>2026-04-06T17:24:55Z</time></trkpt><trkpt lat="44.33977335354349" lon="10.877463833336796"><ele>677.0</ele><time>2026-04-06T17:24:56Z</time></trkpt><trkpt lat="44.339670549563245" lon="10.877431684741005"><ele>679.0</ele><time>2026-04-06T17:24:57Z</time></trkpt><trkpt lat="44.33955198995943" lon="10.877392249349953"><ele>681.0</ele><time>2026-04-06T17:24:58Z</time></trkpt><trkpt lat="44.339450500306384" lon="10.877339622183376"><ele>683.0</ele><time>2026-04-06T17:24:59Z</time></trkpt><trkpt lat="44.339362336651284" lon="10.877304978835879"><ele>685.0</ele><time>2026-04-06T17:25:00Z</time></trkpt><trkpt lat="44.33929928724152" lon="10.877277925750528"><ele>687.0</ele><time>2026-04-06T17:25:01Z</time></trkpt><trkpt lat="44.339214013984574" lon="10.877127828275638"><ele>687.0</ele><time>2026-04-06T17:25:03Z</time></trkpt><trkpt lat="44.33920815857499" lon="10.876988991651986"><ele>687.0</ele><time>2026-04-06T17:25:04Z</time></trkpt><trkpt lat="44.33921674505585" lon="10.876809654554345"><ele>687.0</ele><time>2026-04-06T17:25:05Z</time></trkpt><trkpt lat="44.339224259920535" lon="10.876599408300537"><ele>687.0</ele><time>2026-04-06T17:25:06Z</time></trkpt><trkpt lat="44.33920527545756" lon="10.876383309249569"><ele>687.3333333333334</ele><time>2026-04-06T17:25:07Z</time></trkpt><trkpt lat="44.339152104997034" lon="10.87614293797238"><ele>687.6666666666667</ele><time>2026-04-06T17:25:08Z</time></trkpt><trkpt lat="44.339103498496094" lon="10.875858886564936"><ele>688.0</ele><time>2026-04-06T17:25:09Z</time></trkpt><trkpt lat="44.339061244983206" lon="10.875622146477722"><ele>688.75</ele><time>2026-04-06T17:25:10Z</time></trkpt><trkpt lat="44.339027445338914" lon="10.875448867568581"><ele>689.5</ele><time>2026-04-06T17:25:11Z</time></trkpt><trkpt lat="44.33900443917143" lon="10.875287667896194"><ele>690.25</ele><time>2026-04-06T17:25:12Z</time></trkpt><trkpt lat="44.339011400079784" lon="10.875130673180424"><ele>691.0</ele><time>2026-04-06T17:25:13Z</time></trkpt><trkpt lat="44.339002703702754" lon="10.874993977683499"><ele>691.5999999999999</ele><time>2026-04-06T17:25:14Z</time></trkpt><trkpt lat="44.339013750462236" lon="10.874882710070079"><ele>692.2</ele><time>2026-04-06T17:25:15Z</time></trkpt><trkpt lat="44.33898016778788" lon="10.87476563707597"><ele>692.8</ele><time>2026-04-06T17:25:16Z</time></trkpt><trkpt lat="44.33891305147183" lon="10.874665748341627"><ele>693.4000000000001</ele><time>2026-04-06T17:25:17Z</time></trkpt><trkpt lat="44.33884265442085" lon="10.874549146127494"><ele>694.0</ele><time>2026-04-06T17:25:18Z</time></trkpt><trkpt lat="44.3387829662014" lon="10.874421721284843"><ele>696.0</ele><time>2026-04-06T17:25:19Z</time></trkpt><trkpt lat="44.338758850698156" lon="10.87430529534434"><ele>698.0</ele><time>2026-04-06T17:25:19.999Z</time></trkpt><trkpt lat="44.338754582247994" lon="10.87416846413458"><ele>700.0</ele><time>2026-04-06T17:25:20.999Z</time></trkpt><trkpt lat="44.33879435303955" lon="10.874037786760656"><ele>702.0</ele><time>2026-04-06T17:25:21.999Z</time></trkpt><trkpt lat="44.33888817492919" lon="10.873983902339043"><ele>704.0</ele><time>2026-04-06T17:25:22.999Z</time></trkpt><trkpt lat="44.338976131218104" lon="10.87391258233355"><ele>704.0</ele><time>2026-04-06T17:25:23.999Z</time></trkpt><trkpt lat="44.33905645008597" lon="10.873839044615226"><ele>704.0</ele><time>2026-04-06T17:25:24.999Z</time></trkpt><trkpt lat="44.33914156568446" lon="10.873775166715303"><ele>704.0</ele><time>2026-04-06T17:25:25.999Z</time></trkpt><trkpt lat="44.339222775961254" lon="10.873687187152873"><ele>704.0</ele><time>2026-04-06T17:25:26.999Z</time></trkpt><trkpt lat="44.339255935420596" lon="10.873609028564994"><ele>704.0</ele><time>2026-04-06T17:25:27.999Z</time></trkpt><trkpt lat="44.3392801978756" lon="10.873527120194403"><ele>704.0</ele><time>2026-04-06T17:25:28.999Z</time></trkpt><trkpt lat="44.339240068390225" lon="10.873393627942662"><ele>706.4000000000001</ele><time>2026-04-06T17:25:29.999Z</time></trkpt><trkpt lat="44.33919186387245" lon="10.873233523727533"><ele>708.8</ele><time>2026-04-06T17:25:30.999Z</time></trkpt><trkpt lat="44.33916034962791" lon="10.873070764140493"><ele>711.2</ele><time>2026-04-06T17:25:31.999Z</time></trkpt><trkpt lat="44.33910411596632" lon="10.87294572925251"><ele>713.5999999999999</ele><time>2026-04-06T17:25:32.999Z</time></trkpt><trkpt lat="44.33903376483274" lon="10.872890485875654"><ele>716.0</ele><time>2026-04-06T17:25:33.999Z</time></trkpt><trkpt lat="44.33895926920186" lon="10.872873153329078"><ele>718.75</ele><time>2026-04-06T17:25:34.999Z</time></trkpt><trkpt lat="44.33883904962793" lon="10.872875032139541"><ele>721.5</ele><time>2026-04-06T17:25:35.999Z</time></trkpt><trkpt lat="44.338698257418365" lon="10.872859103043938"><ele>724.25</ele><time>2026-04-06T17:25:36.999Z</time></trkpt><trkpt lat="44.33855616781893" lon="10.872856621798958"><ele>727.0</ele><time>2026-04-06T17:25:37.999Z</time></trkpt><trkpt lat="44.33843623308395" lon="10.872859891573112"><ele>727.0</ele><time>2026-04-06T17:25:38.999Z</time></trkpt><trkpt lat="44.33833857642647" lon="10.872830442317658"><ele>727.0</ele><time>2026-04-06T17:25:39.999Z</time></trkpt><trkpt lat="44.33826471954299" lon="10.872747399688292"><ele>727.0</ele><time>2026-04-06T17:25:40.999Z</time></trkpt><trkpt lat="44.338197163178585" lon="10.872662804744976"><ele>727.0</ele><time>2026-04-06T17:25:41.999Z</time></trkpt><trkpt lat="44.33819753251983" lon="10.872519117439111"><ele>727.0</ele><time>2026-04-06T17:25:42.999Z</time></trkpt><trkpt lat="44.338233772414256" lon="10.87239872629785"><ele>726.4000000000001</ele><time>2026-04-06T17:25:43.999Z</time></trkpt><trkpt lat="44.33823616496524" lon="10.872292546361786"><ele>725.8000000000001</ele><time>2026-04-06T17:25:44.999Z</time></trkpt><trkpt lat="44.33822830243306" lon="10.872200553380027"><ele>725.2</ele><time>2026-04-06T17:25:45.999Z</time></trkpt><trkpt lat="44.33817363466665" lon="10.872011173617741"><ele>724.6</ele><time>2026-04-06T17:25:47.999Z</time></trkpt><trkpt lat="44.33822818634354" lon="10.87185261319655"><ele>724.0</ele><time>2026-04-06T17:25:48.999Z</time></trkpt><trkpt lat="44.338272239184576" lon="10.871644091227912"><ele>723.3333333333334</ele><time>2026-04-06T17:25:49.999Z</time></trkpt><trkpt lat="44.33831361982393" lon="10.871410867905022"><ele>722.6666666666666</ele><time>2026-04-06T17:25:50.999Z</time></trkpt><trkpt lat="44.33837526783681" lon="10.871161529403793"><ele>722.0</ele><time>2026-04-06T17:25:51.999Z</time></trkpt><trkpt lat="44.33843874671549" lon="10.870901629179654"><ele>723.3333333333333</ele><time>2026-04-06T17:25:52.999Z</time></trkpt><trkpt lat="44.3385121334827" lon="10.8706307242242"><ele>724.6666666666666</ele><time>2026-04-06T17:25:53.999Z</time></trkpt><trkpt lat="44.33858893861542" lon="10.870350439323179"><ele>726.0</ele><time>2026-04-06T17:25:54.999Z</time></trkpt><trkpt lat="44.33866014688403" lon="10.870068220689621"><ele>726.0</ele><time>2026-04-06T17:25:55.999Z</time></trkpt><trkpt lat="44.338743003365465" lon="10.869810782137382"><ele>726.0</ele><time>2026-04-06T17:25:56.999Z</time></trkpt><trkpt lat="44.33884192668354" lon="10.869595173036183"><ele>726.0</ele><time>2026-04-06T17:25:57.999Z</time></trkpt><trkpt lat="44.33895758922239" lon="10.869395337803597"><ele>731.0</ele><time>2026-04-06T17:25:58.999Z</time></trkpt><trkpt lat="44.339067707225574" lon="10.86920454127912"><ele>736.0</ele><time>2026-04-06T17:25:59.999Z</time></trkpt><trkpt lat="44.339177824136506" lon="10.869028647643518"><ele>741.0</ele><time>2026-04-06T17:26:00.999Z</time></trkpt><trkpt lat="44.33927587235097" lon="10.86888722901741"><ele>741.0</ele><time>2026-04-06T17:26:01.999Z</time></trkpt><trkpt lat="44.33935634210159" lon="10.868752898613321"><ele>741.0</ele><time>2026-04-06T17:26:02.999Z</time></trkpt><trkpt lat="44.33939580223249" lon="10.868614696956241"><ele>741.0</ele><time>2026-04-06T17:26:03.999Z</time></trkpt><trkpt lat="44.3393784242025" lon="10.868477868446067"><ele>741.0</ele><time>2026-04-06T17:26:04.999Z</time></trkpt><trkpt lat="44.33931581361995" lon="10.868348774854924"><ele>741.0</ele><time>2026-04-06T17:26:05.999Z</time></trkpt><trkpt lat="44.339228224988084" lon="10.868233161407325"><ele>742.25</ele><time>2026-04-06T17:26:06.999Z</time></trkpt><trkpt lat="44.33912337507563" lon="10.868145221476166"><ele>743.5</ele><time>2026-04-06T17:26:07.999Z</time></trkpt><trkpt lat="44.33900486155964" lon="10.868106573933504"><ele>744.75</ele><time>2026-04-06T17:26:08.999Z</time></trkpt><trkpt lat="44.338858419245305" lon="10.868083340459386"><ele>746.0</ele><time>2026-04-06T17:26:09.999Z</time></trkpt><trkpt lat="44.33870059858009" lon="10.868045767819916"><ele>748.25</ele><time>2026-04-06T17:26:10.999Z</time></trkpt><trkpt lat="44.33854795089645" lon="10.868003663615795"><ele>750.5</ele><time>2026-04-06T17:26:11.999Z</time></trkpt><trkpt lat="44.3384336017954" lon="10.867893472192392"><ele>752.75</ele><time>2026-04-06T17:26:12.999Z</time></trkpt><trkpt lat="44.33833788102009" lon="10.867767646872542"><ele>755.0</ele><time>2026-04-06T17:26:13.999Z</time></trkpt><trkpt lat="44.33823593483324" lon="10.867625283632062"><ele>755.25</ele><time>2026-04-06T17:26:14.999Z</time></trkpt><trkpt lat="44.338178415150026" lon="10.867435155784799"><ele>755.5</ele><time>2026-04-06T17:26:15.999Z</time></trkpt><trkpt lat="44.338161096005194" lon="10.86726782416977"><ele>755.75</ele><time>2026-04-06T17:26:16.999Z</time></trkpt><trkpt lat="44.33816093157169" lon="10.867084243115203"><ele>756.0</ele><time>2026-04-06T17:26:18Z</time></trkpt><trkpt lat="44.33816010424152" lon="10.866915646509264"><ele>756.0</ele><time>2026-04-06T17:26:19Z</time></trkpt><trkpt lat="44.33817315895247" lon="10.86679101670762"><ele>756.0</ele><time>2026-04-06T17:26:20Z</time></trkpt><trkpt lat="44.33819102078927" lon="10.866670595061754"><ele>756.0</ele><time>2026-04-06T17:26:22Z</time></trkpt><trkpt lat="44.33813679742604" lon="10.86659770945834"><ele>756.0</ele><time>2026-04-06T17:26:23Z</time></trkpt><trkpt lat="44.338087051314794" lon="10.86644548001034"><ele>756.0</ele><time>2026-04-06T17:26:25Z</time></trkpt><trkpt lat="44.338056950243214" lon="10.86633722972201"><ele>755.5</ele><time>2026-04-06T17:26:26Z</time></trkpt><trkpt lat="44.33802432704017" lon="10.866233859891812"><ele>755.0</ele><time>2026-04-06T17:26:27Z</time></trkpt><trkpt lat="44.33764276399063" lon="10.866298656302925"><ele>755.0</ele><time>2026-04-06T17:26:28Z</time></trkpt><trkpt lat="44.337584748490656" lon="10.866235421724525"><ele>755.0</ele><time>2026-04-06T17:26:29Z</time></trkpt><trkpt lat="44.33751774149808" lon="10.866157304820627"><ele>755.0</ele><time>2026-04-06T17:26:30Z</time></trkpt><trkpt lat="44.33746193169343" lon="10.866088322271988"><ele>755.0</ele><time>2026-04-06T17:26:31Z</time></trkpt><trkpt lat="44.337422185057065" lon="10.866009543008948"><ele>755.0</ele><time>2026-04-06T17:26:32Z</time></trkpt><trkpt lat="44.33740308701447" lon="10.865914889571735"><ele>755.0</ele><time>2026-04-06T17:26:33Z</time></trkpt><trkpt lat="44.33738554393511" lon="10.865788357514495"><ele>755.5</ele><time>2026-04-06T17:26:34Z</time></trkpt><trkpt lat="44.33736655195746" lon="10.865667510982485"><ele>756.0</ele><time>2026-04-06T17:26:35Z</time></trkpt><trkpt lat="44.33733632294277" lon="10.865567434662367"><ele>756.5</ele><time>2026-04-06T17:26:36Z</time></trkpt><trkpt lat="44.33729879962521" lon="10.865462767780748"><ele>757.0</ele><time>2026-04-06T17:26:37Z</time></trkpt><trkpt lat="44.33725258612628" lon="10.865347765608615"><ele>757.5</ele><time>2026-04-06T17:26:38Z</time></trkpt><trkpt lat="44.33722212430871" lon="10.865247935178434"><ele>758.0</ele><time>2026-04-06T17:26:39Z</time></trkpt><trkpt lat="44.337194932352666" lon="10.865161263724051"><ele>757.1428571428572</ele><time>2026-04-06T17:26:40Z</time></trkpt><trkpt lat="44.33716113856465" lon="10.86507904247489"><ele>756.2857142857143</ele><time>2026-04-06T17:26:41Z</time></trkpt><trkpt lat="44.33713091650427" lon="10.864994088376946"><ele>755.4285714285714</ele><time>2026-04-06T17:26:42Z</time></trkpt><trkpt lat="44.33711664085524" lon="10.864905302837553"><ele>754.5714285714287</ele><time>2026-04-06T17:26:43Z</time></trkpt><trkpt lat="44.33710645768643" lon="10.864812691500907"><ele>753.7142857142857</ele><time>2026-04-06T17:26:44Z</time></trkpt><trkpt lat="44.337090683781504" lon="10.864679078959135"><ele>752.8571428571429</ele><time>2026-04-06T17:26:46Z</time></trkpt><trkpt lat="44.337066553417486" lon="10.864584060811218"><ele>752.0</ele><time>2026-04-06T17:26:49Z</time></trkpt><trkpt lat="44.337030368033076" lon="10.864450251804234"><ele>752.0</ele><time>2026-04-06T17:27:03Z</time></trkpt><trkpt lat="44.336967417071826" lon="10.864289453853473"><ele>752.0</ele><time>2026-04-06T17:27:05Z</time></trkpt><trkpt lat="44.336928090876356" lon="10.864195152282564"><ele>752.0</ele><time>2026-04-06T17:27:06Z</time></trkpt><trkpt lat="44.3368641212492" lon="10.864102503647564"><ele>752.0</ele><time>2026-04-06T17:27:07Z</time></trkpt><trkpt lat="44.336808979682154" lon="10.864000065648483"><ele>752.0</ele><time>2026-04-06T17:27:08Z</time></trkpt><trkpt lat="44.33676356402955" lon="10.863927218567307"><ele>753.0</ele><time>2026-04-06T17:27:09Z</time></trkpt><trkpt lat="44.33671411844" lon="10.863829335423997"><ele>754.0</ele><time>2026-04-06T17:27:10Z</time></trkpt><trkpt lat="44.33667343046555" lon="10.863754400648716"><ele>755.0</ele><time>2026-04-06T17:27:11Z</time></trkpt><trkpt lat="44.336673601400236" lon="10.86357923502097"><ele>756.0</ele><time>2026-04-06T17:27:13Z</time></trkpt><trkpt lat="44.3366495914669" lon="10.86344816762088"><ele>757.0</ele><time>2026-04-06T17:27:14Z</time></trkpt><trkpt lat="44.336609596909284" lon="10.863296609215674"><ele>758.0</ele><time>2026-04-06T17:27:15Z</time></trkpt><trkpt lat="44.336571084196436" lon="10.863110715748032"><ele>759.0</ele><time>2026-04-06T17:27:16Z</time></trkpt><trkpt lat="44.336538079947964" lon="10.862930075181009"><ele>760.0</ele><time>2026-04-06T17:27:17Z</time></trkpt><trkpt lat="44.33650049687324" lon="10.862784004341535"><ele>761.0</ele><time>2026-04-06T17:27:18Z</time></trkpt><trkpt lat="44.33646072071631" lon="10.862630923020603"><ele>762.0</ele><time>2026-04-06T17:27:18.999Z</time></trkpt><trkpt lat="44.3364520408841" lon="10.862447893325552"><ele>763.0</ele><time>2026-04-06T17:27:19.999Z</time></trkpt><trkpt lat="44.336443217075455" lon="10.862230315793706"><ele>764.0</ele><time>2026-04-06T17:27:20.999Z</time></trkpt><trkpt lat="44.33642696921317" lon="10.86199536457827"><ele>764.6666666666666</ele><time>2026-04-06T17:27:21.999Z</time></trkpt><trkpt lat="44.336419334988975" lon="10.861740505764832"><ele>765.3333333333334</ele><time>2026-04-06T17:27:22.999Z</time></trkpt><trkpt lat="44.33641094759023" lon="10.861519713287777"><ele>766.0</ele><time>2026-04-06T17:27:23.999Z</time></trkpt><trkpt lat="44.33639013719755" lon="10.861330668207101"><ele>765.5999999999999</ele><time>2026-04-06T17:27:24.999Z</time></trkpt><trkpt lat="44.33636542935025" lon="10.861144733748286"><ele>765.2</ele><time>2026-04-06T17:27:25.999Z</time></trkpt><trkpt lat="44.336341743120045" lon="10.860979562503724"><ele>764.8</ele><time>2026-04-06T17:27:26.999Z</time></trkpt><trkpt lat="44.336321871129755" lon="10.860836927704954"><ele>764.4000000000001</ele><time>2026-04-06T17:27:27.999Z</time></trkpt><trkpt lat="44.336299939984606" lon="10.860719151588226"><ele>764.0</ele><time>2026-04-06T17:27:28.999Z</time></trkpt><trkpt lat="44.33628413566498" lon="10.860627023639502"><ele>765.25</ele><time>2026-04-06T17:27:29.999Z</time></trkpt><trkpt lat="44.33625821638524" lon="10.860485116938307"><ele>766.5</ele><time>2026-04-06T17:27:31.999Z</time></trkpt><trkpt lat="44.33608112811707" lon="10.860362067636265"><ele>767.75</ele><time>2026-04-06T17:27:35.999Z</time></trkpt><trkpt lat="44.33596941958328" lon="10.860304216623772"><ele>769.0</ele><time>2026-04-06T17:27:36.999Z</time></trkpt><trkpt lat="44.33585156443919" lon="10.860211721368485"><ele>769.0</ele><time>2026-04-06T17:27:37.999Z</time></trkpt><trkpt lat="44.335724376269624" lon="10.860100495739175"><ele>769.0</ele><time>2026-04-06T17:27:38.999Z</time></trkpt><trkpt lat="44.33560392270828" lon="10.860001840223513"><ele>769.0</ele><time>2026-04-06T17:27:39.999Z</time></trkpt><trkpt lat="44.33549132788879" lon="10.859926304956923"><ele>769.0</ele><time>2026-04-06T17:27:40.999Z</time></trkpt><trkpt lat="44.33535507502444" lon="10.85989481923956"><ele>768.75</ele><time>2026-04-06T17:27:41.999Z</time></trkpt><trkpt lat="44.33522172828793" lon="10.859908623044872"><ele>768.5</ele><time>2026-04-06T17:27:42.999Z</time></trkpt><trkpt lat="44.335088855015236" lon="10.85996407131689"><ele>768.25</ele><time>2026-04-06T17:27:43.999Z</time></trkpt><trkpt lat="44.33496107577744" lon="10.86000660018985"><ele>768.0</ele><time>2026-04-06T17:27:44.999Z</time></trkpt><trkpt lat="44.33482725777008" lon="10.860038908771596"><ele>767.0</ele><time>2026-04-06T17:27:45.999Z</time></trkpt><trkpt lat="44.334701341498345" lon="10.860072473817288"><ele>766.0</ele><time>2026-04-06T17:27:46.999Z</time></trkpt><trkpt lat="44.33456847908717" lon="10.86011158714693"><ele>765.0</ele><time>2026-04-06T17:27:47.999Z</time></trkpt><trkpt lat="44.33443419647204" lon="10.860147910565686"><ele>764.0</ele><time>2026-04-06T17:27:48.999Z</time></trkpt><trkpt lat="44.3343000121445" lon="10.860163674618951"><ele>764.0</ele><time>2026-04-06T17:27:49.999Z</time></trkpt><trkpt lat="44.33417529281423" lon="10.8601445258633"><ele>764.0</ele><time>2026-04-06T17:27:50.999Z</time></trkpt><trkpt lat="44.334065954920064" lon="10.860036347761266"><ele>764.0</ele><time>2026-04-06T17:27:51.999Z</time></trkpt><trkpt lat="44.3339555869443" lon="10.859931794664302"><ele>764.0</ele><time>2026-04-06T17:27:52.999Z</time></trkpt><trkpt lat="44.333843243635556" lon="10.859811963718986"><ele>764.25</ele><time>2026-04-06T17:27:53.999Z</time></trkpt><trkpt lat="44.333732364346986" lon="10.859678456892281"><ele>764.5</ele><time>2026-04-06T17:27:54.999Z</time></trkpt><trkpt lat="44.33361911735303" lon="10.85954384387518"><ele>764.75</ele><time>2026-04-06T17:27:55.999Z</time></trkpt><trkpt lat="44.33350190497415" lon="10.859426792166024"><ele>765.0</ele><time>2026-04-06T17:27:56.999Z</time></trkpt><trkpt lat="44.333402789178095" lon="10.859311508505693"><ele>766.25</ele><time>2026-04-06T17:27:57.999Z</time></trkpt><trkpt lat="44.333293539058" lon="10.859194449663551"><ele>767.5</ele><time>2026-04-06T17:27:58.999Z</time></trkpt><trkpt lat="44.33319292747116" lon="10.859055581325565"><ele>768.75</ele><time>2026-04-06T17:27:59.999Z</time></trkpt><trkpt lat="44.333073215956674" lon="10.858917823136952"><ele>770.0</ele><time>2026-04-06T17:28:00.999Z</time></trkpt><trkpt lat="44.332934724527355" lon="10.858786509782005"><ele>771.5</ele><time>2026-04-06T17:28:01.999Z</time></trkpt><trkpt lat="44.332807698228514" lon="10.858643943545658"><ele>773.0</ele><time>2026-04-06T17:28:02.999Z</time></trkpt><trkpt lat="44.33270662250728" lon="10.858529197748892"><ele>774.5</ele><time>2026-04-06T17:28:03.999Z</time></trkpt><trkpt lat="44.332608686088534" lon="10.858413317259059"><ele>776.0</ele><time>2026-04-06T17:28:04.999Z</time></trkpt><trkpt lat="44.3325041966815" lon="10.858284356503725"><ele>776.0</ele><time>2026-04-06T17:28:05.999Z</time></trkpt><trkpt lat="44.33243072030505" lon="10.858146125925186"><ele>776.0</ele><time>2026-04-06T17:28:06.999Z</time></trkpt><trkpt lat="44.33234633322116" lon="10.857994525611888"><ele>776.0</ele><time>2026-04-06T17:28:07.999Z</time></trkpt><trkpt lat="44.332266890913345" lon="10.85785550801915"><ele>776.0</ele><time>2026-04-06T17:28:08.999Z</time></trkpt><trkpt lat="44.3321886734305" lon="10.857734481860595"><ele>778.0</ele><time>2026-04-06T17:28:09.999Z</time></trkpt><trkpt lat="44.33212070039694" lon="10.857630698394836"><ele>780.0</ele><time>2026-04-06T17:28:10.999Z</time></trkpt><trkpt lat="44.33206245500831" lon="10.857534967681978"><ele>782.0</ele><time>2026-04-06T17:28:11.999Z</time></trkpt><trkpt lat="44.3319938530546" lon="10.857433719355152"><ele>784.0</ele><time>2026-04-06T17:28:12.999Z</time></trkpt><trkpt lat="44.33196302106364" lon="10.857297328122455"><ele>786.0</ele><time>2026-04-06T17:28:13.999Z</time></trkpt><trkpt lat="44.33195122091595" lon="10.857170584218744"><ele>786.0</ele><time>2026-04-06T17:28:14.999Z</time></trkpt><trkpt lat="44.33195066947591" lon="10.857039420524059"><ele>786.0</ele><time>2026-04-06T17:28:15.999Z</time></trkpt><trkpt lat="44.33194692011051" lon="10.856940688881634"><ele>786.0</ele><time>2026-04-06T17:28:16.999Z</time></trkpt><trkpt lat="44.33192338514352" lon="10.856819176745363"><ele>786.0</ele><time>2026-04-06T17:28:17.999Z</time></trkpt><trkpt lat="44.331928158646505" lon="10.856707763764495"><ele>786.0</ele><time>2026-04-06T17:28:18.999Z</time></trkpt><trkpt lat="44.33188168975701" lon="10.8566175203288"><ele>786.0</ele><time>2026-04-06T17:28:19.999Z</time></trkpt><trkpt lat="44.33185310794154" lon="10.856518141677173"><ele>784.4</ele><time>2026-04-06T17:28:20.999Z</time></trkpt><trkpt lat="44.33174364582112" lon="10.856447368082973"><ele>782.8</ele><time>2026-04-06T17:28:21.999Z</time></trkpt><trkpt lat="44.33165493519844" lon="10.856372062561187"><ele>781.1999999999999</ele><time>2026-04-06T17:28:22.999Z</time></trkpt><trkpt lat="44.33155700098942" lon="10.85632030536684"><ele>779.5999999999999</ele><time>2026-04-06T17:28:24Z</time></trkpt><trkpt lat="44.331471274027386" lon="10.856292385601812"><ele>778.0</ele><time>2026-04-06T17:28:25Z</time></trkpt><trkpt lat="44.331390564823906" lon="10.856283859098337"><ele>776.4</ele><time>2026-04-06T17:28:26Z</time></trkpt><trkpt lat="44.331292057387714" lon="10.856297546839595"><ele>774.8</ele><time>2026-04-06T17:28:27Z</time></trkpt><trkpt lat="44.33118875368396" lon="10.85627505771107"><ele>773.2</ele><time>2026-04-06T17:28:28Z</time></trkpt><trkpt lat="44.33110565728851" lon="10.85626064442485"><ele>771.6</ele><time>2026-04-06T17:28:29Z</time></trkpt><trkpt lat="44.331005595888946" lon="10.856232166424935"><ele>770.0</ele><time>2026-04-06T17:28:30Z</time></trkpt><trkpt lat="44.330900600108706" lon="10.856229045977885"><ele>770.0</ele><time>2026-04-06T17:28:31Z</time></trkpt><trkpt lat="44.330794650886055" lon="10.856206992867506"><ele>770.0</ele><time>2026-04-06T17:28:32Z</time></trkpt><trkpt lat="44.33067876974206" lon="10.856175374132961"><ele>770.0</ele><time>2026-04-06T17:28:33Z</time></trkpt><trkpt lat="44.330568799927825" lon="10.856131460177144"><ele>770.0</ele><time>2026-04-06T17:28:34Z</time></trkpt><trkpt lat="44.33045725287957" lon="10.856080295606809"><ele>770.3333333333334</ele><time>2026-04-06T17:28:35Z</time></trkpt><trkpt lat="44.33035253567931" lon="10.85605024885185"><ele>770.6666666666667</ele><time>2026-04-06T17:28:36Z</time></trkpt><trkpt lat="44.33025934451993" lon="10.85603088832777"><ele>771.0</ele><time>2026-04-06T17:28:37Z</time></trkpt><trkpt lat="44.330179183944395" lon="10.856021079534377"><ele>771.3333333333333</ele><time>2026-04-06T17:28:38Z</time></trkpt><trkpt lat="44.330112474219575" lon="10.855982895549484"><ele>771.6666666666666</ele><time>2026-04-06T17:28:39Z</time></trkpt><trkpt lat="44.33002658055156" lon="10.8559375402977"><ele>772.0</ele><time>2026-04-06T17:28:40Z</time></trkpt><trkpt lat="44.329932795322776" lon="10.855886329183372"><ele>771.9999999999999</ele><time>2026-04-06T17:28:41Z</time></trkpt><trkpt lat="44.32984210970564" lon="10.855844823064734"><ele>772.0</ele><time>2026-04-06T17:28:42Z</time></trkpt><trkpt lat="44.329758047613595" lon="10.855812660592502"><ele>772.0</ele><time>2026-04-06T17:28:43Z</time></trkpt><trkpt lat="44.329668746248245" lon="10.855803952118038"><ele>772.0</ele><time>2026-04-06T17:28:44Z</time></trkpt><trkpt lat="44.32959050116469" lon="10.855788799626664"><ele>771.9999999999999</ele><time>2026-04-06T17:28:45Z</time></trkpt><trkpt lat="44.32949260839115" lon="10.855783539866447"><ele>772.0</ele><time>2026-04-06T17:28:46Z</time></trkpt><trkpt lat="44.32940108735619" lon="10.85576902289633"><ele>770.4999999999999</ele><time>2026-04-06T17:28:47Z</time></trkpt><trkpt lat="44.32931292999015" lon="10.855806610974625"><ele>769.0</ele><time>2026-04-06T17:28:48Z</time></trkpt><trkpt lat="44.329219290944536" lon="10.855821176337459"><ele>767.5</ele><time>2026-04-06T17:28:49Z</time></trkpt><trkpt lat="44.32913393054437" lon="10.855820921364899"><ele>766.0</ele><time>2026-04-06T17:28:50Z</time></trkpt><trkpt lat="44.329058466012185" lon="10.85579056118188"><ele>764.5</ele><time>2026-04-06T17:28:51Z</time></trkpt><trkpt lat="44.3289756865837" lon="10.855736600029957"><ele>763.0</ele><time>2026-04-06T17:28:52Z</time></trkpt><trkpt lat="44.32890497230727" lon="10.85567276433369"><ele>761.0</ele><time>2026-04-06T17:28:53Z</time></trkpt><trkpt lat="44.32883471610694" lon="10.855609005236417"><ele>759.0</ele><time>2026-04-06T17:28:54Z</time></trkpt><trkpt lat="44.328757521632404" lon="10.855518521968476"><ele>757.0</ele><time>2026-04-06T17:28:55Z</time></trkpt><trkpt lat="44.32870707741512" lon="10.855386768913933"><ele>755.0</ele><time>2026-04-06T17:28:56Z</time></trkpt><trkpt lat="44.32864225410159" lon="10.855249158353914"><ele>753.0</ele><time>2026-04-06T17:28:57Z</time></trkpt><trkpt lat="44.32858206907704" lon="10.85512222654142"><ele>755.5999999999999</ele><time>2026-04-06T17:28:58Z</time></trkpt><trkpt lat="44.32852124427812" lon="10.85500408892575"><ele>758.1999999999999</ele><time>2026-04-06T17:28:59Z</time></trkpt><trkpt lat="44.32845951891346" lon="10.854880978623132"><ele>760.8</ele><time>2026-04-06T17:29:00Z</time></trkpt><trkpt lat="44.32839723712526" lon="10.854777781239607"><ele>763.4</ele><time>2026-04-06T17:29:01Z</time></trkpt><trkpt lat="44.328351508615505" lon="10.854672336098098"><ele>766.0</ele><time>2026-04-06T17:29:02Z</time></trkpt><trkpt lat="44.3282986421449" lon="10.854573973451801"><ele>766.0</ele><time>2026-04-06T17:29:03Z</time></trkpt><trkpt lat="44.32826401375095" lon="10.854472250115908"><ele>766.0</ele><time>2026-04-06T17:29:04Z</time></trkpt><trkpt lat="44.32824190412017" lon="10.854332686696031"><ele>766.0</ele><time>2026-04-06T17:29:05Z</time></trkpt><trkpt lat="44.32822311486605" lon="10.854215843110838"><ele>766.0</ele><time>2026-04-06T17:29:06Z</time></trkpt><trkpt lat="44.32820040769889" lon="10.8540841846785"><ele>766.0</ele><time>2026-04-06T17:29:07Z</time></trkpt><trkpt lat="44.32818799483316" lon="10.853960683309108"><ele>766.0</ele><time>2026-04-06T17:29:08Z</time></trkpt><trkpt lat="44.328193274887816" lon="10.853843604561783"><ele>766.0</ele><time>2026-04-06T17:29:09Z</time></trkpt><trkpt lat="44.32821634820585" lon="10.853723592367684"><ele>766.0</ele><time>2026-04-06T17:29:10Z</time></trkpt><trkpt lat="44.32823921259866" lon="10.853611464266386"><ele>766.0</ele><time>2026-04-06T17:29:11Z</time></trkpt><trkpt lat="44.32825450044497" lon="10.853498543806618"><ele>766.0</ele><time>2026-04-06T17:29:12Z</time></trkpt><trkpt lat="44.32828104042906" lon="10.85338529479347"><ele>766.0</ele><time>2026-04-06T17:29:13Z</time></trkpt><trkpt lat="44.32830384535763" lon="10.853293383496155"><ele>765.6666666666667</ele><time>2026-04-06T17:29:14Z</time></trkpt><trkpt lat="44.328312441862835" lon="10.85319146924386"><ele>765.3333333333334</ele><time>2026-04-06T17:29:15Z</time></trkpt><trkpt lat="44.328332714246244" lon="10.853086698112916"><ele>765.0</ele><time>2026-04-06T17:29:16Z</time></trkpt><trkpt lat="44.32834546720103" lon="10.852992995831308"><ele>764.6666666666666</ele><time>2026-04-06T17:29:17Z</time></trkpt><trkpt lat="44.32837556134945" lon="10.852903389625776"><ele>764.3333333333333</ele><time>2026-04-06T17:29:18Z</time></trkpt><trkpt lat="44.32839773779932" lon="10.85281431687269"><ele>764.0</ele><time>2026-04-06T17:29:19Z</time></trkpt><trkpt lat="44.32839245189525" lon="10.852642809988428"><ele>763.5</ele><time>2026-04-06T17:29:21Z</time></trkpt><trkpt lat="44.32836027671994" lon="10.852566036235125"><ele>763.0</ele><time>2026-04-06T17:29:21.999Z</time></trkpt><trkpt lat="44.328309851199926" lon="10.852477766014465"><ele>762.5</ele><time>2026-04-06T17:29:22.999Z</time></trkpt><trkpt lat="44.328249660820696" lon="10.852382523856567"><ele>762.0</ele><time>2026-04-06T17:29:23.999Z</time></trkpt><trkpt lat="44.32818159435857" lon="10.852298797428336"><ele>761.5</ele><time>2026-04-06T17:29:24.999Z</time></trkpt><trkpt lat="44.32811529211047" lon="10.852237655125885"><ele>761.0</ele><time>2026-04-06T17:29:25.999Z</time></trkpt><trkpt lat="44.32805118561452" lon="10.852176032456772"><ele>760.5</ele><time>2026-04-06T17:29:26.999Z</time></trkpt><trkpt lat="44.32799417707607" lon="10.852112007460823"><ele>760.0</ele><time>2026-04-06T17:29:27.999Z</time></trkpt><trkpt lat="44.32792892312811" lon="10.85204912726037"><ele>759.5</ele><time>2026-04-06T17:29:28.999Z</time></trkpt><trkpt lat="44.32786892403004" lon="10.851990795980367"><ele>759.0</ele><time>2026-04-06T17:29:29.999Z</time></trkpt><trkpt lat="44.32781110533279" lon="10.85192333037469"><ele>758.5</ele><time>2026-04-06T17:29:30.999Z</time></trkpt><trkpt lat="44.327744550659354" lon="10.85180037917391"><ele>758.0</ele><time>2026-04-06T17:29:31.999Z</time></trkpt><trkpt lat="44.32769297661141" lon="10.851727805340527"><ele>758.0</ele><time>2026-04-06T17:29:32.999Z</time></trkpt><trkpt lat="44.32761496480607" lon="10.851644670481589"><ele>758.0</ele><time>2026-04-06T17:29:33.999Z</time></trkpt><trkpt lat="44.32755398810543" lon="10.851562733192482"><ele>758.0</ele><time>2026-04-06T17:29:34.999Z</time></trkpt><trkpt lat="44.32748433105867" lon="10.85146402800573"><ele>758.0</ele><time>2026-04-06T17:29:35.999Z</time></trkpt><trkpt lat="44.327420707990946" lon="10.851381543919182"><ele>758.0</ele><time>2026-04-06T17:29:36.999Z</time></trkpt><trkpt lat="44.32734932783299" lon="10.851282551232217"><ele>758.0</ele><time>2026-04-06T17:29:38.999Z</time></trkpt><trkpt lat="44.32723698579461" lon="10.851158132416776"><ele>758.0</ele><time>2026-04-06T17:29:39.999Z</time></trkpt><trkpt lat="44.32717431658928" lon="10.851074170280631"><ele>758.0</ele><time>2026-04-06T17:29:40.999Z</time></trkpt><trkpt lat="44.32710762113921" lon="10.850989807679966"><ele>758.0</ele><time>2026-04-06T17:29:41.999Z</time></trkpt><trkpt lat="44.32704015426313" lon="10.850907715768985"><ele>758.0</ele><time>2026-04-06T17:29:42.999Z</time></trkpt><trkpt lat="44.326978884386406" lon="10.850825669366596"><ele>758.5</ele><time>2026-04-06T17:29:43.999Z</time></trkpt><trkpt lat="44.32691445780609" lon="10.850736456151422"><ele>759.0</ele><time>2026-04-06T17:29:44.999Z</time></trkpt><trkpt lat="44.32684897553946" lon="10.850640905374263"><ele>759.5</ele><time>2026-04-06T17:29:45.999Z</time></trkpt><trkpt lat="44.326794816514834" lon="10.850549173254686"><ele>760.0</ele><time>2026-04-06T17:29:46.999Z</time></trkpt><trkpt lat="44.32675220393597" lon="10.850478035043352"><ele>760.5</ele><time>2026-04-06T17:29:47.999Z</time></trkpt><trkpt lat="44.32670611065084" lon="10.850414065247959"><ele>761.0</ele><time>2026-04-06T17:29:48.999Z</time></trkpt><trkpt lat="44.32660150891578" lon="10.850325130490315"><ele>761.0</ele><time>2026-04-06T17:29:50.999Z</time></trkpt><trkpt lat="44.32652860213084" lon="10.85026809261043"><ele>761.0</ele><time>2026-04-06T17:29:51.999Z</time></trkpt><trkpt lat="44.32645459924379" lon="10.850211160714334"><ele>761.0</ele><time>2026-04-06T17:29:52.999Z</time></trkpt><trkpt lat="44.32637188067215" lon="10.850165544902582"><ele>761.0</ele><time>2026-04-06T17:29:53.999Z</time></trkpt><trkpt lat="44.3263030474593" lon="10.850145258375719"><ele>761.0</ele><time>2026-04-06T17:29:54.999Z</time></trkpt><trkpt lat="44.326233340825034" lon="10.85012224780163"><ele>761.0</ele><time>2026-04-06T17:29:55.999Z</time></trkpt><trkpt lat="44.326168791239255" lon="10.850108407700777"><ele>759.1428571428571</ele><time>2026-04-06T17:29:56.999Z</time></trkpt><trkpt lat="44.32610525635855" lon="10.850105352577954"><ele>757.2857142857142</ele><time>2026-04-06T17:29:57.999Z</time></trkpt><trkpt lat="44.32602984345924" lon="10.850092187352008"><ele>755.4285714285713</ele><time>2026-04-06T17:29:58.999Z</time></trkpt><trkpt lat="44.3259625771113" lon="10.850071592722562"><ele>753.5714285714286</ele><time>2026-04-06T17:29:59.999Z</time></trkpt><trkpt lat="44.32589401243347" lon="10.850041168284758"><ele>751.7142857142858</ele><time>2026-04-06T17:30:00.999Z</time></trkpt><trkpt lat="44.32583085434259" lon="10.850015794866945"><ele>749.8571428571428</ele><time>2026-04-06T17:30:01.999Z</time></trkpt><trkpt lat="44.32576108654479" lon="10.849979712765586"><ele>748.0</ele><time>2026-04-06T17:30:02.999Z</time></trkpt><trkpt lat="44.325649102678575" lon="10.849916739148671"><ele>748.0</ele><time>2026-04-06T17:30:04.999Z</time></trkpt><trkpt lat="44.325579241818474" lon="10.84989889607146"><ele>748.0</ele><time>2026-04-06T17:30:05.999Z</time></trkpt><trkpt lat="44.32549927861567" lon="10.849879972468953"><ele>748.0</ele><time>2026-04-06T17:30:06.999Z</time></trkpt><trkpt lat="44.325423793187056" lon="10.849827794458447"><ele>748.0</ele><time>2026-04-06T17:30:07.999Z</time></trkpt><trkpt lat="44.32535039586338" lon="10.849796102005833"><ele>748.0</ele><time>2026-04-06T17:30:08.999Z</time></trkpt><trkpt lat="44.32527537534792" lon="10.849779967123563"><ele>748.0</ele><time>2026-04-06T17:30:09.999Z</time></trkpt><trkpt lat="44.325214041049975" lon="10.849733003015139"><ele>746.3333333333334</ele><time>2026-04-06T17:30:10.999Z</time></trkpt><trkpt lat="44.32513104287856" lon="10.849703410751752"><ele>744.6666666666667</ele><time>2026-04-06T17:30:11.999Z</time></trkpt><trkpt lat="44.3250520476174" lon="10.849661153457486"><ele>743.0</ele><time>2026-04-06T17:30:12.999Z</time></trkpt><trkpt lat="44.32498273304705" lon="10.849629056685492"><ele>741.3333333333334</ele><time>2026-04-06T17:30:13.999Z</time></trkpt><trkpt lat="44.32490593906383" lon="10.849589202123097"><ele>739.6666666666666</ele><time>2026-04-06T17:30:14.999Z</time></trkpt><trkpt lat="44.32484771552656" lon="10.849546369151676"><ele>738.0</ele><time>2026-04-06T17:30:15.999Z</time></trkpt><trkpt lat="44.32480110513274" lon="10.84947240730225"><ele>738.0</ele><time>2026-04-06T17:30:16.999Z</time></trkpt><trkpt lat="44.32476007495758" lon="10.84934623083305"><ele>738.0</ele><time>2026-04-06T17:30:17.999Z</time></trkpt><trkpt lat="44.324698266371804" lon="10.849264664790622"><ele>738.0</ele><time>2026-04-06T17:30:18.999Z</time></trkpt><trkpt lat="44.32464981831479" lon="10.84920460290259"><ele>738.0</ele><time>2026-04-06T17:30:19.999Z</time></trkpt><trkpt lat="44.32459049940718" lon="10.849149311478216"><ele>738.0</ele><time>2026-04-06T17:30:20.999Z</time></trkpt><trkpt lat="44.32452693445515" lon="10.849057597639485"><ele>738.0</ele><time>2026-04-06T17:30:22.999Z</time></trkpt><trkpt lat="44.324535048864526" lon="10.848961436073706"><ele>738.0</ele><time>2026-04-06T17:30:42Z</time></trkpt><trkpt lat="44.32457559732589" lon="10.848878607534017"><ele>738.0</ele><time>2026-04-06T17:30:44Z</time></trkpt><trkpt lat="44.324626314249244" lon="10.848790648837143"><ele>738.0</ele><time>2026-04-06T17:30:45Z</time></trkpt><trkpt lat="44.32467353772476" lon="10.848699047006637"><ele>738.0</ele><time>2026-04-06T17:30:46Z</time></trkpt><trkpt lat="44.324722442243605" lon="10.848619584280849"><ele>738.0</ele><time>2026-04-06T17:30:47Z</time></trkpt><trkpt lat="44.324771639288294" lon="10.848519971122812"><ele>738.0</ele><time>2026-04-06T17:30:48Z</time></trkpt><trkpt lat="44.32482188062823" lon="10.848451871717838"><ele>735.4</ele><time>2026-04-06T17:30:49Z</time></trkpt><trkpt lat="44.32484927327589" lon="10.84834946424854"><ele>732.8</ele><time>2026-04-06T17:30:50Z</time></trkpt><trkpt lat="44.324902950505184" lon="10.848194421349893"><ele>730.2</ele><time>2026-04-06T17:30:52Z</time></trkpt><trkpt lat="44.32490733814259" lon="10.848106400630048"><ele>727.6</ele><time>2026-04-06T17:30:53Z</time></trkpt><trkpt lat="44.3249234030628" lon="10.84796056253444"><ele>725.0</ele><time>2026-04-06T17:30:55Z</time></trkpt><trkpt lat="44.32492488046079" lon="10.847800043712331"><ele>725.0</ele><time>2026-04-06T17:30:57Z</time></trkpt><trkpt lat="44.32492599615571" lon="10.847678820098464"><ele>725.0</ele><time>2026-04-06T17:30:58Z</time></trkpt><trkpt lat="44.324843830993466" lon="10.84752903791209"><ele>725.0</ele><time>2026-04-06T17:30:59Z</time></trkpt><trkpt lat="44.32481321244431" lon="10.847348791041489"><ele>725.0</ele><time>2026-04-06T17:31:00Z</time></trkpt><trkpt lat="44.324770950319554" lon="10.84714547259138"><ele>727.5</ele><time>2026-04-06T17:31:01Z</time></trkpt><trkpt lat="44.32471507262363" lon="10.846924668407127"><ele>730.0</ele><time>2026-04-06T17:31:02Z</time></trkpt><trkpt lat="44.32465802591524" lon="10.846758735507949"><ele>732.5</ele><time>2026-04-06T17:31:03Z</time></trkpt><trkpt lat="44.324592554607264" lon="10.846616542839412"><ele>735.0</ele><time>2026-04-06T17:31:04Z</time></trkpt><trkpt lat="44.32451290282566" lon="10.846471554788247"><ele>735.0</ele><time>2026-04-06T17:31:05Z</time></trkpt><trkpt lat="44.32441980160967" lon="10.846305257098468"><ele>735.0</ele><time>2026-04-06T17:31:06Z</time></trkpt><trkpt lat="44.32431481733169" lon="10.846138061746746"><ele>735.0</ele><time>2026-04-06T17:31:07Z</time></trkpt><trkpt lat="44.32421807016293" lon="10.84599985222135"><ele>735.0</ele><time>2026-04-06T17:31:08Z</time></trkpt><trkpt lat="44.32412142698712" lon="10.845873645555491"><ele>732.6</ele><time>2026-04-06T17:31:09Z</time></trkpt><trkpt lat="44.324033023765864" lon="10.845770958177848"><ele>730.2</ele><time>2026-04-06T17:31:10Z</time></trkpt><trkpt lat="44.323955783791085" lon="10.84568380204793"><ele>727.8</ele><time>2026-04-06T17:31:11Z</time></trkpt><trkpt lat="44.323877551713736" lon="10.845626215440044"><ele>725.4</ele><time>2026-04-06T17:31:12Z</time></trkpt><trkpt lat="44.32379290693313" lon="10.845603893025695"><ele>723.0</ele><time>2026-04-06T17:31:13Z</time></trkpt><trkpt lat="44.32371167244726" lon="10.845644450194005"><ele>723.0</ele><time>2026-04-06T17:31:14Z</time></trkpt><trkpt lat="44.32362897404348" lon="10.845743252404336"><ele>723.0</ele><time>2026-04-06T17:31:15Z</time></trkpt><trkpt lat="44.32356339123069" lon="10.845887779996927"><ele>723.0</ele><time>2026-04-06T17:31:16Z</time></trkpt><trkpt lat="44.32351940328065" lon="10.846059530687103"><ele>723.0</ele><time>2026-04-06T17:31:17Z</time></trkpt><trkpt lat="44.323479113987666" lon="10.846257859601844"><ele>726.5999999999999</ele><time>2026-04-06T17:31:18Z</time></trkpt><trkpt lat="44.323433932934" lon="10.84642869908388"><ele>730.1999999999999</ele><time>2026-04-06T17:31:19Z</time></trkpt><trkpt lat="44.32338005184583" lon="10.846556820929269"><ele>733.8</ele><time>2026-04-06T17:31:20Z</time></trkpt><trkpt lat="44.32330521487435" lon="10.846636564851131"><ele>737.4</ele><time>2026-04-06T17:31:21Z</time></trkpt><trkpt lat="44.323201505045" lon="10.846671154767494"><ele>741.0</ele><time>2026-04-06T17:31:22Z</time></trkpt><trkpt lat="44.323084788302374" lon="10.846655176678002"><ele>741.75</ele><time>2026-04-06T17:31:22.999Z</time></trkpt><trkpt lat="44.32294079267125" lon="10.846645831927011"><ele>742.5</ele><time>2026-04-06T17:31:23.999Z</time></trkpt><trkpt lat="44.32279136211978" lon="10.846676989955052"><ele>743.25</ele><time>2026-04-06T17:31:24.999Z</time></trkpt><trkpt lat="44.322656142519975" lon="10.846745711385022"><ele>744.0</ele><time>2026-04-06T17:31:25.999Z</time></trkpt><trkpt lat="44.32253420304779" lon="10.84680517218451"><ele>744.0</ele><time>2026-04-06T17:31:26.999Z</time></trkpt><trkpt lat="44.32243115083812" lon="10.846825819363076"><ele>744.0</ele><time>2026-04-06T17:31:27.999Z</time></trkpt><trkpt lat="44.322342587522215" lon="10.846812945770662"><ele>744.0</ele><time>2026-04-06T17:31:28.999Z</time></trkpt><trkpt lat="44.32226014062683" lon="10.846750509858772"><ele>744.0</ele><time>2026-04-06T17:31:29.999Z</time></trkpt><trkpt lat="44.32220923293149" lon="10.846635148137866"><ele>744.0</ele><time>2026-04-06T17:31:30.999Z</time></trkpt><trkpt lat="44.322192492392524" lon="10.846473934313025"><ele>746.1666666666666</ele><time>2026-04-06T17:31:31.999Z</time></trkpt><trkpt lat="44.322147957778654" lon="10.846345699459144"><ele>748.3333333333334</ele><time>2026-04-06T17:31:32.999Z</time></trkpt><trkpt lat="44.32210922555559" lon="10.846268669284683"><ele>750.5</ele><time>2026-04-06T17:31:33.999Z</time></trkpt><trkpt lat="44.32204388696711" lon="10.846269340414949"><ele>752.6666666666667</ele><time>2026-04-06T17:31:34.999Z</time></trkpt><trkpt lat="44.32198761096551" lon="10.846343640564639"><ele>754.8333333333334</ele><time>2026-04-06T17:31:35.999Z</time></trkpt><trkpt lat="44.32196824456874" lon="10.846460849375312"><ele>757.0</ele><time>2026-04-06T17:31:36.999Z</time></trkpt><trkpt lat="44.3220008554186" lon="10.84659443829403"><ele>757.0</ele><time>2026-04-06T17:31:37.999Z</time></trkpt><trkpt lat="44.32205400469702" lon="10.84673501111431"><ele>757.0</ele><time>2026-04-06T17:31:38.999Z</time></trkpt><trkpt lat="44.32209874609683" lon="10.84687627446068"><ele>757.0</ele><time>2026-04-06T17:31:39.999Z</time></trkpt><trkpt lat="44.32212201881717" lon="10.847002146752375"><ele>757.0</ele><time>2026-04-06T17:31:40.999Z</time></trkpt><trkpt lat="44.32212886243302" lon="10.847120747367395"><ele>757.0</ele><time>2026-04-06T17:31:41.999Z</time></trkpt><trkpt lat="44.32211285450438" lon="10.84722151413712"><ele>755.1666666666667</ele><time>2026-04-06T17:31:42.999Z</time></trkpt><trkpt lat="44.322013234756895" lon="10.847319529191086"><ele>753.3333333333334</ele><time>2026-04-06T17:31:44.999Z</time></trkpt><trkpt lat="44.321943728588" lon="10.847313264982391"><ele>751.5</ele><time>2026-04-06T17:31:45.999Z</time></trkpt><trkpt lat="44.321879240252066" lon="10.847245338185665"><ele>749.6666666666666</ele><time>2026-04-06T17:31:46.999Z</time></trkpt><trkpt lat="44.321804447852195" lon="10.847242242574177"><ele>747.8333333333333</ele><time>2026-04-06T17:31:47.999Z</time></trkpt><trkpt lat="44.321704719989334" lon="10.8472155081432"><ele>746.0</ele><time>2026-04-06T17:31:48.999Z</time></trkpt><trkpt lat="44.321606662738084" lon="10.847191660740744"><ele>746.0</ele><time>2026-04-06T17:31:49.999Z</time></trkpt><trkpt lat="44.32152800575836" lon="10.847159000433585"><ele>746.0</ele><time>2026-04-06T17:31:50.999Z</time></trkpt><trkpt lat="44.32147340778621" lon="10.847091176482254"><ele>746.0</ele><time>2026-04-06T17:31:51.999Z</time></trkpt><trkpt lat="44.32140049263286" lon="10.84705665949715"><ele>746.0</ele><time>2026-04-06T17:31:52.999Z</time></trkpt><trkpt lat="44.32132789954352" lon="10.847005388696141"><ele>746.0</ele><time>2026-04-06T17:31:53.999Z</time></trkpt><trkpt lat="44.321239373186536" lon="10.846942886616599"><ele>746.0</ele><time>2026-04-06T17:31:54.999Z</time></trkpt><trkpt lat="44.32114541305459" lon="10.846849783278477"><ele>749.4</ele><time>2026-04-06T17:31:55.999Z</time></trkpt><trkpt lat="44.32105182128766" lon="10.846779039489999"><ele>752.8</ele><time>2026-04-06T17:31:56.999Z</time></trkpt><trkpt lat="44.320950624140984" lon="10.846699362219377"><ele>756.1999999999999</ele><time>2026-04-06T17:31:57.999Z</time></trkpt><trkpt lat="44.320848768838076" lon="10.846608805517205"><ele>759.5999999999999</ele><time>2026-04-06T17:31:58.999Z</time></trkpt><trkpt lat="44.3207671323089" lon="10.846516353861306"><ele>763.0</ele><time>2026-04-06T17:31:59.999Z</time></trkpt><trkpt lat="44.320681443382576" lon="10.846413064328381"><ele>763.0</ele><time>2026-04-06T17:32:00.999Z</time></trkpt><trkpt lat="44.320581607211025" lon="10.84627863724002"><ele>763.0</ele><time>2026-04-06T17:32:01.999Z</time></trkpt><trkpt lat="44.32047736946388" lon="10.846135447336382"><ele>763.0</ele><time>2026-04-06T17:32:02.999Z</time></trkpt><trkpt lat="44.32038957380433" lon="10.846000254053834"><ele>763.0</ele><time>2026-04-06T17:32:03.999Z</time></trkpt><trkpt lat="44.320301545293646" lon="10.84588967036722"><ele>764.0</ele><time>2026-04-06T17:32:04.999Z</time></trkpt><trkpt lat="44.32021359590574" lon="10.845783692126256"><ele>765.0</ele><time>2026-04-06T17:32:05.999Z</time></trkpt><trkpt lat="44.320112860279195" lon="10.845674791323264"><ele>766.0</ele><time>2026-04-06T17:32:06.999Z</time></trkpt><trkpt lat="44.320004291263515" lon="10.84555684418663"><ele>767.0</ele><time>2026-04-06T17:32:07.999Z</time></trkpt><trkpt lat="44.31989517332462" lon="10.845454783298896"><ele>767.0</ele><time>2026-04-06T17:32:08.999Z</time></trkpt><trkpt lat="44.31979349613988" lon="10.845368902672842"><ele>767.0</ele><time>2026-04-06T17:32:09.999Z</time></trkpt><trkpt lat="44.319680800632135" lon="10.845299479947679"><ele>767.0</ele><time>2026-04-06T17:32:10.999Z</time></trkpt><trkpt lat="44.319569320282774" lon="10.845234477475602"><ele>767.0</ele><time>2026-04-06T17:32:11.999Z</time></trkpt><trkpt lat="44.31945420498869" lon="10.845172027130902"><ele>765.75</ele><time>2026-04-06T17:32:12.999Z</time></trkpt><trkpt lat="44.31933705645664" lon="10.845105309994166"><ele>764.5</ele><time>2026-04-06T17:32:13.999Z</time></trkpt><trkpt lat="44.3192383894634" lon="10.845027271215285"><ele>763.25</ele><time>2026-04-06T17:32:14.999Z</time></trkpt><trkpt lat="44.319145293501464" lon="10.844920721378706"><ele>762.0</ele><time>2026-04-06T17:32:15.999Z</time></trkpt><trkpt lat="44.31905657975595" lon="10.844804991284956"><ele>762.0</ele><time>2026-04-06T17:32:16.999Z</time></trkpt><trkpt lat="44.318985108937156" lon="10.844687947397913"><ele>762.0</ele><time>2026-04-06T17:32:17.999Z</time></trkpt><trkpt lat="44.318948220240905" lon="10.844541523894222"><ele>762.0</ele><time>2026-04-06T17:32:18.999Z</time></trkpt><trkpt lat="44.31889520748489" lon="10.844410910345792"><ele>762.0</ele><time>2026-04-06T17:32:19.999Z</time></trkpt><trkpt lat="44.31886546239681" lon="10.844292962493826"><ele>762.0</ele><time>2026-04-06T17:32:20.999Z</time></trkpt><trkpt lat="44.318812840164725" lon="10.844176734572022"><ele>762.2</ele><time>2026-04-06T17:32:21.999Z</time></trkpt><trkpt lat="44.31873522749883" lon="10.84407078144318"><ele>762.4000000000001</ele><time>2026-04-06T17:32:22.999Z</time></trkpt><trkpt lat="44.3186554094395" lon="10.843974173515912"><ele>762.5999999999999</ele><time>2026-04-06T17:32:23.999Z</time></trkpt><trkpt lat="44.31857048270344" lon="10.843886269111328"><ele>762.8</ele><time>2026-04-06T17:32:24.999Z</time></trkpt><trkpt lat="44.31847899762398" lon="10.843824370162258"><ele>763.0</ele><time>2026-04-06T17:32:25.999Z</time></trkpt><trkpt lat="44.31837471427556" lon="10.843774230440866"><ele>763.0</ele><time>2026-04-06T17:32:26.999Z</time></trkpt><trkpt lat="44.31825154719369" lon="10.843716992301829"><ele>763.0</ele><time>2026-04-06T17:32:27.999Z</time></trkpt><trkpt lat="44.31812491298793" lon="10.843657449958204"><ele>763.0</ele><time>2026-04-06T17:32:28.999Z</time></trkpt><trkpt lat="44.317986004337634" lon="10.843595546155951"><ele>763.0</ele><time>2026-04-06T17:32:29.998Z</time></trkpt><trkpt lat="44.31784744646504" lon="10.843534491913275"><ele>762.0</ele><time>2026-04-06T17:32:30.998Z</time></trkpt><trkpt lat="44.31770820206302" lon="10.843477731835836"><ele>761.0</ele><time>2026-04-06T17:32:31.998Z</time></trkpt><trkpt lat="44.31756141180729" lon="10.843425986237422"><ele>760.0</ele><time>2026-04-06T17:32:32.998Z</time></trkpt><trkpt lat="44.31741883752077" lon="10.843373961546341"><ele>759.0</ele><time>2026-04-06T17:32:33.998Z</time></trkpt><trkpt lat="44.317280827622206" lon="10.843322923965545"><ele>758.5</ele><time>2026-04-06T17:32:34.998Z</time></trkpt><trkpt lat="44.31716001619735" lon="10.843253134399449"><ele>758.0</ele><time>2026-04-06T17:32:36Z</time></trkpt><trkpt lat="44.31704905253975" lon="10.843169371324096"><ele>757.5</ele><time>2026-04-06T17:32:37Z</time></trkpt><trkpt lat="44.31693984881098" lon="10.843079789166563"><ele>757.0</ele><time>2026-04-06T17:32:38Z</time></trkpt><trkpt lat="44.31683177463858" lon="10.842969693554716"><ele>757.0</ele><time>2026-04-06T17:32:39Z</time></trkpt><trkpt lat="44.31672341685505" lon="10.842854058214074"><ele>757.0</ele><time>2026-04-06T17:32:40Z</time></trkpt><trkpt lat="44.316618077706465" lon="10.842737191596884"><ele>757.0</ele><time>2026-04-06T17:32:41Z</time></trkpt><trkpt lat="44.31653393694126" lon="10.84261201585186"><ele>757.0</ele><time>2026-04-06T17:32:42Z</time></trkpt><trkpt lat="44.31647504394115" lon="10.842480392763141"><ele>757.2</ele><time>2026-04-06T17:32:43Z</time></trkpt><trkpt lat="44.3164298936693" lon="10.842339075138906"><ele>757.4000000000001</ele><time>2026-04-06T17:32:44Z</time></trkpt><trkpt lat="44.316401986885054" lon="10.842200926300476"><ele>757.5999999999999</ele><time>2026-04-06T17:32:45Z</time></trkpt><trkpt lat="44.31637955478245" lon="10.842074454059652"><ele>757.8</ele><time>2026-04-06T17:32:46Z</time></trkpt><trkpt lat="44.316356659065185" lon="10.841958079391228"><ele>758.0</ele><time>2026-04-06T17:32:47Z</time></trkpt><trkpt lat="44.31633052881734" lon="10.841832658791633"><ele>756.5999999999999</ele><time>2026-04-06T17:32:48Z</time></trkpt><trkpt lat="44.31630440688796" lon="10.841724837718022"><ele>755.1999999999999</ele><time>2026-04-06T17:32:49Z</time></trkpt><trkpt lat="44.31625152525696" lon="10.841660384007907"><ele>753.8</ele><time>2026-04-06T17:32:50Z</time></trkpt><trkpt lat="44.31615528722775" lon="10.841618849229254"><ele>752.4</ele><time>2026-04-06T17:32:51Z</time></trkpt><trkpt lat="44.31605240336274" lon="10.841631197169262"><ele>751.0</ele><time>2026-04-06T17:32:52Z</time></trkpt><trkpt lat="44.31595585850929" lon="10.841648162309493"><ele>751.0</ele><time>2026-04-06T17:32:53Z</time></trkpt><trkpt lat="44.31585420111738" lon="10.841646192353782"><ele>751.0</ele><time>2026-04-06T17:32:54Z</time></trkpt><trkpt lat="44.31574526514563" lon="10.84162917374539"><ele>751.0</ele><time>2026-04-06T17:32:55Z</time></trkpt><trkpt lat="44.31563279921856" lon="10.841607869078121"><ele>751.0</ele><time>2026-04-06T17:32:56Z</time></trkpt><trkpt lat="44.31552314231256" lon="10.841586073257103"><ele>751.0</ele><time>2026-04-06T17:32:57Z</time></trkpt><trkpt lat="44.315411608808525" lon="10.841564417503825"><ele>749.25</ele><time>2026-04-06T17:32:58Z</time></trkpt><trkpt lat="44.31530336567813" lon="10.841549190465953"><ele>747.5</ele><time>2026-04-06T17:32:59Z</time></trkpt><trkpt lat="44.31518495238668" lon="10.841539878838658"><ele>745.75</ele><time>2026-04-06T17:33:00Z</time></trkpt><trkpt lat="44.31507374542613" lon="10.841526203648293"><ele>744.0</ele><time>2026-04-06T17:33:01Z</time></trkpt><trkpt lat="44.314963468460704" lon="10.841499631063124"><ele>744.0</ele><time>2026-04-06T17:33:02Z</time></trkpt><trkpt lat="44.31485421770412" lon="10.841471516851115"><ele>744.0</ele><time>2026-04-06T17:33:03Z</time></trkpt><trkpt lat="44.314747937646146" lon="10.841453710796152"><ele>744.0</ele><time>2026-04-06T17:33:04Z</time></trkpt><trkpt lat="44.31463189381299" lon="10.841447963412934"><ele>744.0</ele><time>2026-04-06T17:33:05Z</time></trkpt><trkpt lat="44.314525984994056" lon="10.841445637379334"><ele>744.0</ele><time>2026-04-06T17:33:06Z</time></trkpt><trkpt lat="44.31442205464227" lon="10.84144450933097"><ele>743.8000000000001</ele><time>2026-04-06T17:33:07Z</time></trkpt><trkpt lat="44.31432111185145" lon="10.841434321871787"><ele>743.6</ele><time>2026-04-06T17:33:08Z</time></trkpt><trkpt lat="44.314233354214046" lon="10.841406456920033"><ele>743.4</ele><time>2026-04-06T17:33:09Z</time></trkpt><trkpt lat="44.31415211441725" lon="10.841377407580854"><ele>743.2</ele><time>2026-04-06T17:33:10Z</time></trkpt><trkpt lat="44.314056058014486" lon="10.841340997856834"><ele>743.0</ele><time>2026-04-06T17:33:11Z</time></trkpt><trkpt lat="44.31394685301402" lon="10.84130247558937"><ele>742.25</ele><time>2026-04-06T17:33:12Z</time></trkpt><trkpt lat="44.31381767659096" lon="10.841275011725747"><ele>741.5</ele><time>2026-04-06T17:33:13Z</time></trkpt><trkpt lat="44.313682588513686" lon="10.84127187169566"><ele>740.75</ele><time>2026-04-06T17:33:14Z</time></trkpt><trkpt lat="44.313557199348885" lon="10.841279580097336"><ele>740.0</ele><time>2026-04-06T17:33:15Z</time></trkpt><trkpt lat="44.31344596268915" lon="10.84128971574133"><ele>740.0</ele><time>2026-04-06T17:33:16Z</time></trkpt><trkpt lat="44.31334303653879" lon="10.841277378638704"><ele>740.0</ele><time>2026-04-06T17:33:17Z</time></trkpt><trkpt lat="44.31322974229177" lon="10.841230976665129"><ele>740.0</ele><time>2026-04-06T17:33:18Z</time></trkpt><trkpt lat="44.313091848739184" lon="10.841177538143683"><ele>740.0</ele><time>2026-04-06T17:33:19Z</time></trkpt><trkpt lat="44.312950472371604" lon="10.841126083865852"><ele>738.75</ele><time>2026-04-06T17:33:20Z</time></trkpt><trkpt lat="44.31282373206417" lon="10.841081482583402"><ele>737.5</ele><time>2026-04-06T17:33:21Z</time></trkpt><trkpt lat="44.312703086706065" lon="10.84104008323711"><ele>736.25</ele><time>2026-04-06T17:33:22Z</time></trkpt><trkpt lat="44.31258841453344" lon="10.841006247431546"><ele>735.0</ele><time>2026-04-06T17:33:23Z</time></trkpt><trkpt lat="44.3124856514864" lon="10.840997083737003"><ele>735.0</ele><time>2026-04-06T17:33:24Z</time></trkpt><trkpt lat="44.31237084599683" lon="10.841030760903106"><ele>735.0</ele><time>2026-04-06T17:33:25Z</time></trkpt><trkpt lat="44.3122588673751" lon="10.841109892166456"><ele>735.0</ele><time>2026-04-06T17:33:26Z</time></trkpt><trkpt lat="44.312143757655356" lon="10.84124214354048"><ele>735.0</ele><time>2026-04-06T17:33:26.999Z</time></trkpt><trkpt lat="44.31206511731341" lon="10.841382990538209"><ele>735.5</ele><time>2026-04-06T17:33:27.999Z</time></trkpt><trkpt lat="44.311985521697515" lon="10.841515446609439"><ele>736.0</ele><time>2026-04-06T17:33:28.999Z</time></trkpt><trkpt lat="44.3119178007552" lon="10.841633590890094"><ele>736.5</ele><time>2026-04-06T17:33:29.999Z</time></trkpt><trkpt lat="44.31184566093075" lon="10.841761085638003"><ele>737.0</ele><time>2026-04-06T17:33:30.999Z</time></trkpt><trkpt lat="44.31179197608236" lon="10.84188933836101"><ele>737.0</ele><time>2026-04-06T17:33:31.999Z</time></trkpt><trkpt lat="44.31174301199421" lon="10.842008252435457"><ele>737.0</ele><time>2026-04-06T17:33:32.999Z</time></trkpt><trkpt lat="44.31170492000574" lon="10.842113225779531"><ele>737.0</ele><time>2026-04-06T17:33:33.999Z</time></trkpt><trkpt lat="44.31166821820726" lon="10.842205925381089"><ele>737.0</ele><time>2026-04-06T17:33:34.999Z</time></trkpt><trkpt lat="44.31164046317899" lon="10.842291604356653"><ele>737.0</ele><time>2026-04-06T17:33:35.999Z</time></trkpt><trkpt lat="44.31158551401039" lon="10.842432404696089"><ele>737.0</ele><time>2026-04-06T17:33:37.999Z</time></trkpt><trkpt lat="44.31154465255753" lon="10.842539750131987"><ele>737.0</ele><time>2026-04-06T17:33:39.999Z</time></trkpt><trkpt lat="44.31159859654614" lon="10.84242937719857"><ele>737.0</ele><time>2026-04-06T17:33:47.999Z</time></trkpt><trkpt lat="44.311639219706684" lon="10.84230181509457"><ele>737.0</ele><time>2026-04-06T17:33:49.999Z</time></trkpt><trkpt lat="44.311678573612404" lon="10.842200269984478"><ele>737.0</ele><time>2026-04-06T17:33:50.999Z</time></trkpt><trkpt lat="44.31172040221461" lon="10.842078346595798"><ele>737.0</ele><time>2026-04-06T17:33:52.999Z</time></trkpt><trkpt lat="44.31176398095431" lon="10.841974078946825"><ele>737.0</ele><time>2026-04-06T17:33:53.999Z</time></trkpt><trkpt lat="44.3117935147764" lon="10.841890560500687"><ele>737.0</ele><time>2026-04-06T17:33:54.999Z</time></trkpt><trkpt lat="44.31183512420371" lon="10.841821875794503"><ele>737.0</ele><time>2026-04-06T17:33:55.999Z</time></trkpt><trkpt lat="44.311919410483355" lon="10.841685425777525"><ele>737.0</ele><time>2026-04-06T17:33:56.999Z</time></trkpt><trkpt lat="44.31199375929669" lon="10.841560443989636"><ele>737.0</ele><time>2026-04-06T17:33:57.999Z</time></trkpt><trkpt lat="44.31204104703605" lon="10.841482657777766"><ele>737.0</ele><time>2026-04-06T17:33:58.999Z</time></trkpt><trkpt lat="44.312104547690765" lon="10.841383371605858"><ele>736.6666666666666</ele><time>2026-04-06T17:33:59.999Z</time></trkpt><trkpt lat="44.312154405567355" lon="10.841309322802617"><ele>736.3333333333333</ele><time>2026-04-06T17:34:00.999Z</time></trkpt><trkpt lat="44.31220920952649" lon="10.841235145770751"><ele>736.0</ele><time>2026-04-06T17:34:01.999Z</time></trkpt><trkpt lat="44.31231223775365" lon="10.841129426555208"><ele>735.6666666666666</ele><time>2026-04-06T17:34:03.999Z</time></trkpt><trkpt lat="44.31237473870345" lon="10.841083174356067"><ele>735.3333333333334</ele><time>2026-04-06T17:34:04.999Z</time></trkpt><trkpt lat="44.31244356700104" lon="10.84105301463822"><ele>735.0</ele><time>2026-04-06T17:34:05.999Z</time></trkpt><trkpt lat="44.31250827042572" lon="10.841042730683007"><ele>735.0</ele><time>2026-04-06T17:34:06.999Z</time></trkpt><trkpt lat="44.3126287705867" lon="10.841043534057933"><ele>735.0</ele><time>2026-04-06T17:34:08.999Z</time></trkpt><trkpt lat="44.31269860801565" lon="10.841073734675005"><ele>735.0</ele><time>2026-04-06T17:34:09.999Z</time></trkpt><trkpt lat="44.31278477881022" lon="10.841105880590161"><ele>735.0</ele><time>2026-04-06T17:34:10.999Z</time></trkpt><trkpt lat="44.31288778232292" lon="10.841144794256882"><ele>735.0</ele><time>2026-04-06T17:34:11.999Z</time></trkpt><trkpt lat="44.312981016952705" lon="10.841178626634031"><ele>735.0</ele><time>2026-04-06T17:34:12.999Z</time></trkpt><trkpt lat="44.313047764897725" lon="10.841202806058885"><ele>735.0</ele><time>2026-04-06T17:34:13.999Z</time></trkpt><trkpt lat="44.313141119015235" lon="10.841236623586392"><ele>735.0</ele><time>2026-04-06T17:34:14.999Z</time></trkpt><trkpt lat="44.31324447813859" lon="10.84127221897637"><ele>735.0</ele><time>2026-04-06T17:34:15.999Z</time></trkpt><trkpt lat="44.31335639741246" lon="10.841305307654245"><ele>735.0</ele><time>2026-04-06T17:34:16.999Z</time></trkpt><trkpt lat="44.31344199581613" lon="10.841328469659281"><ele>736.25</ele><time>2026-04-06T17:34:17.999Z</time></trkpt><trkpt lat="44.31351294190499" lon="10.841320114423468"><ele>737.5</ele><time>2026-04-06T17:34:18.999Z</time></trkpt><trkpt lat="44.31361509436699" lon="10.841335785806953"><ele>738.75</ele><time>2026-04-06T17:34:20.999Z</time></trkpt><trkpt lat="44.31365082618673" lon="10.841097460692458"><ele>740.0</ele><time>2026-04-06T17:34:23.999Z</time></trkpt><trkpt lat="44.31363440906312" lon="10.840942682208286"><ele>743.75</ele><time>2026-04-06T17:34:24.999Z</time></trkpt><trkpt lat="44.31364026778444" lon="10.84073718789183"><ele>747.5</ele><time>2026-04-06T17:34:25.999Z</time></trkpt><trkpt lat="44.313646358269004" lon="10.840544787993553"><ele>751.25</ele><time>2026-04-06T17:34:26.999Z</time></trkpt><trkpt lat="44.313635099597455" lon="10.840385088906828"><ele>755.0</ele><time>2026-04-06T17:34:27.999Z</time></trkpt><trkpt lat="44.31359865547975" lon="10.84021315794087"><ele>757.6666666666666</ele><time>2026-04-06T17:34:28.999Z</time></trkpt><trkpt lat="44.31353932989935" lon="10.840008306423986"><ele>760.3333333333334</ele><time>2026-04-06T17:34:29.999Z</time></trkpt><trkpt lat="44.31348089170463" lon="10.839775608588416"><ele>763.0</ele><time>2026-04-06T17:34:30.999Z</time></trkpt><trkpt lat="44.31345148333156" lon="10.839576715046803"><ele>763.0</ele><time>2026-04-06T17:34:31.999Z</time></trkpt><trkpt lat="44.31342352124196" lon="10.839409768848617"><ele>763.0</ele><time>2026-04-06T17:34:32.999Z</time></trkpt><trkpt lat="44.313394173043555" lon="10.839267820186485"><ele>763.0</ele><time>2026-04-06T17:34:33.998Z</time></trkpt><trkpt lat="44.31334300276131" lon="10.8391505383497"><ele>763.0</ele><time>2026-04-06T17:34:34.998Z</time></trkpt><trkpt lat="44.31326373923989" lon="10.839065924767134"><ele>763.0</ele><time>2026-04-06T17:34:35.998Z</time></trkpt><trkpt lat="44.313175672334125" lon="10.838995492147596"><ele>761.4</ele><time>2026-04-06T17:34:36.998Z</time></trkpt><trkpt lat="44.31310326303584" lon="10.838918051396456"><ele>759.8</ele><time>2026-04-06T17:34:37.998Z</time></trkpt><trkpt lat="44.31304020148767" lon="10.838845748886024"><ele>758.2</ele><time>2026-04-06T17:34:38.998Z</time></trkpt><trkpt lat="44.3129481291568" lon="10.838747431770305"><ele>756.6</ele><time>2026-04-06T17:34:39.998Z</time></trkpt><trkpt lat="44.31284013470848" lon="10.838631795631121"><ele>755.0</ele><time>2026-04-06T17:34:40.998Z</time></trkpt><trkpt lat="44.312736274875405" lon="10.838521061940789"><ele>757.0</ele><time>2026-04-06T17:34:42Z</time></trkpt><trkpt lat="44.31263045344853" lon="10.838413472514864"><ele>759.0</ele><time>2026-04-06T17:34:43Z</time></trkpt><trkpt lat="44.312510273061875" lon="10.838304963792998"><ele>761.0</ele><time>2026-04-06T17:34:44Z</time></trkpt><trkpt lat="44.312379160775144" lon="10.838203367555165"><ele>763.0</ele><time>2026-04-06T17:34:45Z</time></trkpt><trkpt lat="44.31225864905802" lon="10.838106226532553"><ele>765.0</ele><time>2026-04-06T17:34:46Z</time></trkpt><trkpt lat="44.31215781846052" lon="10.838021878514356"><ele>767.0</ele><time>2026-04-06T17:34:47Z</time></trkpt><trkpt lat="44.31207303406552" lon="10.837930430699847"><ele>769.0</ele><time>2026-04-06T17:34:48Z</time></trkpt><trkpt lat="44.3119839378949" lon="10.83780918454362"><ele>771.0</ele><time>2026-04-06T17:34:49Z</time></trkpt><trkpt lat="44.31190117980661" lon="10.837694572370436"><ele>769.0</ele><time>2026-04-06T17:34:50Z</time></trkpt><trkpt lat="44.31181643768514" lon="10.837588210562911"><ele>767.0</ele><time>2026-04-06T17:34:51Z</time></trkpt><trkpt lat="44.31173370823769" lon="10.837487508954036"><ele>765.0</ele><time>2026-04-06T17:34:52Z</time></trkpt><trkpt lat="44.311658347396566" lon="10.837390597310858"><ele>763.0</ele><time>2026-04-06T17:34:53Z</time></trkpt><trkpt lat="44.31158750494922" lon="10.837289177539525"><ele>761.0</ele><time>2026-04-06T17:34:54Z</time></trkpt><trkpt lat="44.3115223288448" lon="10.837204413341901"><ele>761.0</ele><time>2026-04-06T17:34:55Z</time></trkpt><trkpt lat="44.31145586812409" lon="10.83711099588377"><ele>761.0</ele><time>2026-04-06T17:34:56Z</time></trkpt><trkpt lat="44.31139643925029" lon="10.837014316074084"><ele>761.0</ele><time>2026-04-06T17:34:57Z</time></trkpt><trkpt lat="44.31134604382647" lon="10.836899450484463"><ele>761.0</ele><time>2026-04-06T17:34:58Z</time></trkpt><trkpt lat="44.31129129126495" lon="10.836783117512763"><ele>761.0</ele><time>2026-04-06T17:34:59Z</time></trkpt><trkpt lat="44.31120608012118" lon="10.83668134345839"><ele>759.1999999999999</ele><time>2026-04-06T17:35:00Z</time></trkpt><trkpt lat="44.3111031599528" lon="10.836609374198"><ele>757.4</ele><time>2026-04-06T17:35:01Z</time></trkpt><trkpt lat="44.31101526295888" lon="10.836517121941467"><ele>755.6</ele><time>2026-04-06T17:35:02Z</time></trkpt><trkpt lat="44.310913539734685" lon="10.836448060887625"><ele>753.8</ele><time>2026-04-06T17:35:03Z</time></trkpt><trkpt lat="44.31082843131761" lon="10.83636565750438"><ele>752.0</ele><time>2026-04-06T17:35:04Z</time></trkpt><trkpt lat="44.31075128845455" lon="10.836248540988253"><ele>752.0</ele><time>2026-04-06T17:35:05Z</time></trkpt><trkpt lat="44.31067497212017" lon="10.836145513515048"><ele>752.0</ele><time>2026-04-06T17:35:06Z</time></trkpt><trkpt lat="44.310593004838196" lon="10.83604719089985"><ele>752.0</ele><time>2026-04-06T17:35:07Z</time></trkpt><trkpt lat="44.31052958984647" lon="10.83594376328626"><ele>752.0</ele><time>2026-04-06T17:35:08Z</time></trkpt><trkpt lat="44.310467117520766" lon="10.835845022972679"><ele>752.0</ele><time>2026-04-06T17:35:09Z</time></trkpt><trkpt lat="44.3104069791971" lon="10.835742905668262"><ele>753.6</ele><time>2026-04-06T17:35:10Z</time></trkpt><trkpt lat="44.31032902909485" lon="10.835651987574817"><ele>755.2</ele><time>2026-04-06T17:35:11Z</time></trkpt><trkpt lat="44.31025632477408" lon="10.83557042827066"><ele>756.8</ele><time>2026-04-06T17:35:12Z</time></trkpt><trkpt lat="44.31018080313246" lon="10.835500635375428"><ele>758.4</ele><time>2026-04-06T17:35:13Z</time></trkpt><trkpt lat="44.31011402635755" lon="10.83541307600949"><ele>760.0</ele><time>2026-04-06T17:35:14Z</time></trkpt><trkpt lat="44.31004786212757" lon="10.835353128477092"><ele>760.0</ele><time>2026-04-06T17:35:15Z</time></trkpt><trkpt lat="44.30997441393985" lon="10.835305727780323"><ele>760.0</ele><time>2026-04-06T17:35:16Z</time></trkpt><trkpt lat="44.30987007879734" lon="10.835205597651369"><ele>760.0</ele><time>2026-04-06T17:35:17Z</time></trkpt><trkpt lat="44.30974562127777" lon="10.835082683076406"><ele>760.0</ele><time>2026-04-06T17:35:18Z</time></trkpt><trkpt lat="44.309611667368145" lon="10.834948700695534"><ele>762.75</ele><time>2026-04-06T17:35:19Z</time></trkpt><trkpt lat="44.30949701266912" lon="10.834826253627359"><ele>765.5</ele><time>2026-04-06T17:35:20Z</time></trkpt><trkpt lat="44.30938517104866" lon="10.834725821340246"><ele>768.25</ele><time>2026-04-06T17:35:21Z</time></trkpt><trkpt lat="44.309291899071425" lon="10.834609328079821"><ele>771.0</ele><time>2026-04-06T17:35:22Z</time></trkpt><trkpt lat="44.30919791354492" lon="10.83451941889944"><ele>771.0</ele><time>2026-04-06T17:35:23Z</time></trkpt><trkpt lat="44.309096666951284" lon="10.834459866820351"><ele>771.0</ele><time>2026-04-06T17:35:24Z</time></trkpt><trkpt lat="44.30901410782453" lon="10.83439008636059"><ele>771.0</ele><time>2026-04-06T17:35:25Z</time></trkpt><trkpt lat="44.30894011382028" lon="10.834333160635811"><ele>771.0</ele><time>2026-04-06T17:35:26Z</time></trkpt><trkpt lat="44.30887467512273" lon="10.834264095547917"><ele>771.0</ele><time>2026-04-06T17:35:27Z</time></trkpt><trkpt lat="44.30883467273383" lon="10.834190230086152"><ele>771.0</ele><time>2026-04-06T17:35:28Z</time></trkpt><trkpt lat="44.30881339950309" lon="10.834078229358001"><ele>769.8</ele><time>2026-04-06T17:35:29.999Z</time></trkpt><trkpt lat="44.30870667917158" lon="10.833989644811489"><ele>768.5999999999999</ele><time>2026-04-06T17:35:32.999Z</time></trkpt><trkpt lat="44.30862431505199" lon="10.833992967657638"><ele>767.4</ele><time>2026-04-06T17:35:33.999Z</time></trkpt><trkpt lat="44.30851440921101" lon="10.834002285921951"><ele>766.2</ele><time>2026-04-06T17:35:34.999Z</time></trkpt><trkpt lat="44.308394598825465" lon="10.833998664800122"><ele>765.0</ele><time>2026-04-06T17:35:35.999Z</time></trkpt><trkpt lat="44.30826108413966" lon="10.834001045367778"><ele>765.0</ele><time>2026-04-06T17:35:36.999Z</time></trkpt><trkpt lat="44.30812985035554" lon="10.833998516010018"><ele>765.0</ele><time>2026-04-06T17:35:37.999Z</time></trkpt><trkpt lat="44.307981668298055" lon="10.834010239239923"><ele>765.0</ele><time>2026-04-06T17:35:38.999Z</time></trkpt><trkpt lat="44.30781452556952" lon="10.834028058607554"><ele>765.0</ele><time>2026-04-06T17:35:39.999Z</time></trkpt><trkpt lat="44.30762785602055" lon="10.834068800526454"><ele>764.6666666666666</ele><time>2026-04-06T17:35:40.999Z</time></trkpt><trkpt lat="44.307437128519" lon="10.834126323574441"><ele>764.3333333333333</ele><time>2026-04-06T17:35:41.999Z</time></trkpt><trkpt lat="44.307259859409456" lon="10.834165170362366"><ele>764.0</ele><time>2026-04-06T17:35:42.999Z</time></trkpt><trkpt lat="44.307085647933725" lon="10.834173203222289"><ele>763.0</ele><time>2026-04-06T17:35:43.999Z</time></trkpt><trkpt lat="44.30690396245426" lon="10.834148399795076"><ele>762.0</ele><time>2026-04-06T17:35:44.999Z</time></trkpt><trkpt lat="44.30670448722348" lon="10.83408663645583"><ele>761.0</ele><time>2026-04-06T17:35:45.999Z</time></trkpt><trkpt lat="44.3064935716261" lon="10.834007842197071"><ele>759.0</ele><time>2026-04-06T17:35:46.999Z</time></trkpt><trkpt lat="44.30626922491061" lon="10.833921267815203"><ele>757.0</ele><time>2026-04-06T17:35:47.999Z</time></trkpt><trkpt lat="44.30605130378528" lon="10.833830283283085"><ele>757.0</ele><time>2026-04-06T17:35:48.999Z</time></trkpt><trkpt lat="44.305843509906055" lon="10.83374457571621"><ele>757.0</ele><time>2026-04-06T17:35:49.999Z</time></trkpt><trkpt lat="44.305661659883405" lon="10.833673803888983"><ele>757.0</ele><time>2026-04-06T17:35:50.999Z</time></trkpt><trkpt lat="44.30549300987724" lon="10.833609145554348"><ele>757.3333333333334</ele><time>2026-04-06T17:35:51.999Z</time></trkpt><trkpt lat="44.30531181462801" lon="10.833536097202593"><ele>757.6666666666666</ele><time>2026-04-06T17:35:52.999Z</time></trkpt><trkpt lat="44.30514956137982" lon="10.833459353298345"><ele>758.0</ele><time>2026-04-06T17:35:53.999Z</time></trkpt><trkpt lat="44.30498044574266" lon="10.833372556997322"><ele>759.0</ele><time>2026-04-06T17:35:54.999Z</time></trkpt><trkpt lat="44.30480711361896" lon="10.833288599285702"><ele>760.0</ele><time>2026-04-06T17:35:55.999Z</time></trkpt><trkpt lat="44.30465520330133" lon="10.83318213516557"><ele>761.0</ele><time>2026-04-06T17:35:56.999Z</time></trkpt><trkpt lat="44.30453057170433" lon="10.833085234348678"><ele>761.0</ele><time>2026-04-06T17:35:57.999Z</time></trkpt><trkpt lat="44.30441416987149" lon="10.83295247263321"><ele>761.0</ele><time>2026-04-06T17:35:58.999Z</time></trkpt><trkpt lat="44.304320149386754" lon="10.832810049007414"><ele>761.0</ele><time>2026-04-06T17:35:59.999Z</time></trkpt><trkpt lat="44.304215405686996" lon="10.83265272939532"><ele>761.0</ele><time>2026-04-06T17:36:00.999Z</time></trkpt><trkpt lat="44.304084361166474" lon="10.832483692248774"><ele>764.6666666666666</ele><time>2026-04-06T17:36:01.999Z</time></trkpt><trkpt lat="44.303967846869774" lon="10.83228170820521"><ele>768.3333333333333</ele><time>2026-04-06T17:36:02.999Z</time></trkpt><trkpt lat="44.30385831259456" lon="10.832122003479236"><ele>772.0</ele><time>2026-04-06T17:36:03.999Z</time></trkpt><trkpt lat="44.30374539522927" lon="10.831982405241051"><ele>774.3333333333333</ele><time>2026-04-06T17:36:04.999Z</time></trkpt><trkpt lat="44.30360941139454" lon="10.831810207660356"><ele>776.6666666666667</ele><time>2026-04-06T17:36:05.999Z</time></trkpt><trkpt lat="44.30347391098243" lon="10.831672143499947"><ele>779.0</ele><time>2026-04-06T17:36:06.999Z</time></trkpt><trkpt lat="44.30333004154773" lon="10.831531760211792"><ele>779.0</ele><time>2026-04-06T17:36:07.999Z</time></trkpt><trkpt lat="44.303186073700424" lon="10.831399460142817"><ele>779.0</ele><time>2026-04-06T17:36:08.999Z</time></trkpt><trkpt lat="44.303036160337534" lon="10.831315954517931"><ele>779.0</ele><time>2026-04-06T17:36:09.999Z</time></trkpt><trkpt lat="44.302854681628936" lon="10.831254425852848"><ele>781.3333333333334</ele><time>2026-04-06T17:36:10.999Z</time></trkpt><trkpt lat="44.30267652763135" lon="10.831201376560081"><ele>783.6666666666667</ele><time>2026-04-06T17:36:11.999Z</time></trkpt><trkpt lat="44.30250825645901" lon="10.831127738270485"><ele>786.0</ele><time>2026-04-06T17:36:12.999Z</time></trkpt><trkpt lat="44.302371197943295" lon="10.831068702142627"><ele>785.5</ele><time>2026-04-06T17:36:13.999Z</time></trkpt><trkpt lat="44.302242916307996" lon="10.830999232756385"><ele>785.0</ele><time>2026-04-06T17:36:14.999Z</time></trkpt><trkpt lat="44.30216007703326" lon="10.830890531825824"><ele>784.5</ele><time>2026-04-06T17:36:15.999Z</time></trkpt><trkpt lat="44.30209249200215" lon="10.830773699873758"><ele>784.0</ele><time>2026-04-06T17:36:16.999Z</time></trkpt><trkpt lat="44.30205558686352" lon="10.830622659442275"><ele>785.4000000000001</ele><time>2026-04-06T17:36:17.999Z</time></trkpt><trkpt lat="44.302039066522966" lon="10.8304562557412"><ele>786.8</ele><time>2026-04-06T17:36:18.999Z</time></trkpt><trkpt lat="44.30205467349385" lon="10.830311609765577"><ele>788.2</ele><time>2026-04-06T17:36:19.999Z</time></trkpt><trkpt lat="44.30209573537862" lon="10.830178387055271"><ele>789.5999999999999</ele><time>2026-04-06T17:36:20.999Z</time></trkpt><trkpt lat="44.30214985949502" lon="10.830066767087619"><ele>791.0</ele><time>2026-04-06T17:36:21.999Z</time></trkpt><trkpt lat="44.30221770438227" lon="10.829985216870078"><ele>789.75</ele><time>2026-04-06T17:36:22.999Z</time></trkpt><trkpt lat="44.3022953842409" lon="10.829903370528644"><ele>788.5</ele><time>2026-04-06T17:36:23.999Z</time></trkpt><trkpt lat="44.30240530873373" lon="10.829788421578344"><ele>787.25</ele><time>2026-04-06T17:36:24.999Z</time></trkpt><trkpt lat="44.30250508535105" lon="10.82970054038445"><ele>786.0</ele><time>2026-04-06T17:36:25.999Z</time></trkpt><trkpt lat="44.30260351848617" lon="10.82960264287783"><ele>786.0</ele><time>2026-04-06T17:36:26.999Z</time></trkpt><trkpt lat="44.30273123882063" lon="10.829480996225506"><ele>786.0</ele><time>2026-04-06T17:36:27.999Z</time></trkpt><trkpt lat="44.30287244923828" lon="10.829371533801474"><ele>786.0</ele><time>2026-04-06T17:36:28.999Z</time></trkpt><trkpt lat="44.30294037949934" lon="10.82926286713123"><ele>786.0</ele><time>2026-04-06T17:36:29.999Z</time></trkpt><trkpt lat="44.302981721956456" lon="10.82918065431313"><ele>788.8</ele><time>2026-04-06T17:36:30.999Z</time></trkpt><trkpt lat="44.302990247028454" lon="10.829075555428371"><ele>791.5999999999999</ele><time>2026-04-06T17:36:31.999Z</time></trkpt><trkpt lat="44.30296009094397" lon="10.82895487416325"><ele>794.4</ele><time>2026-04-06T17:36:32.999Z</time></trkpt><trkpt lat="44.30289356568496" lon="10.828848345101909"><ele>797.2</ele><time>2026-04-06T17:36:33.999Z</time></trkpt><trkpt lat="44.3028109811444" lon="10.828805357594538"><ele>800.0</ele><time>2026-04-06T17:36:34.998Z</time></trkpt><trkpt lat="44.302710577633704" lon="10.828798722799416"><ele>800.0</ele><time>2026-04-06T17:36:35.998Z</time></trkpt><trkpt lat="44.30261415270562" lon="10.828819088137774"><ele>800.0</ele><time>2026-04-06T17:36:36.998Z</time></trkpt><trkpt lat="44.30249736070196" lon="10.828816256448775"><ele>800.0</ele><time>2026-04-06T17:36:37.998Z</time></trkpt><trkpt lat="44.30235427264704" lon="10.828815846390176"><ele>800.0</ele><time>2026-04-06T17:36:38.998Z</time></trkpt><trkpt lat="44.30221826308617" lon="10.82880966992592"><ele>802.75</ele><time>2026-04-06T17:36:39.998Z</time></trkpt><trkpt lat="44.30207760781095" lon="10.828799271544757"><ele>805.5</ele><time>2026-04-06T17:36:40.998Z</time></trkpt><trkpt lat="44.30193117705128" lon="10.8287888724065"><ele>808.25</ele><time>2026-04-06T17:36:41.998Z</time></trkpt><trkpt lat="44.301780923141514" lon="10.828777780755468"><ele>811.0</ele><time>2026-04-06T17:36:42.998Z</time></trkpt><trkpt lat="44.30166342077104" lon="10.828771086733575"><ele>811.0</ele><time>2026-04-06T17:36:43.998Z</time></trkpt><trkpt lat="44.30158340051534" lon="10.828709487911258"><ele>811.0</ele><time>2026-04-06T17:36:44.998Z</time></trkpt><trkpt lat="44.30149907804649" lon="10.828645985221247"><ele>811.0</ele><time>2026-04-06T17:36:45.998Z</time></trkpt><trkpt lat="44.30141474072366" lon="10.828591140648022"><ele>811.0</ele><time>2026-04-06T17:36:46.998Z</time></trkpt><trkpt lat="44.30133114302719" lon="10.82850811490096"><ele>811.0</ele><time>2026-04-06T17:36:48Z</time></trkpt><trkpt lat="44.301262285690726" lon="10.828426977854244"><ele>810.8</ele><time>2026-04-06T17:36:49Z</time></trkpt><trkpt lat="44.3011821959963" lon="10.828337642959717"><ele>810.5999999999999</ele><time>2026-04-06T17:36:50Z</time></trkpt><trkpt lat="44.301092217849096" lon="10.828258818998535"><ele>810.4</ele><time>2026-04-06T17:36:51Z</time></trkpt><trkpt lat="44.301002748450145" lon="10.828202881501422"><ele>810.2</ele><time>2026-04-06T17:36:52Z</time></trkpt><trkpt lat="44.300914444992266" lon="10.828179175249435"><ele>810.0</ele><time>2026-04-06T17:36:53Z</time></trkpt><trkpt lat="44.30082636487302" lon="10.82818585290829"><ele>810.0</ele><time>2026-04-06T17:36:54Z</time></trkpt><trkpt lat="44.300739949801596" lon="10.828213237817938"><ele>810.0</ele><time>2026-04-06T17:36:55Z</time></trkpt><trkpt lat="44.30065395713432" lon="10.828270664433528"><ele>810.0</ele><time>2026-04-06T17:36:56Z</time></trkpt><trkpt lat="44.300574766571174" lon="10.82835055012097"><ele>810.0</ele><time>2026-04-06T17:36:57Z</time></trkpt><trkpt lat="44.300505998946626" lon="10.828432483624734"><ele>810.0</ele><time>2026-04-06T17:36:58Z</time></trkpt><trkpt lat="44.30042459272901" lon="10.828522297423447"><ele>813.5</ele><time>2026-04-06T17:36:59Z</time></trkpt><trkpt lat="44.300319261984974" lon="10.828628014540676"><ele>817.0</ele><time>2026-04-06T17:37:00Z</time></trkpt><trkpt lat="44.30020495502379" lon="10.828738860646778"><ele>820.5</ele><time>2026-04-06T17:37:01Z</time></trkpt><trkpt lat="44.30007783894569" lon="10.828805714888137"><ele>824.0</ele><time>2026-04-06T17:37:02Z</time></trkpt><trkpt lat="44.29997190978467" lon="10.828849593535221"><ele>824.0000000000001</ele><time>2026-04-06T17:37:03Z</time></trkpt><trkpt lat="44.29988458221172" lon="10.82885941916498"><ele>824.0</ele><time>2026-04-06T17:37:04Z</time></trkpt><trkpt lat="44.29980044583121" lon="10.828830709852875"><ele>824.0</ele><time>2026-04-06T17:37:05Z</time></trkpt><trkpt lat="44.29970925212745" lon="10.828796344060047"><ele>824.0</ele><time>2026-04-06T17:37:06Z</time></trkpt><trkpt lat="44.29962677491128" lon="10.828755024596237"><ele>824.0000000000001</ele><time>2026-04-06T17:37:07Z</time></trkpt><trkpt lat="44.29954737364681" lon="10.828702380094574"><ele>824.0</ele><time>2026-04-06T17:37:08Z</time></trkpt><trkpt lat="44.299450559786564" lon="10.828655972173696"><ele>823.0</ele><time>2026-04-06T17:37:09Z</time></trkpt><trkpt lat="44.29932741156734" lon="10.828593222968715"><ele>822.0</ele><time>2026-04-06T17:37:10Z</time></trkpt><trkpt lat="44.29920012572504" lon="10.828525281167366"><ele>821.0</ele><time>2026-04-06T17:37:11Z</time></trkpt><trkpt lat="44.299068165603686" lon="10.828455052448517"><ele>820.0</ele><time>2026-04-06T17:37:12Z</time></trkpt><trkpt lat="44.2989282942757" lon="10.828372003422121"><ele>823.5</ele><time>2026-04-06T17:37:13Z</time></trkpt><trkpt lat="44.298794930874465" lon="10.828270871699024"><ele>827.0</ele><time>2026-04-06T17:37:14Z</time></trkpt><trkpt lat="44.298671391849986" lon="10.828147667415635"><ele>830.5</ele><time>2026-04-06T17:37:15Z</time></trkpt><trkpt lat="44.298576266775775" lon="10.828035636046513"><ele>834.0</ele><time>2026-04-06T17:37:16Z</time></trkpt><trkpt lat="44.298495257795395" lon="10.827941423231584"><ele>834.0</ele><time>2026-04-06T17:37:17Z</time></trkpt><trkpt lat="44.298413350847774" lon="10.82788091379695"><ele>834.0</ele><time>2026-04-06T17:37:18Z</time></trkpt><trkpt lat="44.29833767854917" lon="10.82786447895908"><ele>834.0</ele><time>2026-04-06T17:37:19Z</time></trkpt><trkpt lat="44.29826795496429" lon="10.827896447997318"><ele>834.0</ele><time>2026-04-06T17:37:20Z</time></trkpt><trkpt lat="44.298190153552795" lon="10.828086272552403"><ele>834.0</ele><time>2026-04-06T17:37:22Z</time></trkpt><trkpt lat="44.29814794789982" lon="10.828195461168134"><ele>834.0</ele><time>2026-04-06T17:37:23Z</time></trkpt><trkpt lat="44.298107553780454" lon="10.828316576637771"><ele>834.0</ele><time>2026-04-06T17:37:24Z</time></trkpt><trkpt lat="44.29806628843309" lon="10.828445027833098"><ele>834.0</ele><time>2026-04-06T17:37:25Z</time></trkpt><trkpt lat="44.298023748798066" lon="10.828552363355994"><ele>834.0</ele><time>2026-04-06T17:37:26Z</time></trkpt><trkpt lat="44.29796656694922" lon="10.82866354550563"><ele>834.0</ele><time>2026-04-06T17:37:27Z</time></trkpt><trkpt lat="44.29790559546594" lon="10.828761101890883"><ele>835.8000000000001</ele><time>2026-04-06T17:37:28Z</time></trkpt><trkpt lat="44.297838221546044" lon="10.828853506693115"><ele>837.6</ele><time>2026-04-06T17:37:29Z</time></trkpt><trkpt lat="44.2977717071837" lon="10.828940311919938"><ele>839.4</ele><time>2026-04-06T17:37:30Z</time></trkpt><trkpt lat="44.297709647306384" lon="10.829020564994563"><ele>841.2</ele><time>2026-04-06T17:37:30.999Z</time></trkpt><trkpt lat="44.29763804695937" lon="10.829103579747697"><ele>843.0</ele><time>2026-04-06T17:37:31.999Z</time></trkpt><trkpt lat="44.29756531314303" lon="10.829180475215768"><ele>843.0</ele><time>2026-04-06T17:37:32.999Z</time></trkpt><trkpt lat="44.29745346845918" lon="10.829238903465187"><ele>843.0</ele><time>2026-04-06T17:37:33.999Z</time></trkpt><trkpt lat="44.29732665569123" lon="10.829313217299125"><ele>843.0</ele><time>2026-04-06T17:37:34.999Z</time></trkpt><trkpt lat="44.29720237513987" lon="10.82939292027318"><ele>843.0</ele><time>2026-04-06T17:37:35.999Z</time></trkpt><trkpt lat="44.297068264625835" lon="10.829483449560003"><ele>845.25</ele><time>2026-04-06T17:37:36.999Z</time></trkpt><trkpt lat="44.29694379086721" lon="10.829576516204567"><ele>847.5</ele><time>2026-04-06T17:37:37.999Z</time></trkpt><trkpt lat="44.296829010354074" lon="10.82968871769329"><ele>849.75</ele><time>2026-04-06T17:37:38.999Z</time></trkpt><trkpt lat="44.296728405930196" lon="10.829816688048757"><ele>852.0</ele><time>2026-04-06T17:37:39.999Z</time></trkpt><trkpt lat="44.296662751635935" lon="10.829905987932003"><ele>852.0</ele><time>2026-04-06T17:37:40.999Z</time></trkpt><trkpt lat="44.296613935162036" lon="10.829961669954194"><ele>852.0</ele><time>2026-04-06T17:37:41.999Z</time></trkpt><trkpt lat="44.29653902695174" lon="10.830015662986687"><ele>852.0</ele><time>2026-04-06T17:37:44.999Z</time></trkpt><trkpt lat="44.296593743072485" lon="10.82989839055003"><ele>852.0</ele><time>2026-04-06T17:37:48.999Z</time></trkpt><trkpt lat="44.29666939450581" lon="10.829889342555566"><ele>852.0</ele><time>2026-04-06T17:37:49.999Z</time></trkpt><trkpt lat="44.29672683422714" lon="10.82980462731837"><ele>852.0</ele><time>2026-04-06T17:37:50.999Z</time></trkpt><trkpt lat="44.29680578005884" lon="10.82971550298778"><ele>852.0</ele><time>2026-04-06T17:37:51.999Z</time></trkpt><trkpt lat="44.29688029745489" lon="10.829654917087614"><ele>852.0</ele><time>2026-04-06T17:37:52.999Z</time></trkpt><trkpt lat="44.29693188999754" lon="10.829578864805848"><ele>852.0</ele><time>2026-04-06T17:37:53.999Z</time></trkpt><trkpt lat="44.29702490621872" lon="10.829503035376348"><ele>852.0</ele><time>2026-04-06T17:37:55.999Z</time></trkpt><trkpt lat="44.29708426119731" lon="10.82941762101964"><ele>852.0</ele><time>2026-04-06T17:37:58.999Z</time></trkpt><trkpt lat="44.29718748382986" lon="10.829351935469905"><ele>851.4000000000001</ele><time>2026-04-06T17:38:00.999Z</time></trkpt><trkpt lat="44.29726767593478" lon="10.829305320050738"><ele>850.8000000000001</ele><time>2026-04-06T17:38:02.999Z</time></trkpt><trkpt lat="44.297278245459445" lon="10.829178555384045"><ele>850.2</ele><time>2026-04-06T17:38:05.999Z</time></trkpt><trkpt lat="44.29724113818085" lon="10.829073375747372"><ele>849.6</ele><time>2026-04-06T17:38:06.999Z</time></trkpt><trkpt lat="44.29714650092072" lon="10.828944782216638"><ele>849.0</ele><time>2026-04-06T17:38:08.999Z</time></trkpt><trkpt lat="44.29710358303365" lon="10.828865480286074"><ele>849.0</ele><time>2026-04-06T17:38:09.999Z</time></trkpt><trkpt lat="44.297023966255765" lon="10.828802082271054"><ele>849.0</ele><time>2026-04-06T17:38:10.999Z</time></trkpt><trkpt lat="44.29695952507863" lon="10.828741651076129"><ele>849.0</ele><time>2026-04-06T17:38:11.999Z</time></trkpt><trkpt lat="44.296873553024476" lon="10.828674026134731"><ele>849.0</ele><time>2026-04-06T17:38:13.999Z</time></trkpt><trkpt lat="44.29690080951419" lon="10.828522736382546"><ele>849.0</ele><time>2026-04-06T17:39:17Z</time></trkpt><trkpt lat="44.29684007922605" lon="10.828471316672859"><ele>849.0</ele><time>2026-04-06T17:39:32Z</time></trkpt><trkpt lat="44.29680246913393" lon="10.828372661234807"><ele>849.0</ele><time>2026-04-06T17:39:53.999Z</time></trkpt><trkpt lat="44.296714643914704" lon="10.828303301755874"><ele>849.0</ele><time>2026-04-06T17:39:55.999Z</time></trkpt><trkpt lat="44.29678342535657" lon="10.828318181233366"><ele>849.0</ele><time>2026-04-06T17:39:58.999Z</time></trkpt><trkpt lat="44.29688286657137" lon="10.828402523211729"><ele>849.0</ele><time>2026-04-06T17:40:00.999Z</time></trkpt><trkpt lat="44.296863908780395" lon="10.828529466461184"><ele>849.0</ele><time>2026-04-06T17:40:08.999Z</time></trkpt><trkpt lat="44.296858330793576" lon="10.8286389344694"><ele>849.0</ele><time>2026-04-06T17:40:13.999Z</time></trkpt><trkpt lat="44.296916889954346" lon="10.82854982984525"><ele>849.0</ele><time>2026-04-06T17:40:26.999Z</time></trkpt><trkpt lat="44.29696501981052" lon="10.828453489701438"><ele>849.0</ele><time>2026-04-06T17:40:29.999Z</time></trkpt><trkpt lat="44.296902488287635" lon="10.82840934642049"><ele>849.0</ele><time>2026-04-06T17:40:44.998Z</time></trkpt><trkpt lat="44.296989529672395" lon="10.828396129926547"><ele>849.0</ele><time>2026-04-06T17:41:27Z</time></trkpt><trkpt lat="44.29707885659107" lon="10.828427925985615"><ele>847.0</ele><time>2026-04-06T17:41:35.999Z</time></trkpt><trkpt lat="44.29714185676721" lon="10.828393120410174"><ele>845.0</ele><time>2026-04-06T17:41:38.999Z</time></trkpt><trkpt lat="44.29721975447031" lon="10.828325548714119"><ele>843.0</ele><time>2026-04-06T17:41:40.999Z</time></trkpt><trkpt lat="44.29748450516129" lon="10.828171166318128"><ele>841.0</ele><time>2026-04-06T17:41:45.999Z</time></trkpt><trkpt lat="44.29727929476658" lon="10.828273886548184"><ele>834.0</ele><time>2026-04-06T17:41:48.999Z</time></trkpt><trkpt lat="44.29714593292916" lon="10.828496761332753"><ele>849.0</ele><time>2026-04-06T17:42:30.999Z</time></trkpt><trkpt lat="44.29716300422122" lon="10.828406458629914"><ele>841.0</ele><time>2026-04-06T17:43:59.999Z</time></trkpt></trkseg></trk></gpx>